[[{"header":{"parameterUnit":"m.s-1","parameterCategory":1,"la1":31.0,"la2":29.5877,"lo1":-88.7671,"lo2":-86.6584,"dy":0.0162,"dx":0.0185,"nx":115,"ny":88,"refTime":"2024-02-06T06:00:00:Z","depth":0,"parameterNumber":2,"parameterNumberName":"U-component_of_WINDS"},"data":[0.0,0.0,0.0,0.0,0.0,0.0,0.0,0.0,0.0,0.0,0.0,0.0,0.0,0.0,0.0,0.0,0.0,0.0,0.0,0.0,0.0,0.0,0.0,0.0,0.0,0.0,0.0,0.0,0.0,0.0,0.0,0.0,0.0,0.0,0.0,0.0,0.0,0.0,0.0,0.0,0.0,0.0,0.0,0.0,0.0,0.0,0.0,0.0,0.0,0.0,0.0,0.0,0.0,0.0,0.0,0.0,0.0,0.0,0.0,0.0,0.0,0.0,0.0,0.0,0.0,0.0,0.0,0.0,0.0,0.0,0.0,0.0,0.0,0.0,0.0,0.0,0.0,0.0,0.0,0.0,0.0,0.0,0.0,0.0,0.0,0.0,0.0,0.0,0.0,0.0,0.0,0.0,0.0,0.0,0.0,0.0,0.0,0.0,0.0,0.0,0.0,0.0,0.0,0.0,0.0,0.0,0.0,0.0,0.0,0.0,0.0,0.0,0.0,0.0,0.0,0.0,0.0,0.0,0.0,0.0,0.0,0.0,0.0,0.0,0.0,0.0,0.0,0.0,0.0,0.0,0.0,0.0,0.0,0.0,0.0,0.0,0.0,0.0,0.0,0.0,0.0,0.0,0.0,0.0,0.0,0.0,0.0,0.0,0.0,0.0,0.0,0.0,0.0,0.0,0.0,0.0,0.0,0.0,0.0,0.0,0.0,0.0,0.0,0.0,0.0,0.0,0.0,0.0,0.0,0.0,0.0,0.0,0.0,0.0,0.0,0.0,0.0,0.0,0.0,0.0,0.0,0.0,0.0,0.0,0.0,0.0,0.0,0.0,0.0,0.0,0.0,0.0,0.0,0.0,0.0,0.0,0.0,0.0,0.0,0.0,0.0,0.0,0.0,0.0,0.0,0.0,0.0,0.0,0.0,0.0,0.0,0.0,0.0,0.0,0.0,0.0,0.0,0.0,0.0,0.0,0.0,0.0,0.0,0.0,0.0,0.0,0.0,0.0,0.0,0.0,0.0,0.0,0.0,0.0,0.0,0.0,0.0,0.0,0.0,0.0,0.0,0.0,0.0,0.0,0.0,0.0,0.0,0.0,0.0,0.0,0.0,0.0,0.0,0.0,0.0,0.0,0.0,0.0,0.0,0.0,0.0,0.0,0.0,0.0,0.0,0.0,0.0,0.0,0.0,0.0,0.0,0.0,0.0,0.0,0.0,0.0,0.0,0.0,0.0,0.0,0.0,0.0,0.0,0.0,0.0,0.0,0.0,0.0,0.0,0.0,0.0,0.0,0.0,0.0,0.0,0.0,0.0,0.0,0.0,0.0,0.0,0.0,0.0,0.0,0.0,0.0,0.0,0.0,0.0,0.0,0.0,0.0,0.0,0.0,0.0,0.0,0.0,0.0,0.0,0.0,0.0,0.0,0.0,0.0,0.0,0.0,0.0,0.0,0.0,0.0,0.0,0.0,0.0,0.0,0.0,0.0,0.0,0.0,0.0,0.0,0.0,0.0,0.0,0.0,0.0,0.0,0.0,0.0,0.0,0.0,0.0,0.0,0.0,0.0,0.0,0.0,0.0,0.0,0.0,0.0,0.0,0.0,0.0,0.0,0.0,0.0,0.0,0.0,0.0,0.0,0.0,0.0,0.0,0.0,0.0,0.0,0.0,0.0,0.0,0.0,0.0,0.0,0.0,0.0,0.0,0.0,0.0,0.0,0.0,0.0,0.0,0.0,0.0,0.0,0.0,0.0,0.0,0.0,0.0,0.0,0.0,0.0,0.0,0.0,0.0,0.0,0.0,0.0,0.0,0.0,0.0,0.0,0.0,0.0,0.0,0.0,0.0,0.0,0.0,0.0,0.0,0.0,0.0,0.0,0.0,0.0,0.0,0.0,0.0,0.0,0.0,0.0,0.0,0.0,0.0,0.0,0.0,0.0,0.0,0.0,0.0,0.0,0.0,0.0,0.0,0.0,0.0,0.0,0.0,0.0,0.0,0.0,0.0,0.0,0.0,0.0,0.0,0.0,0.0,0.0,0.0,0.0,0.0,0.0,0.0,0.0,0.0,0.0,0.0,0.0,0.0,0.0,0.0,0.0,0.0,0.0,0.0,0.0,0.0,0.0,0.0,0.0,0.0,0.0,0.0,0.0,0.0,0.0,0.0,0.0,0.0,0.0,0.0,0.0,0.0,0.0,0.0,0.0,0.0,0.0,0.0,0.0,0.0,0.0,0.0,0.0,0.0,0.0,0.0,0.0,0.0,0.0,0.0,0.0,0.0,0.0,0.0,0.0,0.0,0.0,0.0,0.0,0.0,0.0,0.0,0.0,0.0,0.0,0.0,0.0,0.0,0.0,0.0,0.0,0.0,0.0,0.0,0.0,0.0,0.0,0.0,0.0,0.0,0.0,0.0,0.0,0.0,0.0,0.0,0.0,0.0,0.0,0.0,0.0,0.0,0.0,0.0,0.0,0.0,0.0,0.0,0.0,0.0,0.0,0.0,0.0,0.0,0.0,0.0,0.0,0.0,0.0,0.0,0.0,0.0,0.0,0.0,0.0,0.0,0.0,0.0,0.0,0.0,0.0,0.0,0.0,0.0,0.0,0.0,0.0,0.0,0.0,0.0,0.0,0.0,0.0,0.0,0.0,0.0,0.0,0.0,0.0,0.0,0.0,0.0,0.0,0.0,0.0,0.0,0.0,0.0,0.0,0.0,0.0,0.0,0.0,0.0,0.0,0.0,0.0,0.0,0.0,0.0,0.0,0.0,0.0,0.0,0.0,0.0,0.0,0.0,0.0,0.0,0.0,0.0,0.0,0.0,0.0,0.0,0.0,0.0,0.0,0.0,0.0,0.0,0.0,0.0,0.0,0.0,0.0,0.0,0.0,0.0,0.0,0.0,0.0,0.0,0.0,0.0,0.0,0.0,0.0,0.0,0.0,0.0,0.0,0.0,0.0,0.0,0.0,0.0,0.0,0.0,0.0,0.0,0.0,0.0,0.0,0.0,0.0,0.0,0.0,0.0,0.0,0.0,0.0,0.0,0.0,0.0,0.0,0.0,0.0,0.0,0.0,0.0,0.0,0.0,0.0,0.0,0.0,0.0,0.0,0.0,0.0,0.0,0.0,0.0,0.0,0.0,0.0,0.0,0.0,0.0,0.0,0.0,0.0,0.0,0.0,0.0,0.0,0.0,0.0,0.0,0.0,0.0,0.0,0.0,0.0,0.0,0.0,0.0,0.0,0.0,0.0,0.0,0.0,0.0,0.0,0.0,0.0,0.0,0.0,0.0,0.0,0.0,0.0,0.0,0.0,0.0,0.0,0.0,0.0,0.0,0.0,0.0,0.0,0.0,0.0,0.0,0.0,0.0,0.0,0.0,0.0,0.0,0.0,0.0,0.0,0.0,0.0,0.0,0.0,0.0,0.0,0.0,0.0,0.0,0.0,0.0,0.0,0.0,0.0,0.0,0.0,0.0,0.0,0.0,0.0,0.0,0.0,0.0,0.0,0.0,0.0,0.0,0.0,0.0,0.0,0.0,0.0,0.0,0.0,0.0,0.0,0.0,0.0,0.0,0.0,0.0,0.0,0.0,0.0,0.0,0.0,0.0,0.0,0.0,0.0,0.0,0.0,0.0,0.0,0.0,0.0,0.0,0.0,0.0,0.0,0.0,0.0,0.0,0.0,0.0,0.0,0.0,0.0,0.0,0.0,0.0,0.0,0.0,0.0,0.0,0.0,0.0,0.0,0.0,0.0,0.0,0.0,0.0,0.0,0.0,0.0,0.0,0.0,0.0,0.0,0.0,0.0,0.0,0.0,0.0,0.0,0.0,0.0,0.0,0.0,0.0,0.0,0.0,0.0,0.0,0.0,0.0,0.0,0.0,0.0,0.0,0.0,0.0,0.0,0.0,0.0,0.0,0.0,0.0,0.0,0.0,0.0,0.0,0.0,0.0,0.0,0.0,0.0,0.0,0.0,0.0,0.0,0.0,0.0,0.0,0.0,0.0,0.0,0.0,0.0,0.0,0.0,0.0,0.0,0.0,0.0,0.0,0.0,0.0,0.0,0.0,0.0,0.0,0.0,0.0,0.0,0.0,0.0,0.0,0.0,0.0,0.0,0.0,0.0,0.0,0.0,0.0,0.0,0.0,0.0,0.0,0.0,0.0,0.0,0.0,0.0,0.0,0.0,0.0,0.0,0.0,0.0,0.0,0.0,0.0,0.0,0.0,0.0,0.0,0.0,0.0,0.0,0.0,0.0,0.0,0.0,0.0,0.0,-1.2251,0.0,0.0,0.0,0.0,0.0,0.0,0.0,0.0,0.0,0.0,0.0,0.0,0.0,0.0,0.0,0.0,0.0,0.0,0.0,0.0,0.0,0.0,0.0,0.0,0.0,0.0,0.0,0.0,0.0,0.0,0.0,0.0,0.0,0.0,0.0,0.0,0.0,0.0,0.0,0.0,0.0,0.0,0.0,0.0,0.0,0.0,0.0,0.0,0.0,0.0,0.0,0.0,0.0,0.0,0.0,0.0,0.0,0.0,0.0,0.0,0.0,0.0,0.0,0.0,0.0,0.0,0.0,0.0,0.0,0.0,0.0,0.0,0.0,0.0,0.0,0.0,0.0,0.0,0.0,0.0,0.0,0.0,0.0,0.0,0.0,0.0,0.0,0.0,0.0,0.0,0.0,0.0,0.0,0.0,0.0,0.0,0.0,0.0,0.0,0.0,0.0,0.0,0.0,0.0,0.0,0.0,0.0,0.0,0.0,0.0,-1.1832,-1.165,-1.2046,-1.2305,-1.2318,0.0,0.0,0.0,0.0,0.0,0.0,0.0,0.0,0.0,0.0,0.0,0.0,0.0,0.0,0.0,0.0,0.0,0.0,0.0,0.0,0.0,0.0,0.0,0.0,0.0,0.0,0.0,0.0,0.0,0.0,0.0,0.0,0.0,0.0,0.0,0.0,0.0,0.0,0.0,0.0,0.0,0.0,0.0,0.0,0.0,0.0,0.0,0.0,0.0,0.0,0.0,0.0,0.0,0.0,0.0,0.0,0.0,0.0,0.0,0.0,0.0,0.0,0.0,0.0,0.0,0.0,0.0,0.0,0.0,0.0,0.0,0.0,0.0,0.0,0.0,0.0,0.0,0.0,0.0,0.0,0.0,0.0,0.0,0.0,0.0,0.0,0.0,0.0,0.0,0.0,0.0,0.0,0.0,0.0,0.0,0.0,0.0,0.0,0.0,0.0,0.0,0.0,0.0,0.0,0.0,0.0,0.0,0.0,0.0,0.0,0.0,0.0,-1.2225,-1.2421,-1.2311,0.0,0.0,0.0,0.0,0.0,0.0,0.0,0.0,0.0,0.0,0.0,0.0,0.0,0.0,0.0,0.0,0.0,0.0,0.0,0.0,0.0,0.0,0.0,0.0,0.0,0.0,0.0,0.0,0.0,0.0,0.0,0.0,0.0,0.0,0.0,0.0,0.0,0.0,0.0,0.0,0.0,0.0,0.0,0.0,0.0,0.0,0.0,0.0,0.0,0.0,0.0,0.0,0.0,0.0,0.0,0.0,0.0,0.0,0.0,0.0,0.0,0.0,0.0,0.0,0.0,0.0,0.0,0.0,0.0,0.0,0.0,0.0,0.0,0.0,0.0,0.0,0.0,0.0,0.0,0.0,0.0,0.0,0.0,0.0,0.0,0.0,0.0,0.0,0.0,0.0,0.0,0.0,0.0,0.0,0.0,0.0,0.0,0.0,0.0,0.0,0.0,0.0,0.0,0.0,0.0,0.0,0.0,0.0,0.0,0.0,-1.1837,-1.2655,-1.2946,0.0,-1.2293,0.0,0.0,0.0,0.0,0.0,0.0,0.0,0.0,0.0,0.0,0.0,0.0,0.0,0.0,0.0,0.0,0.0,0.0,0.0,0.0,0.0,0.0,0.0,0.0,0.0,0.0,0.0,0.0,0.0,0.0,0.0,0.0,0.0,0.0,0.0,0.0,0.0,0.0,0.0,0.0,0.0,0.0,0.0,0.0,0.0,0.0,0.0,0.0,0.0,0.0,0.0,0.0,0.0,0.0,0.0,0.0,0.0,0.0,0.0,0.0,0.0,0.0,0.0,0.0,0.0,0.0,0.0,0.0,0.0,0.0,0.0,0.0,0.0,0.0,0.0,0.0,0.0,0.0,0.0,0.0,0.0,0.0,0.0,0.0,0.0,0.0,0.0,0.0,0.0,0.0,0.0,0.0,0.0,0.0,0.0,0.0,0.0,0.0,0.0,0.0,0.0,0.0,0.0,0.0,0.0,0.0,0.0,0.0,0.0,0.0,-1.185,-1.2776,-1.2478,-1.1754,0.0,0.0,0.0,0.0,0.0,0.0,0.0,0.0,0.0,0.0,0.0,0.0,0.0,0.0,0.0,0.0,0.0,0.0,0.0,0.0,0.0,0.0,0.0,0.0,0.0,0.0,0.0,0.0,0.0,0.0,0.0,0.0,0.0,0.0,0.0,0.0,0.0,0.0,0.0,0.0,0.0,0.0,0.0,0.0,0.0,0.0,0.0,0.0,0.0,0.0,0.0,0.0,0.0,0.0,0.0,0.0,0.0,0.0,0.0,0.0,0.0,0.0,0.0,0.0,0.0,0.0,0.0,0.0,0.0,0.0,0.0,0.0,0.0,0.0,0.0,0.0,0.0,0.0,0.0,0.0,0.0,0.0,0.0,0.0,0.0,0.0,0.0,0.0,0.0,0.0,0.0,0.0,0.0,0.0,0.0,0.0,0.0,0.0,0.0,0.0,0.0,0.0,0.0,0.0,0.0,0.0,0.0,0.0,0.0,0.0,-1.0768,-1.1211,-1.2085,-1.1218,-1.0203,-0.9223,0.0,0.0,0.0,0.0,0.0,0.0,0.0,0.0,0.0,0.0,0.0,0.0,0.0,0.0,0.0,0.0,0.0,0.0,0.0,0.0,0.0,0.0,0.0,0.0,0.0,0.0,0.0,0.0,0.0,0.0,0.0,0.0,0.0,0.0,0.0,0.0,0.0,0.0,0.0,0.0,0.0,0.0,0.0,0.0,0.0,0.0,0.0,0.0,0.0,0.0,0.0,0.0,0.0,0.0,0.0,0.0,0.0,0.0,0.0,0.0,0.0,0.0,0.0,0.0,0.0,0.0,0.0,0.0,0.0,0.0,0.0,0.0,0.0,0.0,0.0,0.0,0.0,0.0,0.0,0.0,0.0,0.0,0.0,0.0,0.0,0.0,0.0,0.0,0.0,0.0,0.0,0.0,0.0,0.0,0.0,0.0,0.0,0.0,0.0,0.0,0.0,0.0,0.0,0.0,0.0,0.0,0.0,0.0,-1.0151,-0.9584,-0.9665,-1.0622,-0.9043,-0.8411,0.0,0.0,0.0,0.0,0.0,0.0,0.0,0.0,0.0,0.0,0.0,0.0,0.0,0.0,0.0,0.0,0.0,0.0,0.0,0.0,0.0,0.0,0.0,0.0,0.0,0.0,0.0,0.0,0.0,0.0,0.0,0.0,0.0,0.0,0.0,0.0,0.0,0.0,0.0,0.0,0.0,0.0,0.0,0.0,0.0,0.0,0.0,0.0,0.0,0.0,0.0,0.0,0.0,0.0,0.0,0.0,0.0,0.0,0.0,0.0,0.0,0.0,0.0,0.0,0.0,0.0,0.0,0.0,0.0,0.0,0.0,0.0,0.0,0.0,0.0,0.0,0.0,0.0,0.0,0.0,0.0,0.0,0.0,0.0,0.0,0.0,0.0,0.0,0.0,0.0,0.0,0.0,0.0,0.0,0.0,0.0,0.0,0.0,0.0,0.0,0.0,0.0,0.0,0.0,0.0,0.0,0.0,0.0,0.0,-0.9154,-0.9479,-0.939,-0.8953,-0.8565,-0.8073,0.0,0.0,0.0,0.0,0.0,0.0,0.0,0.0,0.0,0.0,0.0,0.0,0.0,0.0,0.0,0.0,0.0,0.0,0.0,0.0,0.0,0.0,0.0,0.0,0.0,0.0,0.0,0.0,0.0,0.0,0.0,0.0,0.0,0.0,0.0,0.0,0.0,0.0,0.0,0.0,0.0,0.0,0.0,0.0,0.0,0.0,0.0,0.0,0.0,0.0,0.0,0.0,0.0,0.0,0.0,0.0,0.0,0.0,0.0,0.0,0.0,0.0,0.0,0.0,0.0,0.0,0.0,0.0,0.0,0.0,0.0,0.0,0.0,0.0,0.0,0.0,0.0,0.0,0.0,0.0,0.0,0.0,0.0,0.0,0.0,0.0,0.0,0.0,0.0,0.0,0.0,0.0,0.0,0.0,0.0,0.0,0.0,0.0,0.0,0.0,0.0,0.0,0.0,0.0,0.0,0.0,0.0,0.0,0.0,-0.7941,0.0,-0.8544,-0.7628,-0.7797,-0.7455,0.0,0.0,0.0,0.0,0.0,0.0,0.0,0.0,0.0,0.0,0.0,0.0,0.0,0.0,0.0,0.0,0.0,0.0,0.0,0.0,0.0,0.0,0.0,0.0,0.0,0.0,0.0,0.0,0.0,0.0,0.0,0.0,0.0,0.0,0.0,0.0,0.0,0.0,0.0,0.0,0.0,0.0,0.0,0.0,0.0,0.0,0.0,0.0,0.0,0.0,0.0,0.0,0.0,0.0,0.0,0.0,0.0,0.0,0.0,0.0,0.0,0.0,0.0,0.0,0.0,0.0,0.0,0.0,0.0,0.0,0.0,0.0,0.0,0.0,0.0,0.0,0.0,0.0,0.0,0.0,0.0,0.0,0.0,0.0,0.0,0.0,0.0,0.0,0.0,0.0,0.0,0.0,0.0,0.0,0.0,0.0,0.0,0.0,0.0,0.0,0.0,0.0,0.0,0.0,0.0,0.0,0.0,0.0,-0.6192,-0.6524,-0.6942,-0.706,-0.6736,-0.662,-0.6476,0.0,0.0,0.0,0.0,0.0,0.0,0.0,0.0,0.0,0.0,0.0,0.0,0.0,0.0,0.0,0.0,0.0,0.0,0.0,0.0,0.0,0.0,0.0,0.0,0.0,0.0,0.0,0.0,0.0,0.0,0.0,0.0,0.0,0.0,0.0,0.0,0.0,0.0,0.0,0.0,0.0,0.0,0.0,0.0,0.0,0.0,0.0,0.0,0.0,0.0,0.0,0.0,0.0,0.0,0.0,0.0,0.0,0.0,0.0,0.0,0.0,0.0,0.0,0.0,0.0,0.0,0.0,0.0,0.0,0.0,0.0,0.0,0.0,0.0,0.0,0.0,0.0,0.0,0.0,0.0,0.0,0.0,0.0,0.0,0.0,0.0,0.0,0.0,0.0,0.0,0.0,0.0,0.0,0.0,0.0,0.0,0.0,0.0,0.0,0.0,0.0,0.0,0.0,0.0,0.0,0.0,0.0,0.0,0.0,-0.6491,-0.6532,-0.6688,-0.6951,-0.6661,-0.662,0.0,0.0,0.0,0.0,0.0,0.0,0.0,0.0,0.0,0.0,0.0,0.0,0.0,0.0,0.0,0.0,0.0,0.0,0.0,0.0,0.0,0.0,0.0,0.0,0.0,0.0,0.0,0.0,0.0,0.0,0.0,0.0,0.0,0.0,0.0,0.0,0.0,0.0,0.0,0.0,0.0,0.0,0.0,0.0,0.0,0.0,0.0,0.0,0.0,0.0,0.0,0.0,0.0,0.0,0.0,0.0,0.0,0.0,0.0,0.0,0.0,0.0,0.0,0.0,0.0,0.0,0.0,0.0,0.0,0.0,0.0,0.0,0.0,0.0,0.0,0.0,0.0,0.0,0.0,0.0,0.0,0.0,0.0,0.0,0.0,0.0,0.0,0.0,0.0,0.0,0.0,0.0,0.0,0.0,0.0,0.0,0.0,0.0,0.0,0.0,0.0,0.0,0.0,0.0,0.0,0.0,0.0,0.0,0.0,-0.6722,-0.6654,-0.6736,-0.7011,-0.6837,-0.6803,-0.6938,0.0,0.0,0.0,0.0,0.0,0.0,0.0,0.0,0.0,0.0,0.0,0.0,0.0,0.0,0.0,0.0,0.0,0.0,0.0,0.0,0.0,0.0,0.0,0.0,0.0,0.0,0.0,0.0,0.0,0.0,0.0,0.0,0.0,0.0,0.0,0.0,0.0,0.0,0.0,0.0,0.0,0.0,0.0,0.0,0.0,0.0,0.0,0.0,0.0,0.0,0.0,0.0,0.0,0.0,0.0,0.0,0.0,0.0,0.0,0.0,0.0,0.0,0.0,0.0,0.0,0.0,0.0,0.0,0.0,0.0,0.0,0.0,0.0,0.0,0.0,0.0,0.0,0.0,0.0,0.0,0.0,0.0,0.0,0.0,0.0,0.0,0.0,0.0,0.0,0.0,0.0,0.0,0.0,0.0,0.0,0.0,0.0,0.0,0.0,0.0,0.0,0.0,0.0,0.0,0.0,0.0,0.0,0.0,-0.7105,-0.7141,-0.7065,-0.6972,-0.7038,-0.6999,0.0,0.0,0.0,0.0,0.0,0.0,0.0,0.0,0.0,0.0,0.0,0.0,0.0,0.0,0.0,0.0,0.0,0.0,0.0,0.0,0.0,0.0,0.0,0.0,0.0,0.0,0.0,0.0,0.0,0.0,0.0,0.0,0.0,0.0,0.0,0.0,0.0,0.0,0.0,0.0,0.0,0.0,0.0,0.0,0.0,0.0,0.0,0.0,0.0,0.0,0.0,0.0,0.0,0.0,0.0,0.0,0.0,0.0,0.0,0.0,0.0,0.0,0.0,0.0,0.0,0.0,0.0,0.0,0.0,0.0,0.0,0.0,0.0,0.0,0.0,0.0,0.0,0.0,0.0,0.0,0.0,0.0,0.0,0.0,0.0,0.0,0.0,0.0,0.0,0.0,0.0,0.0,0.0,0.0,0.0,0.0,0.0,0.0,0.0,0.0,0.0,0.0,0.0,0.0,0.0,0.0,0.0,0.0,0.0,-0.7328,-0.7421,-0.7509,-0.7547,-0.7269,-0.7188,0.0,0.0,0.0,0.0,0.0,0.0,0.0,0.0,0.0,0.0,0.0,0.0,0.0,0.0,0.0,0.0,0.0,0.0,0.0,0.0,0.0,0.0,0.0,0.0,0.0,0.0,0.0,0.0,0.0,0.0,0.0,0.0,0.0,0.0,0.0,0.0,0.0,0.0,0.0,0.0,0.0,0.0,0.0,0.0,0.0,0.0,0.0,0.0,0.0,0.0,0.0,0.0,0.0,0.0,0.0,0.0,0.0,0.0,0.0,0.0,0.0,0.0,0.0,0.0,0.0,0.0,0.0,0.0,0.0,0.0,0.0,0.0,0.0,0.0,0.0,0.0,0.0,0.0,0.0,0.0,0.0,0.0,0.0,0.0,0.0,0.0,0.0,0.0,0.0,0.0,0.0,0.0,0.0,0.0,0.0,0.0,0.0,0.0,0.0,0.0,0.0,0.0,0.0,0.0,0.0,0.0,0.0,0.0,-0.7353,-0.7645,-0.774,-0.7889,-0.8092,-0.7787,-0.7577,0.0,0.0,0.0,0.0,0.0,0.0,0.0,0.0,0.0,0.0,0.0,0.0,0.0,0.0,0.0,0.0,0.0,0.0,0.0,0.0,0.0,0.0,0.0,0.0,0.0,0.0,0.0,0.0,0.0,0.0,0.0,0.0,0.0,0.0,0.0,0.0,0.0,0.0,0.0,0.0,0.0,0.0,0.0,0.0,0.0,0.0,0.0,0.0,0.0,0.0,0.0,0.0,0.0,0.0,0.0,0.0,0.0,0.0,0.0,0.0,0.0,0.0,0.0,0.0,0.0,0.0,0.0,0.0,0.0,0.0,0.0,0.0,0.0,0.0,0.0,0.0,0.0,0.0,0.0,0.0,0.0,0.0,0.0,0.0,0.0,0.0,0.0,0.0,0.0,0.0,0.0,0.0,0.0,0.0,0.0,0.0,0.0,0.0,0.0,0.0,0.0,0.0,0.0,0.0,0.0,0.0,0.0,0.0,-0.7736,-0.8006,-0.8047,-0.8208,-0.8445,-0.8335,-0.8002,0.0,0.0,0.0,0.0,0.0,0.0,0.0,0.0,0.0,0.0,0.0,0.0,0.0,0.0,0.0,0.0,0.0,0.0,0.0,0.0,0.0,0.0,0.0,0.0,0.0,0.0,0.0,0.0,0.0,0.0,0.0,0.0,0.0,0.0,0.0,0.0,0.0,0.0,0.0,0.0,0.0,0.0,0.0,0.0,0.0,0.0,0.0,0.0,0.0,0.0,0.0,0.0,0.0,0.0,0.0,0.0,0.0,0.0,0.0,0.0,0.0,0.0,0.0,0.0,0.0,0.0,0.0,0.0,0.0,0.0,0.0,0.0,0.0,0.0,0.0,0.0,0.0,0.0,0.0,0.0,0.0,0.0,0.0,0.0,0.0,0.0,0.0,0.0,0.0,0.0,0.0,0.0,0.0,0.0,0.0,0.0,0.0,0.0,0.0,0.0,0.0,0.0,0.0,0.0,0.0,0.0,0.0,0.0,-0.7831,-0.7988,-0.8243,-0.8389,-0.8342,-0.8052,-0.7902,0.0,0.0,0.0,0.0,0.0,0.0,0.0,0.0,0.0,0.0,0.0,0.0,0.0,0.0,0.0,0.0,0.0,0.0,0.0,0.0,0.0,0.0,0.0,0.0,0.0,0.0,0.0,0.0,0.0,0.0,0.0,0.0,0.0,0.0,0.0,0.0,0.0,0.0,0.0,0.0,0.0,0.0,0.0,0.0,0.0,0.0,0.0,0.0,0.0,0.0,0.0,0.0,0.0,0.0,0.0,0.0,0.0,0.0,0.0,0.0,0.0,0.0,0.0,0.0,0.0,0.0,0.0,0.0,0.0,0.0,0.0,0.0,0.0,0.0,0.0,0.0,0.0,0.0,0.0,0.0,0.0,0.0,0.0,0.0,0.0,0.0,0.0,0.0,0.0,0.0,0.0,0.0,0.0,0.0,0.0,0.0,0.0,0.0,0.0,0.0,0.0,0.0,0.0,0.0,0.0,0.0,0.0,0.0,-0.8,-0.8241,-0.8336,-0.8403,-0.8389,-0.8054,-0.7898,0.0,0.0,0.0,0.0,0.0,0.0,0.0,0.0,0.0,0.0,0.0,0.0,0.0,0.0,0.0,0.0,0.0,0.0,0.0,0.0,0.0,0.0,0.0,0.0,0.0,0.0,0.0,0.0,0.0,0.0,0.0,0.0,0.0,0.0,0.0,0.0,0.0,0.0,0.0,0.0,0.0,0.0,0.0,0.0,0.0,0.0,0.0,0.0,0.0,0.0,0.0,0.0,0.0,0.0,0.0,0.0,0.0,0.0,0.0,0.0,0.0,0.0,0.0,0.0,0.0,0.0,0.0,0.0,0.0,0.0,0.0,0.0,0.0,0.0,0.0,0.0,0.0,0.0,0.0,0.0,0.0,0.0,0.0,0.0,0.0,0.0,0.0,0.0,0.0,0.0,0.0,0.0,0.0,0.0,0.0,0.0,0.0,0.0,0.0,0.0,0.0,0.0,0.0,0.0,0.0,0.0,0.0,-0.7959,-0.8169,-0.8499,-0.8423,-0.841,-0.8479,-0.8196,-0.7979,-0.7831,0.0,0.0,0.0,0.0,0.0,0.0,0.0,0.0,0.0,0.0,0.0,0.0,0.0,0.0,0.0,0.0,0.0,0.0,0.0,0.0,0.0,0.0,0.0,0.0,0.0,0.0,0.0,0.0,0.0,0.0,0.0,0.0,0.0,0.0,0.0,0.0,0.0,0.0,-0.0524,-0.012,0.0,0.0,0.0,0.0,0.0,0.0,0.0,0.0,0.0,0.0,0.0,0.0,0.0,0.0,0.0,0.0,0.0,0.0,0.0,0.0,0.0,0.0,0.0,0.0,0.0,0.0,0.0,0.0,0.0,0.0,0.0,0.0,0.0,0.0,0.0,0.0,0.0,0.0,0.0,0.0,0.0,0.0,0.0,0.0,0.0,0.0,0.0,0.0,0.0,0.0,0.0,0.0,0.0,0.0,0.0,0.0,0.0,0.0,0.0,0.0,0.0,0.0,0.0,0.0,0.0,-0.8206,-0.8067,-0.8223,-0.8655,-0.8648,-0.8587,-0.8486,-0.8342,-0.816,-0.7986,0.0,0.0,0.0,0.0,0.0,0.0,0.0,0.0,0.0,0.0,0.0,0.0,0.0,0.0,0.0,0.0,0.0,0.0,0.0,0.0,0.0,0.0,0.0,0.0,0.0,0.0,0.0,0.0,0.0,0.0,0.0,0.0,0.0,0.0,0.0,0.0,0.0,0.0,0.0,-0.0632,0.0,0.0,0.0,0.0,0.0,0.0,0.0,0.0,0.0,0.0,0.0,0.0,0.0,0.0,0.0,0.0,0.0,0.0,0.0,0.0,0.0,0.0,0.0,0.0,0.0,0.0,0.0,0.0,0.0,0.0,0.0,0.0,0.0,0.0,0.0,0.0,0.0,0.0,0.0,0.0,0.0,0.0,0.0,0.0,0.0,0.0,0.0,0.0,0.0,0.0,0.0,0.0,0.0,0.0,0.0,0.0,0.0,0.0,0.0,0.0,0.0,0.0,0.0,0.0,0.0,-0.6111,-0.683,-0.7327,-0.7564,-0.8242,-0.852,-0.8403,-0.8153,-0.8031,0.0,0.0,0.0,0.0,0.0,0.0,0.0,0.0,0.0,0.0,0.0,0.0,0.0,0.0,0.0,0.0,0.0,0.0,0.0,0.0,0.0,0.0,0.0,0.0,0.0,0.0,0.0,0.0,0.0,0.0,0.0,0.0,0.0,0.0,0.0,0.0,0.0,0.0,0.0,0.0,-0.036,0.0,0.0,0.0,0.0,0.0,0.0,0.0,0.0,0.0,0.0,0.0,0.0,0.0,0.0,0.0,0.0,0.0,0.0,0.0,0.0,0.0,0.0,0.0,0.0,0.0,0.0,0.0,0.0,0.0,0.0,0.0,0.0,0.0,0.0,0.0,0.0,0.0,0.0,0.0,0.0,0.0,0.0,0.0,0.0,0.0,0.0,0.0,0.0,0.0,0.0,0.0,0.0,0.0,0.0,0.0,0.0,0.0,0.0,0.0,0.0,0.0,0.0,0.0,0.0,0.0,-0.4083,-0.5304,-0.6042,-0.6131,-0.7103,-0.7583,-0.7454,-0.7186,-0.7095,0.0,0.0,0.0,0.0,0.0,0.0,0.0,0.0,0.0,0.0,0.0,0.0,0.0,0.0,0.0,0.0,0.0,0.0,0.0,0.0,0.0,0.0,0.0,0.0,0.0,0.0,0.0,0.0,0.0,0.0,0.0,0.0,0.0,0.0,0.0,0.0,0.0,0.0,0.0,0.0,0.0,0.0,0.0,0.0,0.0,0.0,0.0,0.0,0.0,0.0,0.0,0.0,0.0,0.0,0.0,0.0,0.0,0.0,0.0,0.0,0.0,0.0,0.0,0.0,0.0,0.0,0.0,0.0,0.0,0.0,0.0,0.0,0.0,0.0,0.0,0.0,0.0,0.0,0.0,0.0,0.0,0.0,0.0,0.0,0.0,0.0,0.0,0.0,0.0,0.0,0.0,0.0,0.0,0.0,0.0,0.0,0.0,0.0,0.0,0.0,0.0,0.0,0.0,0.0,0.0,0.0,-0.3997,-0.4172,-0.4424,-0.4702,-0.4713,-0.4688,-0.4676,-0.4526,-0.4434,0.0,0.0,0.0,0.0,0.0,0.0,0.0,0.0,0.0,0.0,0.0,0.0,0.0,0.0,0.0,0.0,0.0,0.0,0.0,0.0,0.0,0.0,0.0,0.0,0.0,0.0,0.0,0.0,0.0,0.0,0.0,0.0,0.0,0.0,0.0,0.0,0.0,0.0,0.0,0.0,0.0,0.0,0.0,0.0,0.0,0.0,0.0,0.0,0.0,0.0,0.0,0.0,0.0,0.0,0.0,0.0,0.0,0.0,0.0,0.0,0.0,0.0,0.0,0.0,0.0,0.0,0.0,0.0,0.0,0.0,0.0,0.0,0.0,0.0,0.0,0.0,0.0,0.0,0.0,0.0,0.0,0.0,0.0,0.0,0.0,0.0,0.0,0.0,0.0,0.0,0.0,0.0,0.0,0.0,0.0,0.0,0.0,0.0,0.0,0.0,0.0,0.0,0.0,0.0,0.0,-0.2294,-0.1784,-0.2549,-0.3068,-0.3218,-0.3844,-0.4216,-0.4216,-0.3987,-0.3922,0.0,0.0,0.0,0.0,0.0,0.0,0.0,0.0,0.0,0.0,0.0,0.0,0.0,0.0,0.0,0.0,0.0,0.0,0.0,0.0,0.0,0.0,0.0,0.0,0.0,0.0,0.0,0.0,0.0,0.0,0.0,0.0,0.0,0.0,0.0,0.0,0.0,0.0,0.0,0.0,0.0,0.0,0.0,0.0,0.0,0.0,0.0,0.0,0.0,0.0,0.0,0.0,0.0,0.0,0.0,0.0,0.0,0.0,0.0,0.0,0.0,0.0,0.0,0.0,0.0,0.0,0.0,0.0,0.0,0.0,0.0,0.0,0.0,0.0,0.0,0.0,0.0,0.0,0.0,0.0,0.0,0.0,0.0,0.0,0.0,0.0,0.0,0.0,0.0,0.0,0.0,0.0,0.0,0.0,0.0,0.0,0.0,0.0,0.0,0.0,0.0,0.0,0.0,0.0,0.0,0.0,-0.0049,-0.109,-0.1636,-0.169,-0.2627,-0.3152,-0.3134,-0.2958,0.0,0.0,0.0,0.0,0.0,0.0,0.0,0.0,0.0,0.0,0.0,0.0,0.0,0.0,0.0,0.0,0.0,0.0,0.0,0.0,0.0,0.0,0.0,0.0,0.0,0.0,0.0,0.0,0.0,0.0,0.0,0.0,0.0,0.0,0.0,0.0,0.0,0.0,0.0,0.0,0.0,0.0,0.0142,0.0492,0.0229,0.0,0.0,0.0,0.0,0.0,0.0,0.0112,0.0,0.0,0.0,0.0,0.0,0.0,0.0,0.0,0.0,0.0,0.0,0.0,0.0,0.0,0.0,0.0,0.0,0.0,0.0,0.0,0.0,0.0,0.0,0.0,0.0,0.0,0.0,0.0,0.0,0.0,0.0,0.0,0.0,0.0,0.0,0.0,0.0,0.0,0.0,0.0,0.0,0.0,0.0,0.0,0.0,0.0,0.0,0.0,0.0,0.0,0.0,0.0,0.0,0.0,0.0,0.0,0.0,0.0,0.0,-0.0242,-0.0291,-0.0286,0.0,0.0,0.0,0.0,0.0,0.0,0.0,0.0,0.0,0.0,0.0,0.0,0.0,0.0,0.0,0.0,0.0,0.0,0.0,0.0,0.0,0.0,0.0,0.0,0.0,0.0,0.0,0.0,0.0,0.0,0.0,0.0,0.0,0.0,0.0,0.0,0.0,0.0,0.0,0.0,0.0,0.0,0.0,0.0516,0.1855,0.0883,0.0,0.0,0.0,0.0,0.0,0.0,0.043,0.1654,0.0,0.0,0.0,0.0,0.0,0.0,0.0,0.0,0.0,0.0,0.0,0.0,0.0,0.0,0.0,0.0,0.0,0.0,0.0,0.0,0.0,0.0,0.0,0.0,0.0,0.0,0.0,0.0,0.0,0.0,0.0,0.0,0.0,0.0,0.0,0.0,0.0,0.0,0.0,0.0,0.0,0.0,0.0,0.0,0.0,0.0,0.0,0.0,0.0,0.0,0.0,0.0,0.0,0.0,0.0,0.0,0.0,0.0,0.0,0.0,0.0,0.0,0.0,0.0,0.0,0.0,0.0,0.0,0.0,0.0,0.0,0.0,0.0,0.0,0.0,0.0,0.0,0.0,0.0,0.0,0.0,0.0,0.0,0.0,0.0,0.0,0.0,0.0,0.0,0.0,0.0,0.0,0.0,0.0,0.0,0.0,0.0,0.0,0.0,0.0,0.0,0.0,0.0,0.0,0.2811,0.254,0.2031,0.0,0.0,0.0,0.0,0.0,0.0708,0.14,0.1917,0.2695,0.0,0.0,0.0,0.0,0.0,0.0,0.0,0.0,0.0,0.0,0.0,0.0,0.0,0.0,0.0,0.0,0.0,0.0,0.0,0.0,0.0,0.0,0.0,0.0,0.0,0.0,0.0,0.0,0.0,0.0,0.0,0.0,0.0,0.0,0.0,0.0,0.0,0.0,0.0,0.0,0.0,0.0,0.0,0.0,0.0,0.0,0.0,0.0,0.0,0.0,0.0,0.0,0.0,0.0,0.0,0.0,0.0,0.0,0.0,0.0,0.0,0.0,0.0,0.0,0.0,0.0,0.0,0.0,0.0,0.0,0.0,0.0,0.0,0.0,0.0,0.0,0.0,0.0,0.0,0.0,0.0,0.0,0.0,0.0,0.0,0.0,0.0,0.0,0.0,0.0,0.0,0.0,0.0,0.0,0.0,0.0,0.0,0.0,0.0,0.0,0.0,0.0,0.0,0.4651,0.4164,0.3778,0.3031,0.1727,0.154,0.1512,0.1473,0.2292,0.2873,0.269,0.0,0.0,0.0,0.0,0.0,0.0,0.0,0.0,0.0,0.0,0.0,0.0,0.0,0.0,0.0,0.0,0.0,0.0,0.0,0.0,0.0,0.0,0.0,0.0,0.0,0.0,0.0,0.0,0.0,0.0,0.0,0.0,0.0,0.0,0.0,0.0,0.0,0.0,0.0,0.0,0.0,0.0,0.0,0.0,0.0,0.0,0.0,0.0,0.0,0.0,0.0,0.0,0.0,0.0,0.0,0.0,0.0,0.0,0.0,0.0,0.0,0.0,0.0,0.0,0.0,0.0,0.0,0.0,0.0,0.0,0.0,0.0,0.0,0.0,0.0,0.0,0.0,0.0,0.0,0.0,0.0,0.0,0.0,0.0,0.0,0.0,0.0,0.0,0.0,0.0,0.0,0.0,0.0,0.0,0.0,0.0,0.0,0.0,0.0,0.0,0.0,0.0,0.0,0.5843,0.5671,0.7043,0.6146,0.5145,0.4883,0.4862,0.4859,0.4633,0.4855,0.4858,0.0,0.0,0.0,0.0,0.0,0.0,0.0,0.0,0.0,0.0,0.0,0.0,0.0,0.0,0.0,0.0,0.0,0.0,0.0,0.0,0.0,0.0,0.0,0.0,0.0,0.0,0.0,0.0,0.0,0.0,0.0,0.0,0.0,0.0,0.0,0.0,0.0,0.0,0.0,0.0,-0.0656,-0.0202,0.0,0.0,0.0,0.0,0.0,0.0,0.0,0.0,0.0,0.0,0.0,0.0,0.0,0.0,0.0,0.0,0.0,0.0,0.0,0.0,0.0,0.0,0.0,0.0,0.0,0.0,0.0,0.0,0.0,0.0,0.0,0.0,0.0,0.0,0.0,0.0,0.0,0.0,0.0,0.0,0.0,0.0,0.0,0.0,0.0,0.0,0.0,0.0,0.0,0.0,0.0,0.0,0.0,0.0,0.0,0.0,0.0,0.0,0.0,0.0,0.6624,0.846,0.8432,0.8108,0.7719,0.6259,0.4807,0.0,0.0,0.0,0.0,0.0,0.0,0.0,0.0,0.0,0.0,0.0,0.0,0.0,0.0,1.0555,0.9594,0.9288,0.9171,0.9225,0.0,0.0,0.0,0.0,0.0,0.0,0.0,0.0,0.0,0.0,0.0,0.0,0.0,0.0,0.0,0.0,0.0,0.0,0.0,0.0,0.0,0.0,0.0,0.0,0.0,0.0,0.0,0.0,0.0,0.0,0.0,0.0,0.0,0.0,0.0,0.0,0.0,0.0,0.0,0.0,0.0,0.0,0.0,0.0,0.0,0.0,0.0,0.0,0.0,0.0,0.0,0.0,0.0,0.0,0.0,0.0,0.0,0.0,0.0,0.0,0.0,0.0,0.0,0.0,0.0,0.0,0.0,0.0,0.0,0.0,0.0,0.0,0.0,0.0,0.0,0.0,0.0,0.0,0.0,0.0,0.0,0.0,0.0,0.0,0.0,0.0,0.0,0.5365,0.616,0.729,0.8654,0.8464,0.7854,0.6972,0.0,0.0,0.0,0.0,0.0,0.0,0.0,0.5273,0.694,0.8214,0.9249,0.9868,1.0527,1.0955,1.0914,0.0,0.0,1.0337,1.0032,0.9937,1.0022,0.9958,0.9944,1.0021,1.0076,1.0107,0.0,0.0,0.0,0.0,0.0,0.0,0.0,0.0,0.0,0.0,0.0,0.0,0.0,0.0,0.0,0.0,0.0,0.0,0.0,0.0,0.0,0.0,0.0,0.0,0.0,0.0,0.0,0.0,0.0,0.0,0.0,0.0,0.0,0.0,0.0,0.0,0.0,0.0,0.0,0.0,0.0,0.0,0.0,0.0,0.0,0.0,0.0,0.0,0.0,0.0,0.0,0.0,0.0,0.0,0.0,0.0,0.0,0.0,0.0,0.0,0.0,0.0,0.0,0.0,0.0,0.0,0.0,0.0,0.0,0.0,0.0,0.0,0.0,0.0,0.0,0.0,0.0,0.0,0.0,0.0,0.0,0.0,0.6521,0.6772,0.6932,0.7272,0.0,0.0,0.0,0.0,0.5232,0.5007,0.4937,0.4836,0.4769,0.4888,0.5504,0.7039,0.0,0.0,1.0484,1.1138,1.1341,1.1036,1.1367,1.1647,1.1633,1.1191,1.0955,1.1138,1.0846,1.0656,1.0853,1.0833,1.0745,0.0,0.0,0.0,0.0,0.0,0.0,0.0,0.0,0.0,0.0,0.0,0.0,0.0,0.0,0.0,0.0,0.0,0.0,0.0,0.0,0.0,0.0,0.0,0.0,0.0,0.0,0.0,0.0,0.0,0.0,0.0,0.0,0.0,0.0,0.0,0.0,0.0,0.0,0.0,0.0,0.0,0.0,0.0,0.0,0.0,0.0,0.0,0.0,0.0,0.0,0.0,0.0,0.0,0.0,0.0,0.0,0.0,0.0,0.0,0.0,0.0,0.0,0.0,0.0,0.0,0.0,0.0,0.0,0.0,0.0,0.0,0.0,0.0,0.0,0.0,0.0,0.0,0.0,0.0,0.0,0.0,0.0,0.5366,0.5377,0.5401,0.0,0.0,0.5099,0.5085,0.4083,0.3356,0.3386,0.0,0.0,0.0,0.3235,0.3825,0.5508,0.7327,0.9331,1.1612,1.2013,1.2074,1.2138,1.2199,1.225,1.2216,1.1803,1.147,1.1477,1.1457,1.147,1.1516,1.1619,1.164,0.0,0.0,0.0,0.0,0.0,0.0,0.0,0.0,0.0,0.0,0.0,0.0,0.0,0.0,0.0,0.0,0.0,0.0,0.0,0.0,0.0,0.0,0.0,0.0,0.0,0.0,0.0,0.0,0.0,0.0,0.0,0.0,0.0,0.0,0.0,0.0,0.0,0.0,0.0,0.0,0.0,0.0,0.0,0.0,0.0,0.0,0.0,0.0,0.0,0.0,0.0,0.0,0.0,0.0,0.0,0.0,0.0,0.0,0.0,0.0,0.0,0.0,0.0,0.0,0.0,0.0,0.0,0.0,0.0,0.022,0.0755,0.0295,0.0,0.0,0.0,0.0,0.0,0.0,0.0,0.4048,0.3831,0.3663,0.3791,0.3253,0.3146,0.3927,0.3481,0.3091,0.309,0.0,0.1519,0.1601,0.0715,0.0358,0.1331,0.1519,0.2436,0.5168,0.7459,0.9731,1.2042,1.2427,1.244,1.2583,1.2562,1.2501,1.2501,1.2203,1.1972,1.1972,1.1996,1.2057,1.2057,1.2169,1.2234,0.0,0.0,0.0,0.0,0.0,0.0,0.0,0.0,0.0,0.0,0.0,0.0,0.0,0.0,0.0,0.0,0.0,0.0,0.0,0.0,0.0,0.0,0.0,0.0,0.0,0.0,0.0,0.0,0.0,0.0,0.0,0.0,0.0,0.0,0.0,0.0,0.0,0.0,0.0,0.0,0.0,0.0,0.0,0.0,0.0,0.0,0.0,0.0,0.0,0.0,0.0,0.0,0.0,0.0,0.0,0.0,0.0,0.0,0.0,0.0,0.0,0.0,0.0,0.0,0.0,0.0,0.0,0.0,0.0,0.0,0.1737,0.0744,0.0,0.0,0.0,0.0495,0.1702,0.1951,0.2494,0.373,0.0,0.0,0.0,0.0,0.0633,0.2281,0.106,0.0,0.0,0.0,0.0,0.0,0.0,0.0,0.0,0.0,0.1536,0.5474,0.7894,0.9728,1.194,1.2474,1.2481,1.2535,1.2515,1.2501,1.2501,1.2467,1.2488,1.2467,1.2481,1.2481,1.2427,1.2427,1.24,0.0,0.0,0.0,0.0,0.0,0.0,0.0,0.0,0.0,0.0,0.0,0.0,0.0,0.0,0.0,0.0,0.0,0.0,0.0,0.0,0.0,0.0,0.0,0.0,0.0,0.0,0.0,0.0,0.0,0.0,0.0,0.0,0.0,0.0,0.0,0.0,0.0,0.0,0.0,0.0,0.0,0.0,0.0,0.0,0.0,0.0,0.0,0.0,0.0,0.0,0.0,0.0,0.0,0.0,0.0,0.0,0.0,0.0,0.0,0.0,0.0,0.0,0.0,0.0,0.0,0.0,0.0,0.0,0.0,0.0126,0.0454,0.0182,0.0,0.0,0.0,0.0145,0.0434,0.0513,0.0653,0.0967,0.0709,0.0531,0.0509,0.0206,0.0139,0.057,0.0,0.0,0.0,0.0,0.0,0.0,0.0,0.0,0.0,0.0,0.1371,0.5414,0.6499,0.8073,1.1856,1.2406,1.2406,1.261,1.2576,1.2515,1.2494,1.242,1.2393,1.2474,1.2501,1.2427,1.2254,1.2302,1.2298,0.0,0.0,0.0,0.0,0.0,0.0,0.0,0.0,0.0,0.0,0.0,0.0,0.0,0.0,0.0,0.0,0.0,0.0,0.0,0.0,0.0,0.0,0.0,0.0,0.0,0.0,0.0,0.0,0.0,0.0,0.0,0.0,0.0,0.0,0.0,0.0,0.0,0.0,0.0,0.0,0.0,0.0,0.0,0.0,0.0,0.0,0.0,0.0,0.0,0.0,0.0,0.0,0.0,0.0,0.0,0.0,0.0,0.0,0.0,0.0,0.0,0.0,0.0,0.0,0.0,0.0,0.0,0.0,0.0,0.0,0.0,0.0,0.0,0.0,0.0,0.0,0.0,0.0,0.0,0.0,0.0,0.0,0.0,0.0,0.0,0.0,0.0,0.0,0.0,0.0,0.0,0.0,0.0,0.0,0.0,0.0,0.1061,0.4004,0.5421,0.7131,1.0439,1.17,1.2244,1.2386,1.2366,1.2305,1.2305,1.2244,1.2203,1.2196,1.2257,1.2291,1.2264,1.2309,1.2257,0.0,0.0,0.0,0.0,0.0,0.0,0.0,0.0,0.0,0.0,0.0,0.0,0.0,0.0,0.0,0.0,0.0,0.0,0.0,0.0,0.0,0.0,0.0,0.0,0.0,0.0,0.0,0.0,0.0,0.0,0.0,0.0,0.0,0.0,0.0,0.0,0.0,0.0,0.0,0.0,0.0,0.0,0.0,0.0,0.0,0.0,0.0,0.0,0.0,0.0,0.0,0.0,0.0,0.0,0.0,0.0,0.0,0.0,0.0,0.0,0.0,0.0,0.0,0.0,0.0,0.0,0.0,0.0,0.0,0.0,0.0,0.0,0.0,0.0,0.0,0.0,0.0,0.0,0.0,0.0,0.0,0.0,0.0,0.0,0.0,0.0,0.0,0.0,0.0,0.0,0.0,0.0,0.0,0.0,0.0,0.0,0.0709,0.2777,0.4734,0.6687,0.887,1.0822,1.2077,1.2104,1.2125,1.2111,1.2098,1.2091,1.1999,1.1925,1.1986,1.2108,1.2264,1.2257,1.223,0.0,0.0,0.0,0.0,0.0,0.0,0.0,0.0,0.0,0.0,0.0,0.0,0.0,0.0,0.0,0.0,0.0,0.0,0.0,0.0,0.0,0.0,0.0,0.0,0.0,0.0,0.0,0.0,0.0,0.0,0.0,0.0,0.0,0.0,0.0,0.0,0.0,0.0,0.0,0.0,0.0,0.0,0.0,0.0,0.0,0.0,0.0,0.0,0.0,0.0,0.0,0.0,0.0,0.0,0.0,0.0,0.0,0.0,0.0,0.0,0.0,0.0,0.0,0.0,0.0,0.0,0.0,0.0,0.0,0.0,0.0,0.0,0.0,0.0,0.0,0.0,0.0,0.0,0.0,0.0,0.0,0.0,0.0,0.0,0.0,0.0,0.0,0.0,0.0,0.0,0.0,0.0,0.0,0.0,0.0,0.0,0.0629,0.2612,0.4543,0.6529,0.8496,1.0534,1.1888,1.205,1.2098,1.2091,1.2084,1.1965,1.1898,1.2036,1.1938,1.182,1.1803,1.1864,1.1884,0.0,0.0,0.0,0.0,0.0,0.0,0.0,0.0,0.0,0.0,0.0,0.0,0.0,0.0,0.0,0.0,0.0,0.0,0.0,0.0,0.0,0.0,0.0,0.0,0.0,0.0,0.0,0.0,0.0,0.0,0.0,0.0,0.0,0.0,0.0,0.0,0.0,0.0,0.0,0.0,0.0,0.0,0.0,0.0,0.0,0.0,0.0,0.0,0.0,0.0,0.0,0.0,0.0,0.0,0.0,0.0,0.0,0.0,0.0,0.0,0.0,0.0,0.0,0.0,0.0,0.0,0.0,0.0,0.0,0.0,0.0,0.0,0.0,0.0,0.0,0.0,0.0,0.0,0.0,0.0,0.0,0.0,0.0,0.0,0.0,0.0,0.0,0.0,0.0,0.0,0.0,0.0,0.0,0.0,0.0,0.0,0.0,0.1523,0.3894,0.6005,0.7181,0.9784,1.1698,1.1748,1.1789,1.1823,1.1785,1.1721,1.1728,1.1735,1.1728,1.1638,1.1552,1.1674,1.1773,0.0,0.0,0.0,0.0,0.0,0.0,0.0,0.0,0.0,0.0,0.0,0.0,0.0,0.0,0.0,0.0,0.0,0.0,0.0,0.0,0.0,0.0,0.0,0.0,0.0,0.0,0.0,0.0,0.0,0.0,0.0,0.0,0.0,0.0,0.0,0.0,-0.015,-0.0415,-0.0146,0.0,0.0,0.0,0.0,0.0,0.0,0.0,0.0,0.0,0.0,0.0,0.0,0.0,0.0,0.0,0.0,0.0,0.0,0.0,0.0,0.0,0.0,0.0,0.0,0.0,0.0,0.0,0.0,0.0,0.0,0.0,0.0,0.0,0.0,0.0,0.0,0.0,0.0,0.0,0.0,0.0,0.0,0.0,0.0,0.0,0.0,0.0,0.0,0.0,0.0,0.0,0.0,0.0,0.0,0.0,0.0,0.0,0.0,0.0,0.3297,0.5659,0.631,0.8939,1.12,1.1431,1.1463,1.1477,1.1431,1.145,1.1497,1.1409,1.1484,1.1509,1.145,1.1579,1.1705,0.0,0.0,0.0,0.0,0.0,0.0,0.0,0.0,0.0,0.0,0.0,0.0,0.0,0.0,0.0,0.0,0.0,0.0,0.0,0.0,0.0,0.0,0.0,0.0,0.0,0.0,0.0,0.0,0.0,0.0,0.0,0.0,0.0,0.0,0.0,0.0,-0.0706,-0.2049,-0.0714,0.0,0.0,0.0,0.0,0.0,0.0,0.0,0.0,0.0,0.0,0.0,0.0,0.0,0.0,0.0,0.0,0.0,0.0,0.0,0.0,0.0,0.0,0.0,0.0,0.0,0.0,0.0,0.0,0.0,0.0,0.0,0.0,0.0,0.0,0.0,0.0,0.0,0.0,0.0,0.0,0.0,0.0,0.0,0.0,0.0,0.0,0.0,0.0,0.0,0.0,0.0,0.0,0.0,0.0,0.0,0.0,0.0,0.0,0.0,0.0,0.5701,0.588,0.8863,1.1107,1.1234,1.1268,1.1268,1.1234,1.124,1.1308,1.137,1.1396,1.1409,1.1362,1.1423,1.1497,0.0,0.0,0.0,0.0,-0.0067,-0.1039,-0.1473,-0.1563,-0.2511,-0.1816,0.0,0.0,0.0,0.0,0.0,0.0,0.0,0.0,-0.0506,-0.1419,-0.1378,-0.141,-0.1543,-0.2296,-0.2196,-0.1465,-0.2256,-0.2647,-0.2677,-0.2677,-0.2677,-0.2647,-0.2647,-0.2647,-0.2677,-0.2647,-0.3046,-0.3748,-0.2199,-0.1785,-0.2616,-0.2645,-0.266,-0.2634,-0.26,-0.2556,-0.2532,-0.1671,-0.1183,-0.1183,-0.0421,0.0,0.0,0.0,0.0,0.0,0.0,0.0,0.0,0.0,0.0,0.0,0.0,0.0,0.0,0.0,0.0,0.0,0.0,0.0,0.0,0.0,0.0,0.0,0.0,0.0,0.0,0.0,0.0,0.0,0.0,0.0,0.0,0.0,0.0,0.0,0.0,0.0,0.0,0.0,0.0,0.0,0.0,0.0,0.0,0.0,0.0,0.1249,0.3755,0.5823,0.687,0.9481,1.0849,1.107,1.1097,1.1159,1.107,1.1111,1.1158,1.1131,1.1261,1.1274,1.1185,1.1206,1.1322,-0.0336,-0.0034,-0.0908,-0.121,-0.1344,-0.2685,-0.3287,-0.3454,-0.4794,-0.3813,-0.1439,-0.1225,-0.1186,-0.1169,-0.1185,0.0,-0.1156,-0.1191,-0.1996,-0.3211,-0.3209,-0.3213,-0.3397,-0.4514,-0.4334,-0.3329,-0.4379,-0.4933,-0.492,-0.492,-0.492,-0.492,-0.492,-0.492,-0.492,-0.492,-0.5069,-0.5338,-0.4219,-0.4039,-0.4864,-0.4906,-0.4897,-0.4893,-0.4403,-0.4207,-0.4125,-0.2581,-0.1725,-0.165,-0.0592,0.0,0.0,0.0,0.0,0.0,0.0,0.0,0.0,0.0,0.0,0.0,0.0,0.0,0.0,0.0,0.0,0.0,0.0,0.0,0.0,0.0,0.0,0.0,0.0,0.0,0.0,0.0,0.0,0.0,0.0,0.0,0.0,0.0,0.0,0.0,0.0,0.0,0.0,0.0,0.0,0.0,0.0,0.0,0.0,0.0,0.0,0.1982,0.4018,0.5718,0.7417,0.936,1.0886,1.0894,1.0975,1.0995,1.0894,1.0968,1.1016,1.0955,1.1056,1.1084,1.0968,1.0968,1.1056,-0.1478,-0.0639,-0.3421,-0.4927,-0.4794,-0.5061,-0.5162,-0.5198,-0.5399,-0.5281,-0.4903,-0.4913,-0.4743,-0.4668,-0.4725,-0.4632,-0.452,-0.4788,-0.4948,-0.5109,-0.5131,-0.5131,-0.5144,-0.5344,-0.5213,-0.4906,-0.5143,-0.5322,-0.5203,-0.5107,-0.4981,-0.492,-0.492,-0.5042,-0.4981,-0.5012,-0.5682,-0.7149,-0.7048,-0.6263,-0.4983,-0.4906,-0.4922,-0.4885,-0.3508,-0.2717,-0.2967,-0.1106,-0.0225,-0.0199,-0.0111,0.0,0.0,0.0,0.0,0.0,0.0,0.0,0.0,0.0,0.0,0.0,0.0,0.0,0.0,0.0,0.0,0.0,0.0,0.0,0.0,0.0,0.0,0.0,0.0,0.0,0.0,0.0,0.0,0.0,0.0,0.0,0.0,0.0,0.0,0.0,0.0,0.0,0.0,0.0,0.0,0.0,0.0,0.0,0.0,0.0,0.0,0.0776,0.3232,0.5433,0.6858,0.884,1.0725,1.0772,1.0772,1.0785,1.0772,1.0765,1.0786,1.0867,1.0907,1.0928,1.0867,1.0833,1.0812,-0.1947,-0.3186,-0.3622,-0.4459,-0.5429,-0.6498,-0.6931,-0.7031,-0.8069,-0.8546,-0.8536,-0.853,-0.7355,-0.5326,-0.537,-0.5351,-0.5259,-0.5388,-0.596,-0.6869,-0.6853,-0.6857,-0.6995,-0.7921,-0.7737,-0.6778,-0.7633,-0.8079,-0.7919,-0.7903,-0.7903,-0.7903,-0.7933,-0.7865,-0.7805,-0.7865,-0.8239,-0.8806,-0.8806,-0.8472,-0.7876,-0.7796,-0.7799,-0.7608,-0.6119,-0.523,-0.4953,-0.2736,-0.1301,-0.125,-0.0489,0.0,0.0,0.0,0.0,0.0,0.0,0.0,0.0,0.0,0.0,0.0,0.0,0.0,0.0,0.0,0.0,0.0,0.0,0.0,0.0,0.0,0.0,0.0,0.0,0.0,0.0,0.0,0.0,0.0,0.0,0.0,0.0,0.0,0.0,0.0,0.0,0.0,0.0,0.0,0.0,0.0,0.0,0.0,0.0,0.0,0.0,0.2719,0.4325,0.5663,0.8169,0.9377,1.0724,1.0717,1.0717,1.0717,1.0731,1.0717,1.0711,1.0786,1.0786,1.0779,1.0779,1.0732,1.0724,-0.2652,-0.4459,-0.4225,-0.5192,-0.6936,-0.8202,-0.8734,-0.8867,-1.0147,-1.0717,-1.0717,-1.0717,-0.9329,-0.7111,-0.6838,-0.6818,-0.6801,-0.6823,-0.7498,-0.8662,-0.8645,-0.8651,-0.8844,-0.9818,-0.9723,-0.8782,-0.9653,-1.0193,-1.0096,-1.0082,-1.0082,-1.0082,-1.0082,-1.0001,-0.9886,-1.0008,-0.9988,-0.9781,-0.9825,-0.9832,-0.9768,-0.9792,-0.9572,-0.9043,-0.7442,-0.6309,-0.5794,-0.3128,-0.16,-0.1577,-0.0562,0.0,0.0,0.0,0.0,0.0,0.0,0.0,0.0,0.0,0.0,0.0,0.0,0.0,0.0,0.0,0.0,0.0,0.0,0.0,0.0,0.0,0.0,0.0,0.0,0.0,0.0,0.0,0.0,0.0,0.0,0.0,0.0,0.0,0.0,0.0,0.0,0.0,0.0,0.0,0.0,0.0,0.0,0.0,0.0,0.0,0.0,0.3524,0.4827,0.6402,0.9443,1.0081,1.0717,1.0717,1.0717,1.0717,1.0717,1.0717,1.0717,1.0717,1.0724,1.0698,1.0738,1.0724,1.0724,-0.4258,-0.3454,-0.6394,-0.8634,-1.0419,-1.0452,-1.0518,-1.0412,-1.0651,-1.0717,-1.0717,-1.0717,-1.0578,-1.0267,-1.0107,-1.0313,-1.0182,-1.0122,-1.022,-1.0412,-1.0472,-1.0545,-1.0585,-1.0671,-1.055,-1.0142,-1.0318,-1.0412,-1.029,-1.0308,-1.027,-1.0301,-1.027,-1.0195,-1.0049,-1.0195,-1.012,-0.9866,-0.9934,-0.994,-0.9788,-0.9768,-0.897,-0.7525,-0.5892,-0.4447,-0.2883,-0.1092,0.0,0.0,0.0,0.0,0.0,0.0,0.0,0.0,0.0,0.0,0.0,0.0,0.0,0.0,0.0,0.0,0.0,0.0,0.0,0.0,0.0,0.0,0.0,0.0,0.0,0.0,0.0,0.0,0.0,0.0,0.0,0.0,0.0,0.0,0.0,0.0,0.0,0.0,0.0,0.0,0.0,0.0,0.0,0.0,0.0,0.0,0.0,0.0,0.0,0.3021,0.5061,0.6197,0.7802,0.9305,1.0147,1.0717,1.0717,1.0717,1.0717,1.0717,1.0717,1.0717,1.0717,1.0717,1.0717,1.0717,1.0717,-0.4657,-0.6293,-0.8701,-1.0114,-1.0684,-1.0717,-1.0717,-1.0717,-1.0717,-1.0717,-1.0717,-1.0717,-1.0717,-1.0717,-1.0717,-1.0657,-1.0617,-1.0664,-1.0717,-1.0717,-1.0717,-1.0717,-1.0717,-1.0717,-1.0636,-1.0527,-1.0588,-1.0576,-1.0555,-1.0466,-1.0412,-1.0451,-1.0419,-1.0344,-1.0249,-1.0344,-1.031,-1.0134,-1.0049,-1.0035,-0.9968,-0.8914,-0.7531,-0.6036,-0.5275,-0.4152,-0.2554,-0.089,0.0,0.0,0.0,0.0,0.0,0.0,0.0,0.0,0.0,0.0,0.0,0.0,0.0,0.0,0.0,0.0,0.0,0.0,0.0,0.0,0.0,0.0,0.0,0.0,0.0,0.0,0.0,0.0,0.0,0.0,0.0,0.0,0.0,0.0,0.0,0.0,0.0,0.0,0.0,0.0,0.0,0.0,0.0,0.0,0.0,0.0,0.0,0.0,0.0,0.0,0.5432,0.7136,0.8773,0.9775,1.0651,1.0717,1.0717,1.0717,1.0717,1.0717,1.0717,1.0717,1.0717,1.0717,1.0717,1.0717,1.0717,-0.616,-0.8839,-1.018,-1.0717,-1.0717,-1.0717,-1.0717,-1.0717,-1.0717,-1.0717,-1.0717,-1.0717,-1.0717,-1.0717,-1.0717,-1.0717,-1.0717,-1.0717,-1.0717,-1.0717,-1.0717,-1.0717,-1.0717,-1.0717,-1.0637,-1.0595,-1.067,-1.0717,-1.0711,-1.0616,-1.0568,-1.0568,-1.0568,-1.0493,-1.0431,-1.0493,-1.048,-1.0304,-1.0215,-1.0197,-1.0072,-0.8454,-0.6683,-0.5244,-0.4499,-0.3353,-0.1758,-0.0589,0.0,0.0,0.0,0.0,0.0,0.0,0.0,0.0,0.0,0.0,0.0,0.0,0.0,0.0,0.0,0.0,0.0,0.0,0.0,0.0,0.0,0.0,0.0,0.0,0.0,0.0,0.0,0.0,0.0,0.0,0.0,0.0,0.0,0.0,0.0,0.0,0.0,0.0,0.0,0.0,0.0,0.0,0.0,0.0,0.0,0.0,0.0,0.0,0.0,0.0,0.5232,0.7203,0.9344,1.028,1.0717,1.0717,1.0717,1.0717,1.0717,1.0717,1.0717,1.0717,1.0717,1.0717,1.0717,1.0717,1.0717,-0.9006,-1.0485,-1.0717,-1.0717,-1.0717,-1.0717,-1.0717,-1.0717,-1.0717,-1.0717,-1.0717,-1.0717,-1.0717,-1.0717,-1.0717,-1.0717,-1.0717,-1.0717,-1.0717,-1.0717,-1.0717,-1.0717,-1.0717,-1.0717,-1.0684,-1.0697,-1.0677,-1.0717,-1.0717,-1.0704,-1.0697,-1.0677,-1.0697,-1.0622,-1.0493,-1.0616,-1.0568,-1.0392,-1.0412,-1.0412,-1.0112,-0.8544,-0.6828,-0.515,-0.3572,-0.1939,0.0,0.0,0.0,0.0,0.0,0.0,0.0,0.0,0.0,0.0,0.0,0.0,0.0,0.0,0.0,0.0,0.0,0.0,0.0,0.0,0.0,0.0,0.0,0.0,0.0,0.0,0.0,0.0,0.0,0.0,0.0,0.0,0.0,0.0,0.0,0.0,0.0,0.0,0.0,0.0,0.0,0.0,0.0,0.0,0.0,0.0,0.0,0.0,0.0,0.0,0.0,0.4292,0.5095,0.6498,0.9244,1.0717,1.0717,1.0717,1.0717,1.0717,1.0717,1.0717,1.0717,1.0717,1.0717,1.0717,1.0717,1.0717,1.0717,-1.018,-1.0684,-1.0717,-1.0717,-1.0717,-1.0717,-1.0717,-1.0717,-1.0717,-1.0717,-1.0717,-1.0717,-1.0717,-1.0717,-1.0717,-1.0717,-1.0717,-1.0717,-1.0717,-1.0717,-1.0717,-1.0717,-1.0717,-1.0717,-1.0717,-1.0717,-1.0717,-1.0717,-1.0717,-1.0717,-1.0717,-1.0717,-1.0717,-1.0664,-1.0649,-1.069,-1.0656,-1.0595,-1.0521,-1.0514,-1.0391,-0.8741,-0.6955,-0.5321,-0.3581,-0.18,0.0,0.0,0.0,0.0,0.0,0.0,0.0,0.0,0.0,0.0,0.0,0.0,0.0,0.0,0.0,0.0,0.0,0.0,0.0,0.0,0.0,0.0,0.0,0.0,0.0,0.0,0.0,0.0,0.0,0.0,0.0,0.0,0.0,0.0,0.0,0.0,0.0,0.0,0.0,0.0,0.0,0.0,0.0,0.0,0.0,0.0,0.0,0.0,0.0,0.0,0.0,0.4024,0.5162,0.6669,0.9244,1.0717,1.0717,1.0717,1.0717,1.0717,1.0717,1.0717,1.0717,1.0717,1.0717,1.0717,1.0717,1.0717,1.0717,-1.0717,-1.0717,-1.0717,-1.0717,-1.0717,-1.0717,-1.0717,-1.0717,-1.0717,-1.0717,-1.0717,-1.0717,-1.0717,-1.0717,-1.0717,-1.0717,-1.0717,-1.0717,-1.0717,-1.0717,-1.0717,-1.0717,-1.0717,-1.0717,-1.0717,-1.0717,-1.0717,-1.0717,-1.0717,-1.0717,-1.0717,-1.0717,-1.0717,-1.0717,-1.0717,-1.0717,-1.0717,-1.0704,-1.0622,-1.0622,-1.0313,-0.8865,-0.7088,-0.5398,-0.3663,-0.1853,0.0,0.0,0.0,0.0,0.0,0.0,0.0,0.0,0.0,0.0,0.0,0.0,0.0,0.0,0.0,0.0,0.0,0.0,0.0,0.0,0.0,0.0,0.0,0.0,0.0,0.0,0.0,0.0,0.0,0.0,0.0,0.0,0.0,0.0,0.0,0.0,0.0,0.0,0.0,0.0,0.0,0.0,0.0,0.0,0.0,0.0,0.0,0.0,0.0,0.0,0.0,0.3488,0.5332,0.7336,0.9715,1.0452,1.0717,1.0717,1.0717,1.0717,1.0717,1.0717,1.0717,1.0717,1.0717,1.0717,1.0717,1.0717,1.0717,-1.0717,-1.0717,-1.0717,-1.0717,-1.0717,-1.0717,-1.0717,-1.0717,-1.0717,-1.0717,-1.0717,-1.0717,-1.0717,-1.0717,-1.0717,-1.0717,-1.0717,-1.0717,-1.0717,-1.0717,-1.0717,-1.0717,-1.0717,-1.0717,-1.0717,-1.0717,-1.0717,-1.0717,-1.0717,-1.0717,-1.0717,-1.0717,-1.0717,-1.0717,-1.0717,-1.0717,-1.0717,-1.0717,-1.0677,-1.0677,-1.0618,-0.8928,-0.7152,-0.5431,-0.363,-0.186,0.0,0.0,0.0,0.0,0.0,0.0,0.0,0.0,0.0,0.0,0.0,0.0,0.0,0.0,0.0,0.0,0.0,0.0,0.0,0.0,0.0,0.0,0.0,0.0,0.0,0.0,0.0,0.0,0.0,0.0,0.0,0.0,0.0,0.0,0.0,0.0,0.0,0.0,0.0,0.0,0.0,0.0,0.0,0.0,0.0,0.0,0.0,0.0,0.0,0.0,0.2148,0.4057,0.5897,0.7936,0.9748,1.0386,1.0717,1.0717,1.0717,1.0717,1.0717,1.0717,1.0717,1.0717,1.0717,1.0717,1.0717,1.0717,1.0717,-1.0717,-1.0717,-1.0717,-1.0717,-1.0717,-1.0717,-1.0717,-1.0717,-1.0717,-1.0717,-1.0717,-1.0717,-1.0717,-1.0717,-1.0717,-1.0717,-1.0717,-1.0717,-1.0717,-1.0717,-1.0717,-1.0717,-1.0717,-1.0717,-1.0717,-1.0717,-1.0717,-1.0717,-1.0717,-1.0717,-1.0717,-1.0717,-1.0717,-1.0717,-1.0717,-1.0651,-1.0717,-1.0717,-1.0651,-1.0585,-1.028,-0.8834,-0.7151,-0.5442,-0.3615,-0.1841,0.0,0.0,0.0,0.0,0.0,0.0,0.0,0.0,0.0,0.0,0.0,0.0,0.0,0.0,0.0,0.0,0.0,0.0,0.0,0.0,0.0,0.0,0.0,0.0,0.0,0.0,0.0,0.0,0.0,0.0,0.0,0.0,0.0,0.0,0.0,0.0,0.0,0.0,0.0,0.0,0.0,0.0,0.0,0.0,0.0,0.0,0.0,0.0,0.0,0.0,0.2853,0.4794,0.6631,0.8402,0.9775,1.0585,1.0717,1.0717,1.0717,1.0717,1.0717,1.0717,1.0717,1.0717,1.0717,1.0717,1.0717,1.0717,1.0717,-1.0717,-1.0717,-1.0717,-1.0717,-1.0717,-1.0717,-1.0717,-1.0717,-1.0717,-1.0717,-1.0717,-1.0717,-1.0717,-1.0717,-1.0717,-1.0717,-1.0717,-1.0717,-1.0717,-1.0717,-1.0717,-1.0717,-1.0717,-1.0717,-1.0717,-1.0717,-1.0717,-1.0717,-1.0717,-1.0717,-1.0717,-1.0717,-1.0717,-1.0717,-1.0618,-0.9881,-0.9576,-0.941,-0.8939,-0.8473,-0.8374,-0.7464,-0.6027,-0.4492,-0.3121,-0.1848,0.0,0.0,0.0,0.0,0.0,0.0,0.0,0.0,0.0,0.0,0.0,0.0,0.0,0.0,0.0,0.0,0.0,0.0,0.0,0.0,0.0,0.0,0.0,0.0,0.0,0.0,0.0,0.0,0.0,0.0,0.0,0.0,0.0,0.0,0.0,0.0,0.0,0.0,0.0,0.0,0.0,0.0,0.0,0.0,0.0,0.0,0.0,0.0,0.0,0.0,0.3588,0.5596,0.7669,0.9371,0.9908,1.0717,1.0717,1.0717,1.0717,1.0717,1.0717,1.0717,1.0717,1.0717,1.0717,1.0717,1.0717,1.0717,1.0717,-1.0717,-1.0717,-1.0717,-1.0717,-1.0717,-1.0717,-1.0717,-1.0717,-1.0717,-1.0717,-1.0717,-1.0717,-1.0717,-1.0717,-1.0717,-1.0717,-1.0717,-1.0717,-1.0717,-1.0717,-1.0717,-1.0717,-1.0717,-1.0717,-1.0717,-1.0717,-1.0717,-1.0717,-1.0717,-1.0717,-1.0717,-1.0717,-1.0717,-1.0717,-1.0386,-0.9039,-0.813,-0.7897,-0.6765,-0.6097,-0.593,-0.5429,-0.4392,-0.3253,-0.2383,-0.1512,0.0,0.0,0.0,0.0,0.0,0.0,0.0,0.0,0.0,0.0,0.0,0.0,0.0,0.0,0.0,0.0,0.0,0.0,0.0,0.0,0.0,0.0,0.0,0.0,0.0,0.0,0.0,0.0,0.0,0.0,0.0,0.0,0.0,0.0,0.0,0.0,0.0,0.0,0.0,0.0,0.0,0.0,0.0,0.0,0.0,0.0,0.0,0.0,0.0,0.0,0.4158,0.6398,0.8706,1.0246,1.028,1.0717,1.0717,1.0717,1.0717,1.0717,1.0717,1.0717,1.0717,1.0717,1.0717,1.0717,1.0717,1.0717,1.0717,-1.0717,-1.0717,-1.0717,-1.0717,-1.0717,-1.0717,-1.0717,-1.0717,-1.0717,-1.0717,-1.0717,-1.0717,-1.0717,-1.0717,-1.0717,-1.0717,-1.0717,-1.0717,-1.0717,-1.0717,-1.0717,-1.0717,-1.0724,-1.0724,-1.0717,-1.0717,-1.0717,-1.0717,-1.0717,-1.0717,-1.0717,-1.0717,-1.0717,-1.0717,-1.0452,-0.8972,-0.7997,-0.7698,-0.6231,-0.5232,-0.473,-0.3823,-0.3054,-0.245,-0.1377,0.0,0.0,0.0,0.0,0.0,0.0,0.0,0.0,0.0,0.0,0.0,0.0,0.0,0.0,0.0,0.0,0.0,0.0,0.0,0.0,0.0,0.0,0.0,0.0,0.0,0.0,0.0,0.0,0.0,0.0,0.0,0.0,0.0,0.0,0.0,0.0,0.0,0.0,0.0,0.0,0.0,0.0,0.0,0.0,0.0,0.0,0.0,0.0,0.0,0.0,0.2918,0.5629,0.7436,0.9443,1.0651,1.0684,1.0717,1.0717,1.0717,1.0717,1.0717,1.0717,1.0717,1.0717,1.0717,1.0717,1.0717,1.0717,1.0717,1.0717,-1.0717,-1.0717,-1.0717,-1.0717,-1.0717,-1.0717,-1.0717,-1.0717,-1.0717,-1.0717,-1.0717,-1.0717,-1.0717,-1.0717,-1.0717,-1.0717,-1.0717,-1.0724,-1.0732,-1.0759,-1.0738,-1.0725,-1.0765,-1.0718,-1.0717,-1.0717,-1.0717,-1.0717,-1.0717,-1.0724,-1.0717,-1.0717,-1.0717,-1.0717,-1.0452,-0.8906,-0.7564,-0.6498,-0.5028,-0.3789,-0.2786,-0.2016,-0.1411,-0.1377,0.0,0.0,0.0,0.0,0.0,0.0,0.0,0.0,0.0,0.0,0.0,0.0,0.0,0.0,0.0,0.0,0.0,0.0,0.0,0.0,0.0,0.0,0.0,0.0,0.0,0.0,0.0,0.0,0.0,0.0,0.0,0.0,0.0,0.0,0.0,0.0,0.0,0.0,0.0,0.0,0.0,0.0,0.0,0.0,0.0,0.0,0.0,0.0,0.0,0.0,0.0,0.4158,0.7331,0.8873,1.0114,1.0684,1.0717,1.0717,1.0717,1.0717,1.0717,1.0717,1.0717,1.0717,1.0717,1.0717,1.0717,1.0717,1.0717,1.0717,1.0717,-1.0717,-1.0717,-1.0717,-1.0717,-1.0717,-1.0717,-1.0717,-1.0717,-1.0717,-1.0717,-1.0717,-1.0717,-1.0717,-1.0717,-1.0717,-1.0717,-1.0717,-1.0698,-1.0752,-1.086,-1.0792,-1.0806,-1.0846,-1.0792,-1.0718,-1.0724,-1.0717,-1.0724,-1.0725,-1.0704,-1.0744,-1.0751,-1.0724,-1.0724,-1.0313,-0.89,-0.7231,-0.5696,-0.3923,-0.2148,0.0,0.0,0.0,0.0,0.0,0.0,0.0,0.0,0.0,0.0,0.0,0.0,0.0,0.0,0.0,0.0,0.0,0.0,0.0,0.0,0.0,0.0,0.0,0.0,0.0,0.0,0.0,0.0,0.0,0.0,0.0,0.0,0.0,0.0,0.0,0.0,0.0,0.0,0.0,0.0,0.0,0.0,0.0,0.0,0.0,0.0,0.0,0.0,0.0,0.0,0.0,0.0,0.0,0.0,0.0,0.4991,0.8202,0.9643,1.0717,1.0717,1.0717,1.0717,1.0717,1.0717,1.0717,1.0717,1.0717,1.0717,1.0717,1.0717,1.0717,1.0717,1.0717,1.0717,1.0731,-1.0717,-1.0717,-1.0717,-1.0717,-1.0717,-1.0717,-1.0717,-1.0717,-1.0717,-1.0717,-1.0717,-1.0717,-1.0717,-1.0717,-1.0717,-1.0717,-1.0717,-1.0711,-1.0786,-1.0907,-1.0887,-1.0914,-1.0941,-1.0847,-1.0806,-1.0711,-1.0738,-1.0765,-1.0806,-1.0759,-1.0786,-1.0833,-1.0772,-1.0751,-1.0266,-0.8939,-0.7412,-0.5774,-0.3928,-0.2116,0.0,0.0,0.0,0.0,0.0,0.0,0.0,0.0,0.0,0.0,0.0,0.0,0.0,0.0,0.0,0.0,0.0,0.0,0.0,0.0,0.0,0.0,0.0,0.0,0.0,0.0,0.0,0.0,0.0,0.0,0.0,0.0,0.0,0.0,0.0,0.0,0.0,0.0,0.0,0.0,0.0,0.0,0.0,0.0,0.0,0.0,0.0,0.0,0.0,0.0,0.0,0.0,0.0,0.0,0.0,0.6398,0.8668,0.9881,1.0717,1.0717,1.0717,1.0717,1.0717,1.0717,1.0717,1.0717,1.0717,1.0717,1.0717,1.0717,1.0717,1.0717,1.0717,1.0724,1.0765,-1.0717,-1.0717,-1.0717,-1.0717,-1.0717,-1.0717,-1.0717,-1.0717,-1.0717,-1.0717,-1.0717,-1.0717,-1.0717,-1.0717,-1.0717,-1.0717,-1.0738,-1.0786,-1.088,-1.0995,-1.1056,-1.1111,-1.109,-1.1002,-1.0941,-1.0921,-1.0894,-1.084,-1.0914,-1.0962,-1.0948,-1.0901,-1.0934,-1.0914,-1.0719,-1.0028,-0.8497,-0.6833,-0.4983,-0.3155,-0.1344,0.0,0.0,0.0,0.0,0.0,0.0,0.0,0.0,0.0,0.0,0.0,0.0,0.0,0.0,0.0,0.0,0.0,0.0,0.0,0.0,0.0,0.0,0.0,0.0,0.0,0.0,0.0,0.0,0.0,0.0,0.0,0.0,0.0,0.0,0.0,0.0,0.0,0.0,0.0,0.0,0.0,0.0,0.0,0.0,0.0,0.0,0.0,0.0,0.0,0.0,0.0,0.0,0.0,0.5964,0.7702,0.9072,1.0114,1.0717,1.0717,1.0717,1.0717,1.0717,1.0717,1.0717,1.0717,1.0717,1.0717,1.0717,1.0717,1.0717,1.0717,1.0717,1.0744,1.0792,-1.0717,-1.0717,-1.0717,-1.0717,-1.0717,-1.0717,-1.0717,-1.0717,-1.0717,-1.0717,-1.0717,-1.0717,-1.0717,-1.0717,-1.0724,-1.0704,-1.0738,-1.0833,-1.1002,-1.1185,-1.124,-1.1315,-1.128,-1.1164,-1.1084,-1.1125,-1.1104,-1.1002,-1.1043,-1.1097,-1.109,-1.1097,-1.1151,-1.1118,-1.0907,-1.0785,-0.9853,-0.8306,-0.6437,-0.4476,-0.2318,0.0,0.0,0.0,0.0,0.0,0.0,0.0,0.0,0.0,0.0,0.0,0.0,0.0,0.0,0.0,0.0,0.0,0.0,0.0,0.0,0.0,0.0,0.0,0.0,0.0,0.0,0.0,0.0,0.0,0.0,0.0,0.0,0.0,0.0,0.0,0.0,0.0,0.0,0.0,0.0,0.0,0.0,0.0,0.0,0.0,0.0,0.0,0.0,0.0,0.0,0.0,0.0,0.0,0.7564,0.8939,0.9881,1.0386,1.0717,1.0717,1.0717,1.0717,1.0717,1.0717,1.0717,1.0717,1.0717,1.0717,1.0717,1.0717,1.0717,1.0717,1.0717,1.0778,1.0826,-1.0717,-1.0717,-1.0717,-1.0717,-1.0717,-1.0717,-1.0717,-1.0717,-1.0717,-1.0717,-1.0717,-1.0717,-1.0717,-1.0724,-1.0698,-1.0772,-1.0853,-1.0948,-1.1111,-1.1322,-1.1348,-1.1375,-1.1396,-1.1369,-1.1253,-1.1274,-1.1287,-1.1335,-1.1307,-1.1268,-1.1274,-1.128,-1.1226,-1.1193,-1.1151,-1.1138,-1.0229,-0.8504,-0.659,-0.3905,0.0,0.0,0.0,0.0,0.0,0.0,0.0,0.0,0.0,0.0,0.0,0.0,0.0,0.0,0.0,0.0,0.0,0.0,0.0,0.0,0.0,0.0,0.0,0.0,0.0,0.0,0.0,0.0,0.0,0.0,0.0,0.0,0.0,0.0,0.0,0.0,0.0,0.0,0.0,0.0,0.0,0.0,0.0,0.0,0.0,0.0,0.0,0.0,0.0,0.0,0.0,0.0,0.4557,0.6965,0.8435,0.9915,1.0352,1.0684,1.0717,1.0717,1.0717,1.0717,1.0717,1.0717,1.0717,1.0717,1.0717,1.0717,1.0717,1.0717,1.0717,1.0717,1.0717,1.0765,1.0867,-1.0717,-1.0717,-1.0717,-1.0717,-1.0717,-1.0717,-1.0717,-1.0717,-1.0717,-1.0717,-1.0717,-1.0717,-1.0717,-1.0698,-1.0765,-1.0799,-1.0846,-1.107,-1.1199,-1.1321,-1.143,-1.1518,-1.1497,-1.1443,-1.1369,-1.1416,-1.1409,-1.1436,-1.145,-1.1457,-1.1436,-1.1417,-1.1409,-1.1382,-1.1336,-1.1329,-1.0903,-0.9521,-0.7174,-0.373,0.0,0.0,0.0,0.0,0.0,0.0,0.0,0.0,0.0,0.0,0.0,0.0,0.0,0.0,0.0,0.0,0.0,0.0,0.0,0.0,0.0,0.0,0.0,0.0,0.0,0.0,0.0,0.0,0.0,0.0,0.0,0.0,0.0,0.0,0.0,0.0,0.0,0.0,0.0,0.0,0.0,0.0,0.0,0.0,0.0,0.0,0.0,0.0,0.0,0.0,0.0,0.0,0.6064,0.8169,0.9277,1.0419,1.0485,1.0717,1.0717,1.0717,1.0717,1.0717,1.0744,1.0738,1.0731,1.0724,1.0724,1.0717,1.0717,1.0717,1.0717,1.0731,1.0718,1.0819,1.0928,-1.0717,-1.0717,-1.0717,-1.0717,-1.0717,-1.0717,-1.0717,-1.0717,-1.0717,-1.0717,-1.0717,-1.0717,-1.0717,-1.0751,-1.0826,-1.0874,-1.088,-1.1226,-1.1321,-1.1389,-1.1484,-1.1556,-1.1572,-1.1504,-1.1511,-1.1584,-1.1511,-1.1518,-1.1572,-1.1556,-1.1531,-1.145,-1.1531,-1.1538,-1.1477,-1.1302,-1.0899,-0.9049,-0.6902,-0.3748,0.0,0.0,0.0,0.0,0.0,0.0,0.0,0.0,0.0,0.0,0.0,0.0,0.0,0.0,0.0,0.0,0.0,0.0,0.0,0.0,0.0,0.0,0.0,0.0,0.0,0.0,0.0,0.0,0.0,0.0,0.0,0.0,0.0,0.0,0.0,0.0,0.0,0.0,0.0,0.0,0.0,0.0,0.0,0.0,0.0,0.0,0.0,0.0,0.1109,0.2182,0.3921,0.5663,0.7536,0.9205,0.9848,1.0618,1.0684,1.0717,1.0717,1.0758,1.0785,1.0772,1.0806,1.0779,1.0745,1.0759,1.0799,1.0738,1.0717,1.0717,1.0724,1.0725,1.0772,1.088,1.1016,-1.0717,-1.0717,-1.0717,-1.0717,-1.0717,-1.0717,-1.0717,-1.0717,-1.0717,-1.0717,-1.0717,-1.0717,-1.0717,-1.0725,-1.084,-1.0961,-1.1145,-1.1307,-1.1402,-1.1504,-1.1613,-1.1584,-1.1599,-1.1592,-1.1556,-1.1577,-1.1572,-1.1586,-1.1613,-1.1584,-1.157,-1.1613,-1.157,-1.1606,-1.1442,-1.1165,-0.9454,-0.7616,-0.5728,-0.3647,0.0,0.0,0.0,0.0,0.0,0.0,0.0,0.0,0.0,0.0,0.0,0.0,0.0,0.0,0.0,0.0,0.0,0.0,0.0,0.0,0.0,0.0,0.0,0.0,0.0,0.0,0.0,0.0,0.0,0.0,0.0,0.0,0.0,0.0,0.0,0.0,0.0,0.0,0.0,0.0,0.0,0.0,0.0,0.0,0.0,0.0,0.0,0.1009,0.2417,0.3655,0.5492,0.7298,0.9072,1.0213,1.0419,1.0717,1.0717,1.0717,1.0717,1.0772,1.0853,1.088,1.0874,1.0901,1.0914,1.0887,1.084,1.0813,1.0752,1.0738,1.0738,1.0745,1.0874,1.1056,1.1199,-1.0717,-1.0717,-1.0717,-1.0717,-1.0717,-1.0717,-1.0717,-1.0717,-1.0717,-1.0717,-1.0717,-1.0717,-1.0717,-1.0732,-1.0833,-1.088,-1.0948,-1.1295,-1.139,-1.1416,-1.1491,-1.1563,-1.1584,-1.1584,-1.1577,-1.1584,-1.1584,-1.1584,-1.1584,-1.1584,-1.1584,-1.1584,-1.1584,-1.1584,-1.1397,-1.0449,-0.8313,-0.6318,-0.4577,-0.2553,0.0,0.0,0.0,0.0,0.0,0.0,0.0,0.0,0.0,0.0,0.0,0.0,0.0,0.0,0.0,0.0,0.0,0.0,0.0,0.0,0.0,0.0,0.0,0.0,0.0,0.0,0.0,0.0,0.0,0.0,0.0,0.0,0.0,0.0,0.0,0.0,0.0,0.0,0.0,0.0,0.0,0.0,0.0,0.0,0.0,0.0,0.0,0.2118,0.3669,0.505,0.6841,0.8226,0.985,1.0578,1.0752,1.0758,1.0731,1.0744,1.0751,1.0867,1.0948,1.0907,1.0907,1.0961,1.1023,1.0955,1.0914,1.0867,1.0819,1.0819,1.0806,1.0819,1.0982,1.1192,1.1335,-1.0717,-1.0717,-1.0717,-1.0717,-1.0717,-1.0717,-1.0717,-1.0717,-1.0717,-1.0717,-1.0717,-1.0717,-1.0717,-1.0738,-1.0928,-1.0975,-1.1023,-1.126,-1.1348,-1.1436,-1.1531,-1.157,-1.1584,-1.1584,-1.1584,-1.1584,-1.1584,-1.1584,-1.1584,-1.1584,-1.1584,-1.1584,-1.1584,-1.1584,-1.1145,-0.9651,-0.7724,-0.5808,-0.3887,-0.1965,0.0,0.0,0.0,0.0,0.0,0.0,0.0,0.0,0.0,0.0,0.0,0.0,0.0,0.0,0.0,0.0,0.0,0.0,0.0,0.0,0.0,0.0,0.0,0.0,0.0,0.0,0.0,0.0,0.0,0.0,0.0,0.0,0.0,0.0,0.0,0.0,0.0,0.0,0.0,0.0,0.0,0.0,0.0,0.0,0.0,0.0,0.0,0.3333,0.5539,0.6834,0.7985,0.9177,1.0232,1.0651,1.086,1.0894,1.0928,1.0975,1.0995,1.1002,1.1029,1.0988,1.1016,1.1151,1.1145,1.1016,1.1016,1.1023,1.0968,1.09,1.0941,1.1029,1.1145,1.1348,1.1457,-1.0717,-1.0717,-1.0717,-1.0717,-1.0717,-1.0717,-1.0717,-1.0717,-1.0717,-1.0717,-1.0717,-1.0717,-1.0698,-1.0759,-1.0995,-1.1104,-1.1193,-1.1409,-1.1502,-1.1538,-1.1565,-1.1577,-1.1584,-1.1584,-1.1584,-1.1584,-1.1584,-1.1584,-1.1584,-1.1584,-1.1584,-1.1584,-1.1584,-1.1597,-1.1404,-0.961,-0.7688,-0.5812,-0.3855,-0.1675,0.0,0.0,0.0,0.0,0.0,0.0,0.0,0.0,0.0,0.0,0.0,0.0,0.0,0.0,0.0,0.0,0.0,0.0,0.0,0.0,0.0,0.0,0.0,0.0,0.0,0.0,0.0,0.0,0.0,0.0,0.0,0.0,0.0,0.0,0.0,0.0,0.0,0.0,0.0,0.0,0.0,0.0,0.0,0.0,0.0,0.0,0.0,0.4401,0.6889,0.8409,0.9417,0.989,1.0709,1.0818,1.1016,1.1118,1.1159,1.1172,1.1159,1.1131,1.1165,1.1179,1.1226,1.1307,1.1274,1.1179,1.1165,1.12,1.1193,1.1172,1.124,1.1321,1.1409,1.147,1.1552,-1.0717,-1.0717,-1.0717,-1.0717,-1.0717,-1.0717,-1.0717,-1.0717,-1.0717,-1.0717,-1.0717,-1.0717,-1.0752,-1.0853,-1.0968,-1.109,-1.124,-1.137,-1.1463,-1.1491,-1.1536,-1.1577,-1.1584,-1.1584,-1.1584,-1.1584,-1.1584,-1.1584,-1.1584,-1.1584,-1.1584,-1.1584,-1.159,-1.1638,-1.0752,-0.8915,-0.6297,-0.5351,-0.2999,0.0,0.0,0.0,0.0,0.0,0.0,0.0,0.0,0.0,0.0,0.0,0.0,0.0,0.0,0.0,0.0,0.0,0.0,0.0,0.0,0.0,0.0,0.0,0.0,0.0,0.0,0.0,0.0,0.0,0.0,0.0,0.0,0.0,0.0,0.0,0.0,0.0,0.0,0.0,0.0,0.0,0.0,0.0,0.0,0.0,0.2264,0.3699,0.4434,0.574,0.7995,0.9515,1.0636,1.067,1.1055,1.1103,1.1206,1.1268,1.1281,1.1261,1.1227,1.1186,1.1234,1.1322,1.1308,1.1322,1.1301,1.1314,1.1321,1.1348,1.1436,1.1491,1.1463,1.143,1.1443,1.1504,1.1586,-1.0717,-1.0717,-1.0717,-1.0717,-1.0717,-1.0717,-1.0717,-1.0717,-1.0717,-1.0717,-1.0717,-1.0724,-1.0765,-1.0887,-1.0975,-1.1104,-1.1281,-1.1402,-1.147,-1.1484,-1.1529,-1.157,-1.1584,-1.1584,-1.1584,-1.1584,-1.1584,-1.1584,-1.1584,-1.1584,-1.1584,-1.1584,-1.1584,-1.1701,-1.0596,-0.8343,-0.5462,-0.4243,0.0,0.0,0.0,0.0,0.0,0.0,0.0,0.0,0.0,0.0,0.0,0.0,0.0,0.0,0.0,0.0,0.0,0.0,0.0,0.0,0.0,0.0,0.0,0.0,0.0,0.0,0.0,0.0,0.0,0.0,0.0,0.0,0.0,0.0,0.0,0.0,0.0,0.0,0.0,0.0,0.0,0.0,0.0,0.0,0.0,0.0,0.3215,0.4785,0.626,0.772,0.9,1.0226,1.128,1.1315,1.1336,1.1341,1.1362,1.1417,1.141,1.1363,1.1336,1.1308,1.1342,1.1402,1.137,1.1308,1.1328,1.1382,1.147,1.1531,1.1552,1.1558,1.1538,1.1504,1.147,1.1531,1.1577,-1.0717,-1.0717,-1.0717,-1.0717,-1.0717,-1.0717,-1.0717,-1.0717,-1.0717,-1.0717,-1.0717,-1.0717,-1.0786,-1.0934,-1.1097,-1.1274,-1.1389,-1.1545,-1.1579,-1.1563,-1.1577,-1.1584,-1.1584,-1.1584,-1.1584,-1.1584,-1.1584,-1.1584,-1.1584,-1.1584,-1.1584,-1.1584,-1.1584,-1.1174,-0.973,-0.767,-0.5208,-0.3798,0.0,0.0,0.0,0.0,0.0,0.0,0.0,0.0,0.0,0.0,0.0,0.0,0.0,0.0,0.0,0.0,0.0,0.0,0.0,0.0,0.0,0.0,0.0,0.0,0.0,0.0,0.0,0.0,0.0,0.0,0.0,0.0,0.0,0.0,0.0,0.0,0.0,0.0,0.0,0.0,0.0,0.0,0.0,0.0,0.0,0.0,0.4261,0.5594,0.7227,0.9168,1.0292,1.0672,1.1491,1.1504,1.1525,1.1565,1.1565,1.1511,1.1504,1.1463,1.1497,1.1491,1.1518,1.1477,1.1416,1.1375,1.1389,1.1443,1.1531,1.1543,1.1563,1.1563,1.1543,1.1543,1.1538,1.1558,1.1584,-1.0717,-1.0717,-1.0717,-1.0717,-1.0717,-1.0717,-1.0717,-1.0717,-1.0717,-1.0717,-1.0717,-1.0717,-1.0853,-1.1132,-1.1179,-1.1314,-1.1477,-1.1556,-1.157,-1.1584,-1.1584,-1.1584,-1.1584,-1.1584,-1.1584,-1.1584,-1.1584,-1.1584,-1.1584,-1.1584,-1.1584,-1.1584,-1.1584,-1.0342,-0.8377,-0.6438,-0.5547,-0.4097,-0.1498,0.0,0.0,0.0,0.0,0.0,0.0,0.0,0.0,0.0,0.0,0.0,0.0,0.0,0.0,0.0,0.0,0.0,0.0,0.0,0.0,0.0,0.0,0.0,0.0,0.0,0.0,0.0,0.0,0.0,0.0,0.0,0.0,0.0,0.0,0.0,0.0,0.0,0.0,0.0,0.0,0.0947,0.1121,0.123,0.1158,0.301,0.5337,0.6572,0.8095,1.0101,1.1224,1.1482,1.1584,1.1584,1.1584,1.1584,1.1584,1.1572,1.1592,1.157,1.1613,1.1592,1.1518,1.1477,1.147,1.147,1.1477,1.1525,1.1592,1.1584,1.1584,1.1584,1.157,1.1577,1.1584,1.1604,1.1611,-1.0717,-1.0717,-1.0717,-1.0717,-1.0717,-1.0717,-1.0717,-1.0717,-1.0717,-1.0717,-1.0717,-1.0717,-1.088,-1.1145,-1.1118,-1.1253,-1.1592,-1.1538,-1.1545,-1.1584,-1.1584,-1.1584,-1.1584,-1.1584,-1.1584,-1.1584,-1.1584,-1.1584,-1.1584,-1.1584,-1.1584,-1.1584,-1.1584,-0.9723,-0.7765,-0.6431,-0.5356,-0.3761,0.0,0.0,0.0,0.0,0.0,0.0,0.0,0.0,0.0,0.0,0.0,0.0,0.0,0.0,0.0,0.0,0.0,0.0,0.0,0.0,0.0,0.0,0.0,0.0,0.0,0.0,0.0,0.0,0.0,0.0,0.0,0.0,0.0,0.0,0.0,0.0,0.0,0.0,0.0,0.0,0.0,0.0,0.1786,0.1934,0.2926,0.4841,0.647,0.7774,0.9123,1.0699,1.1513,1.1545,1.1597,1.1584,1.1584,1.1584,1.159,1.1604,1.1597,1.1597,1.1584,1.1579,1.1511,1.1511,1.1545,1.1558,1.1558,1.1599,1.1626,1.1584,1.1584,1.1597,1.1638,1.1685,1.1692,1.1728,1.1698,-1.0717,-1.0717,-1.0717,-1.0717,-1.0717,-1.0717,-1.0717,-1.0717,-1.0717,-1.0717,-1.0717,-1.0717,-1.0887,-1.1132,-1.1056,-1.1205,-1.1428,-1.1497,-1.1511,-1.1577,-1.1584,-1.1584,-1.1584,-1.1584,-1.1584,-1.1584,-1.1584,-1.1584,-1.1584,-1.1584,-1.1584,-1.1584,-1.1181,-0.9687,-0.7652,-0.5844,-0.4335,-0.2455,0.0,0.0,0.0,0.0,0.0,0.0,0.0,0.0,0.0,0.0,0.0,0.0,0.0,0.0,0.0,0.0,0.0,0.0,0.0,0.0,0.0,0.0,0.0,0.0,0.0,0.0,0.0,0.0,0.0,0.0,0.0,0.0,0.0,0.0,0.0,0.0,0.0,0.0,0.0,0.0,0.0,0.2856,0.3832,0.3873,0.3907,0.5713,0.7231,0.8751,1.0216,1.1587,1.1823,1.1755,1.1708,1.1644,1.1644,1.1651,1.1644,1.1687,1.1667,1.1653,1.1647,1.1617,1.1604,1.1633,1.1633,1.1626,1.1584,1.1619,1.1633,1.1653,1.1644,1.1665,1.1719,1.1793,1.182,1.187,1.1864,-1.0717,-1.0717,-1.0717,-1.0717,-1.0717,-1.0717,-1.0717,-1.0717,-1.0717,-1.0717,-1.0717,-1.0744,-1.0873,-1.109,-1.0975,-1.1151,-1.1448,-1.147,-1.1497,-1.1579,-1.1584,-1.1584,-1.1584,-1.1584,-1.1584,-1.1584,-1.1584,-1.1584,-1.1584,-1.1584,-1.1505,-1.1325,-1.0485,-0.8703,-0.6532,-0.4649,-0.299,-0.1176,0.0,0.0,0.0,0.0,0.0,0.0,0.0,0.0,0.0,0.0,0.0,0.0,0.0,0.0,0.0,0.0,0.0,0.0,0.0,0.0,0.0,0.0,0.0,0.0,0.0,0.0,0.0,0.0,0.0,0.0,0.0,0.0,0.0,0.0,0.0,0.0,0.0,0.0,0.0,0.0,0.0,0.4375,0.557,0.5896,0.571,0.6466,0.7943,0.9445,1.0922,1.1999,1.1999,1.1952,1.1891,1.185,1.1766,1.1759,1.1746,1.1782,1.1782,1.1748,1.1735,1.1748,1.1732,1.1705,1.1721,1.1658,1.1644,1.1714,1.1742,1.1712,1.1739,1.1759,1.1884,1.1986,1.2054,1.2081,1.206,-1.0717,-1.0717,-1.0717,-1.0717,-1.0717,-1.0717,-1.0717,-1.0717,-1.0717,-1.0717,-1.0717,-1.0738,-1.0853,-1.105,-1.0948,-1.1103,-1.1463,-1.143,-1.1497,-1.1579,-1.1584,-1.1584,-1.1584,-1.1584,-1.1584,-1.1584,-1.1584,-1.1584,-1.1584,-1.1476,-1.1361,-1.0455,-0.8925,-0.7295,-0.4942,-0.3237,-0.1863,0.0,0.0,0.0,0.0,0.0,0.0,0.0,0.0,0.0,0.0,0.0,0.0,0.0,0.0,0.0,0.0,0.0,0.0,0.0,0.0,0.0,0.0,0.0,0.0,0.0,0.0,0.0,0.0,0.0,0.0,0.0,0.0,0.0,0.0,0.0,0.0,0.0,0.0,0.0,0.0,0.0,0.4518,0.5295,0.6597,0.7774,0.768,0.7829,0.9262,1.0615,1.2036,1.2155,1.2155,1.2179,1.2081,1.2033,1.1955,1.1952,1.1938,1.1975,1.1975,1.1891,1.185,1.1877,1.1911,1.185,1.1773,1.1823,1.1843,1.1884,1.1904,1.1898,1.1911,1.1945,1.2047,1.2162,1.2223,1.2291,1.2311,-1.0717,-1.0717,-1.0717,-1.0717,-1.0717,-1.0717,-1.0717,-1.0717,-1.0717,-1.0717,-1.0717,-1.0717,-1.0779,-1.0874,-1.0894,-1.113,-1.1314,-1.1389,-1.1491,-1.1579,-1.1577,-1.1584,-1.1584,-1.1584,-1.1584,-1.1584,-1.1584,-1.1584,-1.1584,-1.1476,-1.075,-0.908,-0.7743,-0.6547,-0.3896,-0.2407,0.0,0.0,0.0,0.0,0.0,0.0,0.0,0.0,0.0,0.0,0.0,0.0,0.0,0.0,0.0,0.0,0.0,0.0,0.0,0.0,0.0,0.0,0.0,0.0,0.0,0.0,0.0,0.0,0.0,0.0,0.0,0.0,0.0,0.0,0.0,0.0,0.0,0.0,0.0,0.0951,0.2923,0.4996,0.5933,0.657,0.7904,0.9338,0.9618,0.9714,1.0464,1.1848,1.2311,1.2318,1.2311,1.2291,1.225,1.223,1.2216,1.2207,1.2145,1.2125,1.2125,1.2091,1.2057,1.2084,1.2091,1.202,1.1999,1.2043,1.2064,1.2091,1.2091,1.2047,1.2067,1.2128,1.221,1.2325,1.2413,1.2481,1.2562,-1.0717,-1.0717,-1.0717,-1.0717,-1.0717,-1.0717,-1.0717,-1.0717,-1.0717,-1.0717,-1.0717,-1.0698,-1.0772,-1.088,-1.088,-1.107,-1.1321,-1.141,-1.1484,-1.1599,-1.1613,-1.1584,-1.1584,-1.1584,-1.1584,-1.1584,-1.1584,-1.1584,-1.1584,-1.1512,-1.0577,-0.8628,-0.6877,-0.5265,-0.317,0.0,0.0,0.0,0.0,0.0,0.0,0.0,0.0,0.0,0.0,0.0,0.0,0.0,0.0,0.0,0.0,0.0,0.0,0.0,0.0,0.0,0.0,0.0,0.0,0.0,0.0,0.0,0.0,0.0,0.0,0.0,0.0,0.0,0.0,0.0,0.0,0.0,0.0,0.0,0.0,0.1968,0.3483,0.5957,0.7875,0.8839,1.0033,1.0875,1.1246,1.1308,1.1421,1.2338,1.2406,1.2413,1.242,1.2413,1.24,1.2393,1.2386,1.2345,1.2271,1.2288,1.2275,1.2247,1.2213,1.2193,1.22,1.2203,1.2196,1.222,1.2227,1.2241,1.2241,1.225,1.2325,1.2393,1.2413,1.2488,1.2583,1.2605,1.2659]},{"header":{"parameterUnit":"m.s-1","parameterCategory":1,"la1":31.0,"la2":29.5877,"lo1":-88.7671,"lo2":-86.6584,"dy":0.0162,"dx":0.0185,"nx":115,"ny":88,"refTime":"2024-02-06T06:00:00:Z","depth":0,"parameterNumber":3,"parameterNumberName":"V-component_of_WINDS"},"data":[0.0,0.0,0.0,0.0,0.0,0.0,0.0,0.0,0.0,0.0,0.0,0.0,0.0,0.0,0.0,0.0,0.0,0.0,0.0,0.0,0.0,0.0,0.0,0.0,0.0,0.0,0.0,0.0,0.0,0.0,0.0,0.0,0.0,0.0,0.0,0.0,0.0,0.0,0.0,0.0,0.0,0.0,0.0,0.0,0.0,0.0,0.0,0.0,0.0,0.0,0.0,0.0,0.0,0.0,0.0,0.0,0.0,0.0,0.0,0.0,0.0,0.0,0.0,0.0,0.0,0.0,0.0,0.0,0.0,0.0,0.0,0.0,0.0,0.0,0.0,0.0,0.0,0.0,0.0,0.0,0.0,0.0,0.0,0.0,0.0,0.0,0.0,0.0,0.0,0.0,0.0,0.0,0.0,0.0,0.0,0.0,0.0,0.0,0.0,0.0,0.0,0.0,0.0,0.0,0.0,0.0,0.0,0.0,0.0,0.0,0.0,0.0,0.0,0.0,0.0,0.0,0.0,0.0,0.0,0.0,0.0,0.0,0.0,0.0,0.0,0.0,0.0,0.0,0.0,0.0,0.0,0.0,0.0,0.0,0.0,0.0,0.0,0.0,0.0,0.0,0.0,0.0,0.0,0.0,0.0,0.0,0.0,0.0,0.0,0.0,0.0,0.0,0.0,0.0,0.0,0.0,0.0,0.0,0.0,0.0,0.0,0.0,0.0,0.0,0.0,0.0,0.0,0.0,0.0,0.0,0.0,0.0,0.0,0.0,0.0,0.0,0.0,0.0,0.0,0.0,0.0,0.0,0.0,0.0,0.0,0.0,0.0,0.0,0.0,0.0,0.0,0.0,0.0,0.0,0.0,0.0,0.0,0.0,0.0,0.0,0.0,0.0,0.0,0.0,0.0,0.0,0.0,0.0,0.0,0.0,0.0,0.0,0.0,0.0,0.0,0.0,0.0,0.0,0.0,0.0,0.0,0.0,0.0,0.0,0.0,0.0,0.0,0.0,0.0,0.0,0.0,0.0,0.0,0.0,0.0,0.0,0.0,0.0,0.0,0.0,0.0,0.0,0.0,0.0,0.0,0.0,0.0,0.0,0.0,0.0,0.0,0.0,0.0,0.0,0.0,0.0,0.0,0.0,0.0,0.0,0.0,0.0,0.0,0.0,0.0,0.0,0.0,0.0,0.0,0.0,0.0,0.0,0.0,0.0,0.0,0.0,0.0,0.0,0.0,0.0,0.0,0.0,0.0,0.0,0.0,0.0,0.0,0.0,0.0,0.0,0.0,0.0,0.0,0.0,0.0,0.0,0.0,0.0,0.0,0.0,0.0,0.0,0.0,0.0,0.0,0.0,0.0,0.0,0.0,0.0,0.0,0.0,0.0,0.0,0.0,0.0,0.0,0.0,0.0,0.0,0.0,0.0,0.0,0.0,0.0,0.0,0.0,0.0,0.0,0.0,0.0,0.0,0.0,0.0,0.0,0.0,0.0,0.0,0.0,0.0,0.0,0.0,0.0,0.0,0.0,0.0,0.0,0.0,0.0,0.0,0.0,0.0,0.0,0.0,0.0,0.0,0.0,0.0,0.0,0.0,0.0,0.0,0.0,0.0,0.0,0.0,0.0,0.0,0.0,0.0,0.0,0.0,0.0,0.0,0.0,0.0,0.0,0.0,0.0,0.0,0.0,0.0,0.0,0.0,0.0,0.0,0.0,0.0,0.0,0.0,0.0,0.0,0.0,0.0,0.0,0.0,0.0,0.0,0.0,0.0,0.0,0.0,0.0,0.0,0.0,0.0,0.0,0.0,0.0,0.0,0.0,0.0,0.0,0.0,0.0,0.0,0.0,0.0,0.0,0.0,0.0,0.0,0.0,0.0,0.0,0.0,0.0,0.0,0.0,0.0,0.0,0.0,0.0,0.0,0.0,0.0,0.0,0.0,0.0,0.0,0.0,0.0,0.0,0.0,0.0,0.0,0.0,0.0,0.0,0.0,0.0,0.0,0.0,0.0,0.0,0.0,0.0,0.0,0.0,0.0,0.0,0.0,0.0,0.0,0.0,0.0,0.0,0.0,0.0,0.0,0.0,0.0,0.0,0.0,0.0,0.0,0.0,0.0,0.0,0.0,0.0,0.0,0.0,0.0,0.0,0.0,0.0,0.0,0.0,0.0,0.0,0.0,0.0,0.0,0.0,0.0,0.0,0.0,0.0,0.0,0.0,0.0,0.0,0.0,0.0,0.0,0.0,0.0,0.0,0.0,0.0,0.0,0.0,0.0,0.0,0.0,0.0,0.0,0.0,0.0,0.0,0.0,0.0,0.0,0.0,0.0,0.0,0.0,0.0,0.0,0.0,0.0,0.0,0.0,0.0,0.0,0.0,0.0,0.0,0.0,0.0,0.0,0.0,0.0,0.0,0.0,0.0,0.0,0.0,0.0,0.0,0.0,0.0,0.0,0.0,0.0,0.0,0.0,0.0,0.0,0.0,0.0,0.0,0.0,0.0,0.0,0.0,0.0,0.0,0.0,0.0,0.0,0.0,0.0,0.0,0.0,0.0,0.0,0.0,0.0,0.0,0.0,0.0,0.0,0.0,0.0,0.0,0.0,0.0,0.0,0.0,0.0,0.0,0.0,0.0,0.0,0.0,0.0,0.0,0.0,0.0,0.0,0.0,0.0,0.0,0.0,0.0,0.0,0.0,0.0,0.0,0.0,0.0,0.0,0.0,0.0,0.0,0.0,0.0,0.0,0.0,0.0,0.0,0.0,0.0,0.0,0.0,0.0,0.0,0.0,0.0,0.0,0.0,0.0,0.0,0.0,0.0,0.0,0.0,0.0,0.0,0.0,0.0,0.0,0.0,0.0,0.0,0.0,0.0,0.0,0.0,0.0,0.0,0.0,0.0,0.0,0.0,0.0,0.0,0.0,0.0,0.0,0.0,0.0,0.0,0.0,0.0,0.0,0.0,0.0,0.0,0.0,0.0,0.0,0.0,0.0,0.0,0.0,0.0,0.0,0.0,0.0,0.0,0.0,0.0,0.0,0.0,0.0,0.0,0.0,0.0,0.0,0.0,0.0,0.0,0.0,0.0,0.0,0.0,0.0,0.0,0.0,0.0,0.0,0.0,0.0,0.0,0.0,0.0,0.0,0.0,0.0,0.0,0.0,0.0,0.0,0.0,0.0,0.0,0.0,0.0,0.0,0.0,0.0,0.0,0.0,0.0,0.0,0.0,0.0,0.0,0.0,0.0,0.0,0.0,0.0,0.0,0.0,0.0,0.0,0.0,0.0,0.0,0.0,0.0,0.0,0.0,0.0,0.0,0.0,0.0,0.0,0.0,0.0,0.0,0.0,0.0,0.0,0.0,0.0,0.0,0.0,0.0,0.0,0.0,0.0,0.0,0.0,0.0,0.0,0.0,0.0,0.0,0.0,0.0,0.0,0.0,0.0,0.0,0.0,0.0,0.0,0.0,0.0,0.0,0.0,0.0,0.0,0.0,0.0,0.0,0.0,0.0,0.0,0.0,0.0,0.0,0.0,0.0,0.0,0.0,0.0,0.0,0.0,0.0,0.0,0.0,0.0,0.0,0.0,0.0,0.0,0.0,0.0,0.0,0.0,0.0,0.0,0.0,0.0,0.0,0.0,0.0,0.0,0.0,0.0,0.0,0.0,0.0,0.0,0.0,0.0,0.0,0.0,0.0,0.0,0.0,0.0,0.0,0.0,0.0,0.0,0.0,0.0,0.0,0.0,0.0,0.0,0.0,0.0,0.0,0.0,0.0,0.0,0.0,0.0,0.0,0.0,0.0,0.0,0.0,0.0,0.0,0.0,0.0,0.0,0.0,0.0,0.0,0.0,0.0,0.0,0.0,0.0,0.0,0.0,0.0,0.0,0.0,0.0,0.0,0.0,0.0,0.0,0.0,0.0,0.0,0.0,0.0,0.0,0.0,0.0,0.0,0.0,0.0,0.0,0.0,0.0,0.0,0.0,0.0,0.0,0.0,0.0,0.0,0.0,0.0,0.0,0.0,0.0,0.0,0.0,0.0,0.0,0.0,0.0,0.0,0.0,0.0,0.0,0.0,0.0,0.0,0.0,0.0,0.0,0.0,0.0,0.0,0.0,0.0,0.0,0.0,0.0,0.0,0.0,0.0,0.0,0.0,0.0,0.0,0.0,0.0,0.0,0.0,0.0,0.0,0.0,0.0,0.0,0.0,0.0,0.0,0.0,0.0,0.0,0.0,0.0,0.0,0.0,0.0,0.0,0.0,0.0,0.0,0.0,3.366,0.0,0.0,0.0,0.0,0.0,0.0,0.0,0.0,0.0,0.0,0.0,0.0,0.0,0.0,0.0,0.0,0.0,0.0,0.0,0.0,0.0,0.0,0.0,0.0,0.0,0.0,0.0,0.0,0.0,0.0,0.0,0.0,0.0,0.0,0.0,0.0,0.0,0.0,0.0,0.0,0.0,0.0,0.0,0.0,0.0,0.0,0.0,0.0,0.0,0.0,0.0,0.0,0.0,0.0,0.0,0.0,0.0,0.0,0.0,0.0,0.0,0.0,0.0,0.0,0.0,0.0,0.0,0.0,0.0,0.0,0.0,0.0,0.0,0.0,0.0,0.0,0.0,0.0,0.0,0.0,0.0,0.0,0.0,0.0,0.0,0.0,0.0,0.0,0.0,0.0,0.0,0.0,0.0,0.0,0.0,0.0,0.0,0.0,0.0,0.0,0.0,0.0,0.0,0.0,0.0,0.0,0.0,0.0,0.0,0.0,3.2399,3.2008,3.3153,3.3807,3.3844,0.0,0.0,0.0,0.0,0.0,0.0,0.0,0.0,0.0,0.0,0.0,0.0,0.0,0.0,0.0,0.0,0.0,0.0,0.0,0.0,0.0,0.0,0.0,0.0,0.0,0.0,0.0,0.0,0.0,0.0,0.0,0.0,0.0,0.0,0.0,0.0,0.0,0.0,0.0,0.0,0.0,0.0,0.0,0.0,0.0,0.0,0.0,0.0,0.0,0.0,0.0,0.0,0.0,0.0,0.0,0.0,0.0,0.0,0.0,0.0,0.0,0.0,0.0,0.0,0.0,0.0,0.0,0.0,0.0,0.0,0.0,0.0,0.0,0.0,0.0,0.0,0.0,0.0,0.0,0.0,0.0,0.0,0.0,0.0,0.0,0.0,0.0,0.0,0.0,0.0,0.0,0.0,0.0,0.0,0.0,0.0,0.0,0.0,0.0,0.0,0.0,0.0,0.0,0.0,0.0,0.0,0.0,0.0,0.0,0.0,0.0,0.0,3.3587,3.4595,3.5008,0.0,0.0,0.0,0.0,0.0,0.0,0.0,0.0,0.0,0.0,0.0,0.0,0.0,0.0,0.0,0.0,0.0,0.0,0.0,0.0,0.0,0.0,0.0,0.0,0.0,0.0,0.0,0.0,0.0,0.0,0.0,0.0,0.0,0.0,0.0,0.0,0.0,0.0,0.0,0.0,0.0,0.0,0.0,0.0,0.0,0.0,0.0,0.0,0.0,0.0,0.0,0.0,0.0,0.0,0.0,0.0,0.0,0.0,0.0,0.0,0.0,0.0,0.0,0.0,0.0,0.0,0.0,0.0,0.0,0.0,0.0,0.0,0.0,0.0,0.0,0.0,0.0,0.0,0.0,0.0,0.0,0.0,0.0,0.0,0.0,0.0,0.0,0.0,0.0,0.0,0.0,0.0,0.0,0.0,0.0,0.0,0.0,0.0,0.0,0.0,0.0,0.0,0.0,0.0,0.0,0.0,0.0,0.0,0.0,0.0,3.2522,3.4594,3.5569,0.0,3.8474,0.0,0.0,0.0,0.0,0.0,0.0,0.0,0.0,0.0,0.0,0.0,0.0,0.0,0.0,0.0,0.0,0.0,0.0,0.0,0.0,0.0,0.0,0.0,0.0,0.0,0.0,0.0,0.0,0.0,0.0,0.0,0.0,0.0,0.0,0.0,0.0,0.0,0.0,0.0,0.0,0.0,0.0,0.0,0.0,0.0,0.0,0.0,0.0,0.0,0.0,0.0,0.0,0.0,0.0,0.0,0.0,0.0,0.0,0.0,0.0,0.0,0.0,0.0,0.0,0.0,0.0,0.0,0.0,0.0,0.0,0.0,0.0,0.0,0.0,0.0,0.0,0.0,0.0,0.0,0.0,0.0,0.0,0.0,0.0,0.0,0.0,0.0,0.0,0.0,0.0,0.0,0.0,0.0,0.0,0.0,0.0,0.0,0.0,0.0,0.0,0.0,0.0,0.0,0.0,0.0,0.0,0.0,0.0,0.0,0.0,3.2559,3.4924,3.5984,3.6514,0.0,0.0,0.0,0.0,0.0,0.0,0.0,0.0,0.0,0.0,0.0,0.0,0.0,0.0,0.0,0.0,0.0,0.0,0.0,0.0,0.0,0.0,0.0,0.0,0.0,0.0,0.0,0.0,0.0,0.0,0.0,0.0,0.0,0.0,0.0,0.0,0.0,0.0,0.0,0.0,0.0,0.0,0.0,0.0,0.0,0.0,0.0,0.0,0.0,0.0,0.0,0.0,0.0,0.0,0.0,0.0,0.0,0.0,0.0,0.0,0.0,0.0,0.0,0.0,0.0,0.0,0.0,0.0,0.0,0.0,0.0,0.0,0.0,0.0,0.0,0.0,0.0,0.0,0.0,0.0,0.0,0.0,0.0,0.0,0.0,0.0,0.0,0.0,0.0,0.0,0.0,0.0,0.0,0.0,0.0,0.0,0.0,0.0,0.0,0.0,0.0,0.0,0.0,0.0,0.0,0.0,0.0,0.0,0.0,0.0,3.2357,3.3568,3.6118,3.6478,3.6329,3.5824,0.0,0.0,0.0,0.0,0.0,0.0,0.0,0.0,0.0,0.0,0.0,0.0,0.0,0.0,0.0,0.0,0.0,0.0,0.0,0.0,0.0,0.0,0.0,0.0,0.0,0.0,0.0,0.0,0.0,0.0,0.0,0.0,0.0,0.0,0.0,0.0,0.0,0.0,0.0,0.0,0.0,0.0,0.0,0.0,0.0,0.0,0.0,0.0,0.0,0.0,0.0,0.0,0.0,0.0,0.0,0.0,0.0,0.0,0.0,0.0,0.0,0.0,0.0,0.0,0.0,0.0,0.0,0.0,0.0,0.0,0.0,0.0,0.0,0.0,0.0,0.0,0.0,0.0,0.0,0.0,0.0,0.0,0.0,0.0,0.0,0.0,0.0,0.0,0.0,0.0,0.0,0.0,0.0,0.0,0.0,0.0,0.0,0.0,0.0,0.0,0.0,0.0,0.0,0.0,0.0,0.0,0.0,0.0,3.7639,3.5689,3.6071,3.9131,3.7399,3.6985,0.0,0.0,0.0,0.0,0.0,0.0,0.0,0.0,0.0,0.0,0.0,0.0,0.0,0.0,0.0,0.0,0.0,0.0,0.0,0.0,0.0,0.0,0.0,0.0,0.0,0.0,0.0,0.0,0.0,0.0,0.0,0.0,0.0,0.0,0.0,0.0,0.0,0.0,0.0,0.0,0.0,0.0,0.0,0.0,0.0,0.0,0.0,0.0,0.0,0.0,0.0,0.0,0.0,0.0,0.0,0.0,0.0,0.0,0.0,0.0,0.0,0.0,0.0,0.0,0.0,0.0,0.0,0.0,0.0,0.0,0.0,0.0,0.0,0.0,0.0,0.0,0.0,0.0,0.0,0.0,0.0,0.0,0.0,0.0,0.0,0.0,0.0,0.0,0.0,0.0,0.0,0.0,0.0,0.0,0.0,0.0,0.0,0.0,0.0,0.0,0.0,0.0,0.0,0.0,0.0,0.0,0.0,0.0,0.0,3.4388,3.507,3.6063,3.738,3.7191,3.7181,0.0,0.0,0.0,0.0,0.0,0.0,0.0,0.0,0.0,0.0,0.0,0.0,0.0,0.0,0.0,0.0,0.0,0.0,0.0,0.0,0.0,0.0,0.0,0.0,0.0,0.0,0.0,0.0,0.0,0.0,0.0,0.0,0.0,0.0,0.0,0.0,0.0,0.0,0.0,0.0,0.0,0.0,0.0,0.0,0.0,0.0,0.0,0.0,0.0,0.0,0.0,0.0,0.0,0.0,0.0,0.0,0.0,0.0,0.0,0.0,0.0,0.0,0.0,0.0,0.0,0.0,0.0,0.0,0.0,0.0,0.0,0.0,0.0,0.0,0.0,0.0,0.0,0.0,0.0,0.0,0.0,0.0,0.0,0.0,0.0,0.0,0.0,0.0,0.0,0.0,0.0,0.0,0.0,0.0,0.0,0.0,0.0,0.0,0.0,0.0,0.0,0.0,0.0,0.0,0.0,0.0,0.0,0.0,0.0,3.3726,0.0,3.7195,3.6875,3.708,3.6951,0.0,0.0,0.0,0.0,0.0,0.0,0.0,0.0,0.0,0.0,0.0,0.0,0.0,0.0,0.0,0.0,0.0,0.0,0.0,0.0,0.0,0.0,0.0,0.0,0.0,0.0,0.0,0.0,0.0,0.0,0.0,0.0,0.0,0.0,0.0,0.0,0.0,0.0,0.0,0.0,0.0,0.0,0.0,0.0,0.0,0.0,0.0,0.0,0.0,0.0,0.0,0.0,0.0,0.0,0.0,0.0,0.0,0.0,0.0,0.0,0.0,0.0,0.0,0.0,0.0,0.0,0.0,0.0,0.0,0.0,0.0,0.0,0.0,0.0,0.0,0.0,0.0,0.0,0.0,0.0,0.0,0.0,0.0,0.0,0.0,0.0,0.0,0.0,0.0,0.0,0.0,0.0,0.0,0.0,0.0,0.0,0.0,0.0,0.0,0.0,0.0,0.0,0.0,0.0,0.0,0.0,0.0,0.0,3.5003,3.665,3.8996,3.9412,3.8081,3.7189,3.6381,0.0,0.0,0.0,0.0,0.0,0.0,0.0,0.0,0.0,0.0,0.0,0.0,0.0,0.0,0.0,0.0,0.0,0.0,0.0,0.0,0.0,0.0,0.0,0.0,0.0,0.0,0.0,0.0,0.0,0.0,0.0,0.0,0.0,0.0,0.0,0.0,0.0,0.0,0.0,0.0,0.0,0.0,0.0,0.0,0.0,0.0,0.0,0.0,0.0,0.0,0.0,0.0,0.0,0.0,0.0,0.0,0.0,0.0,0.0,0.0,0.0,0.0,0.0,0.0,0.0,0.0,0.0,0.0,0.0,0.0,0.0,0.0,0.0,0.0,0.0,0.0,0.0,0.0,0.0,0.0,0.0,0.0,0.0,0.0,0.0,0.0,0.0,0.0,0.0,0.0,0.0,0.0,0.0,0.0,0.0,0.0,0.0,0.0,0.0,0.0,0.0,0.0,0.0,0.0,0.0,0.0,0.0,0.0,0.0,3.6696,3.6927,3.793,3.955,3.7777,3.7427,0.0,0.0,0.0,0.0,0.0,0.0,0.0,0.0,0.0,0.0,0.0,0.0,0.0,0.0,0.0,0.0,0.0,0.0,0.0,0.0,0.0,0.0,0.0,0.0,0.0,0.0,0.0,0.0,0.0,0.0,0.0,0.0,0.0,0.0,0.0,0.0,0.0,0.0,0.0,0.0,0.0,0.0,0.0,0.0,0.0,0.0,0.0,0.0,0.0,0.0,0.0,0.0,0.0,0.0,0.0,0.0,0.0,0.0,0.0,0.0,0.0,0.0,0.0,0.0,0.0,0.0,0.0,0.0,0.0,0.0,0.0,0.0,0.0,0.0,0.0,0.0,0.0,0.0,0.0,0.0,0.0,0.0,0.0,0.0,0.0,0.0,0.0,0.0,0.0,0.0,0.0,0.0,0.0,0.0,0.0,0.0,0.0,0.0,0.0,0.0,0.0,0.0,0.0,0.0,0.0,0.0,0.0,0.0,0.0,3.8123,3.7619,3.82,4.0015,3.8777,3.8584,3.9473,0.0,0.0,0.0,0.0,0.0,0.0,0.0,0.0,0.0,0.0,0.0,0.0,0.0,0.0,0.0,0.0,0.0,0.0,0.0,0.0,0.0,0.0,0.0,0.0,0.0,0.0,0.0,0.0,0.0,0.0,0.0,0.0,0.0,0.0,0.0,0.0,0.0,0.0,0.0,0.0,0.0,0.0,0.0,0.0,0.0,0.0,0.0,0.0,0.0,0.0,0.0,0.0,0.0,0.0,0.0,0.0,0.0,0.0,0.0,0.0,0.0,0.0,0.0,0.0,0.0,0.0,0.0,0.0,0.0,0.0,0.0,0.0,0.0,0.0,0.0,0.0,0.0,0.0,0.0,0.0,0.0,0.0,0.0,0.0,0.0,0.0,0.0,0.0,0.0,0.0,0.0,0.0,0.0,0.0,0.0,0.0,0.0,0.0,0.0,0.0,0.0,0.0,0.0,0.0,0.0,0.0,0.0,0.0,4.0554,4.0627,4.0323,3.9665,4.0169,3.9819,0.0,0.0,0.0,0.0,0.0,0.0,0.0,0.0,0.0,0.0,0.0,0.0,0.0,0.0,0.0,0.0,0.0,0.0,0.0,0.0,0.0,0.0,0.0,0.0,0.0,0.0,0.0,0.0,0.0,0.0,0.0,0.0,0.0,0.0,0.0,0.0,0.0,0.0,0.0,0.0,0.0,0.0,0.0,0.0,0.0,0.0,0.0,0.0,0.0,0.0,0.0,0.0,0.0,0.0,0.0,0.0,0.0,0.0,0.0,0.0,0.0,0.0,0.0,0.0,0.0,0.0,0.0,0.0,0.0,0.0,0.0,0.0,0.0,0.0,0.0,0.0,0.0,0.0,0.0,0.0,0.0,0.0,0.0,0.0,0.0,0.0,0.0,0.0,0.0,0.0,0.0,0.0,0.0,0.0,0.0,0.0,0.0,0.0,0.0,0.0,0.0,0.0,0.0,0.0,0.0,0.0,0.0,0.0,0.0,4.1427,4.2085,4.2585,4.2935,4.1358,4.0896,0.0,0.0,0.0,0.0,0.0,0.0,0.0,0.0,0.0,0.0,0.0,0.0,0.0,0.0,0.0,0.0,0.0,0.0,0.0,0.0,0.0,0.0,0.0,0.0,0.0,0.0,0.0,0.0,0.0,0.0,0.0,0.0,0.0,0.0,0.0,0.0,0.0,0.0,0.0,0.0,0.0,0.0,0.0,0.0,0.0,0.0,0.0,0.0,0.0,0.0,0.0,0.0,0.0,0.0,0.0,0.0,0.0,0.0,0.0,0.0,0.0,0.0,0.0,0.0,0.0,0.0,0.0,0.0,0.0,0.0,0.0,0.0,0.0,0.0,0.0,0.0,0.0,0.0,0.0,0.0,0.0,0.0,0.0,0.0,0.0,0.0,0.0,0.0,0.0,0.0,0.0,0.0,0.0,0.0,0.0,0.0,0.0,0.0,0.0,0.0,0.0,0.0,0.0,0.0,0.0,0.0,0.0,0.0,4.17,4.3355,4.3893,4.4739,4.5893,4.4162,4.297,0.0,0.0,0.0,0.0,0.0,0.0,0.0,0.0,0.0,0.0,0.0,0.0,0.0,0.0,0.0,0.0,0.0,0.0,0.0,0.0,0.0,0.0,0.0,0.0,0.0,0.0,0.0,0.0,0.0,0.0,0.0,0.0,0.0,0.0,0.0,0.0,0.0,0.0,0.0,0.0,0.0,0.0,0.0,0.0,0.0,0.0,0.0,0.0,0.0,0.0,0.0,0.0,0.0,0.0,0.0,0.0,0.0,0.0,0.0,0.0,0.0,0.0,0.0,0.0,0.0,0.0,0.0,0.0,0.0,0.0,0.0,0.0,0.0,0.0,0.0,0.0,0.0,0.0,0.0,0.0,0.0,0.0,0.0,0.0,0.0,0.0,0.0,0.0,0.0,0.0,0.0,0.0,0.0,0.0,0.0,0.0,0.0,0.0,0.0,0.0,0.0,0.0,0.0,0.0,0.0,0.0,0.0,0.0,4.4013,4.5552,4.5782,4.6547,4.7894,4.712,4.5235,0.0,0.0,0.0,0.0,0.0,0.0,0.0,0.0,0.0,0.0,0.0,0.0,0.0,0.0,0.0,0.0,0.0,0.0,0.0,0.0,0.0,0.0,0.0,0.0,0.0,0.0,0.0,0.0,0.0,0.0,0.0,0.0,0.0,0.0,0.0,0.0,0.0,0.0,0.0,0.0,0.0,0.0,0.0,0.0,0.0,0.0,0.0,0.0,0.0,0.0,0.0,0.0,0.0,0.0,0.0,0.0,0.0,0.0,0.0,0.0,0.0,0.0,0.0,0.0,0.0,0.0,0.0,0.0,0.0,0.0,0.0,0.0,0.0,0.0,0.0,0.0,0.0,0.0,0.0,0.0,0.0,0.0,0.0,0.0,0.0,0.0,0.0,0.0,0.0,0.0,0.0,0.0,0.0,0.0,0.0,0.0,0.0,0.0,0.0,0.0,0.0,0.0,0.0,0.0,0.0,0.0,0.0,0.0,4.4551,4.5594,4.6898,4.7428,4.7158,4.5663,4.4816,0.0,0.0,0.0,0.0,0.0,0.0,0.0,0.0,0.0,0.0,0.0,0.0,0.0,0.0,0.0,0.0,0.0,0.0,0.0,0.0,0.0,0.0,0.0,0.0,0.0,0.0,0.0,0.0,0.0,0.0,0.0,0.0,0.0,0.0,0.0,0.0,0.0,0.0,0.0,0.0,0.0,0.0,0.0,0.0,0.0,0.0,0.0,0.0,4.207,0.0,0.0,0.0,0.0,0.0,0.0,0.0,0.0,0.0,0.0,0.0,0.0,0.0,0.0,0.0,0.0,0.0,0.0,0.0,0.0,0.0,0.0,0.0,0.0,0.0,0.0,0.0,0.0,0.0,0.0,0.0,0.0,0.0,0.0,0.0,0.0,0.0,0.0,0.0,0.0,0.0,0.0,0.0,0.0,0.0,0.0,0.0,0.0,0.0,0.0,0.0,0.0,0.0,0.0,0.0,0.0,0.0,0.0,0.0,4.5513,4.674,4.7278,4.7505,4.7428,4.5821,4.4936,0.0,0.0,0.0,0.0,0.0,0.0,0.0,0.0,0.0,0.0,0.0,0.0,0.0,0.0,0.0,0.0,0.0,0.0,0.0,0.0,0.0,0.0,0.0,0.0,0.0,0.0,0.0,0.0,0.0,0.0,0.0,0.0,0.0,0.0,0.0,0.0,0.0,0.0,0.0,0.0,0.0,0.0,0.0,0.0,0.0,0.0,0.0,0.0,0.0,0.0,0.0,0.0,0.0,0.0,0.0,0.0,0.0,0.0,0.0,0.0,0.0,0.0,0.0,0.0,0.0,0.0,0.0,0.0,0.0,0.0,0.0,0.0,0.0,0.0,0.0,0.0,0.0,0.0,0.0,0.0,0.0,0.0,0.0,0.0,0.0,0.0,0.0,0.0,0.0,0.0,0.0,0.0,0.0,0.0,0.0,0.0,0.0,0.0,0.0,0.0,0.0,0.0,0.0,0.0,0.0,0.0,0.0,4.5282,4.6475,4.8202,4.762,4.7543,4.8086,4.6629,4.5398,4.4551,0.0,0.0,0.0,0.0,0.0,0.0,0.0,0.0,0.0,0.0,0.0,0.0,0.0,0.0,0.0,0.0,0.0,0.0,0.0,0.0,0.0,0.0,0.0,0.0,0.0,0.0,0.0,0.0,0.0,0.0,0.0,0.0,0.0,0.0,0.0,0.0,0.0,0.0,4.1793,4.3945,0.0,0.0,0.0,0.0,0.0,0.0,0.0,0.0,4.3711,0.0,0.0,0.0,0.0,0.0,0.0,0.0,0.0,0.0,0.0,0.0,0.0,0.0,0.0,0.0,0.0,0.0,0.0,0.0,0.0,0.0,0.0,0.0,0.0,0.0,0.0,0.0,0.0,0.0,0.0,0.0,0.0,0.0,0.0,0.0,0.0,0.0,0.0,0.0,0.0,0.0,0.0,0.0,0.0,0.0,0.0,0.0,0.0,0.0,0.0,0.0,0.0,0.0,0.0,0.0,0.0,4.6389,4.5898,4.6783,4.9086,4.9048,4.8702,4.8125,4.7158,4.6278,4.5436,0.0,0.0,0.0,0.0,0.0,0.0,0.0,0.0,0.0,0.0,0.0,0.0,0.0,0.0,0.0,0.0,0.0,0.0,0.0,0.0,0.0,0.0,0.0,0.0,0.0,0.0,0.0,0.0,0.0,0.0,0.0,0.0,0.0,0.0,0.0,0.0,0.0,0.0,0.0,4.6363,4.7226,0.0,0.0,0.0,0.0,0.0,0.0,0.0,0.0,4.2773,0.0,0.0,0.0,0.0,0.0,0.0,0.0,0.0,0.0,0.0,0.0,0.0,0.0,0.0,0.0,0.0,0.0,0.0,0.0,0.0,0.0,0.0,0.0,0.0,0.0,0.0,0.0,0.0,0.0,0.0,0.0,0.0,0.0,0.0,0.0,0.0,0.0,0.0,0.0,0.0,0.0,0.0,0.0,0.0,0.0,0.0,0.0,0.0,0.0,0.0,0.0,0.0,0.0,0.0,0.0,4.5647,4.6572,4.7603,4.8792,4.8761,4.8317,4.7505,4.624,4.5547,0.0,0.0,0.0,0.0,0.0,0.0,0.0,0.0,0.0,0.0,0.0,0.0,0.0,0.0,0.0,0.0,0.0,0.0,0.0,0.0,0.0,0.0,0.0,0.0,0.0,0.0,0.0,0.0,0.0,0.0,0.0,0.0,0.0,0.0,0.0,0.0,0.0,0.0,0.0,0.0,4.7108,4.793,4.7031,0.0,0.0,0.0,0.0,0.0,0.0,4.3984,4.375,0.0,0.0,0.0,0.0,0.0,0.0,0.0,0.0,0.0,0.0,0.0,0.0,0.0,0.0,0.0,0.0,0.0,0.0,0.0,0.0,0.0,0.0,0.0,0.0,0.0,0.0,0.0,0.0,0.0,0.0,0.0,0.0,0.0,0.0,0.0,0.0,0.0,0.0,0.0,0.0,0.0,0.0,0.0,0.0,0.0,0.0,0.0,0.0,0.0,0.0,0.0,0.0,0.0,0.0,0.0,4.4971,4.7006,4.8335,4.8835,4.8427,4.788,4.7228,4.5372,4.4793,0.0,0.0,0.0,0.0,0.0,0.0,0.0,0.0,0.0,0.0,0.0,0.0,0.0,0.0,0.0,0.0,0.0,0.0,0.0,0.0,0.0,0.0,0.0,0.0,0.0,0.0,0.0,0.0,0.0,0.0,0.0,0.0,0.0,0.0,0.0,0.0,0.0,0.0,0.0,0.0,0.0,4.875,4.707,4.7266,0.0,0.0,0.0,0.0,4.5469,4.582,0.0,0.0,0.0,0.0,0.0,0.0,0.0,0.0,0.0,0.0,0.0,0.0,0.0,0.0,0.0,0.0,0.0,0.0,0.0,0.0,0.0,0.0,0.0,0.0,0.0,0.0,0.0,0.0,0.0,0.0,0.0,0.0,0.0,0.0,0.0,0.0,0.0,0.0,0.0,0.0,0.0,0.0,0.0,0.0,0.0,0.0,0.0,0.0,0.0,0.0,0.0,0.0,0.0,0.0,0.0,0.0,4.5685,4.6806,4.8431,5.0563,4.9228,4.8406,4.829,4.5949,4.5016,0.0,0.0,0.0,0.0,0.0,0.0,0.0,0.0,0.0,0.0,0.0,0.0,0.0,0.0,0.0,0.0,0.0,0.0,0.0,0.0,0.0,0.0,0.0,0.0,0.0,0.0,0.0,0.0,0.0,0.0,0.0,0.0,0.0,0.0,0.0,0.0,0.0,0.0,0.0,0.0,0.0,5.0508,4.8828,4.8008,4.75,0.0,0.0,0.0,4.7187,4.8594,0.0,0.0,0.0,0.0,0.0,0.0,0.0,0.0,0.0,0.0,0.0,0.0,0.0,0.0,0.0,0.0,0.0,0.0,0.0,0.0,0.0,0.0,0.0,0.0,0.0,0.0,0.0,0.0,0.0,0.0,0.0,0.0,0.0,0.0,0.0,0.0,0.0,0.0,0.0,0.0,0.0,0.0,0.0,0.0,0.0,0.0,0.0,0.0,0.0,0.0,0.0,0.0,0.0,0.0,0.0,4.3768,4.5395,4.7158,4.8849,5.0366,4.9186,4.8489,4.8489,4.5568,4.4554,0.0,0.0,0.0,0.0,0.0,0.0,0.0,0.0,0.0,0.0,0.0,0.0,0.0,0.0,0.0,0.0,0.0,0.0,0.0,0.0,0.0,0.0,0.0,0.0,0.0,0.0,0.0,0.0,0.0,0.0,0.0,0.0,0.0,0.0,0.0,0.0,0.0,0.0,0.0,0.0,0.0,0.0,4.918,5.0234,0.0,0.0,0.0,4.9297,4.9687,0.0,0.0,0.0,0.0,0.0,0.0,0.0,0.0,0.0,0.0,0.0,0.0,0.0,0.0,0.0,0.0,0.0,0.0,0.0,0.0,0.0,0.0,0.0,0.0,0.0,0.0,0.0,0.0,0.0,0.0,0.0,0.0,0.0,0.0,0.0,0.0,0.0,0.0,0.0,0.0,0.0,0.0,0.0,0.0,0.0,0.0,0.0,0.0,0.0,0.0,0.0,0.0,0.0,0.0,0.0,0.0,0.0,4.5312,4.7566,4.9152,4.9971,4.9109,4.8491,4.8218,4.5137,0.0,0.0,0.0,0.0,0.0,0.0,0.0,0.0,0.0,0.0,0.0,0.0,0.0,0.0,0.0,0.0,0.0,0.0,0.0,0.0,0.0,0.0,0.0,0.0,0.0,0.0,0.0,3.8437,0.0,0.0,0.0,0.0,0.0,0.0,0.0,0.0,0.0,0.0,0.0,0.0,0.0,0.0,5.1992,5.0076,5.2382,5.375,0.0,0.0,5.2305,5.207,5.2305,5.1406,0.0,0.0,0.0,0.0,0.0,0.0,0.0,0.0,0.0,0.0,0.0,0.0,0.0,0.0,0.0,0.0,0.0,0.0,0.0,0.0,0.0,0.0,0.0,0.0,0.0,0.0,0.0,0.0,0.0,0.0,0.0,0.0,0.0,0.0,0.0,0.0,0.0,0.0,0.0,0.0,0.0,0.0,0.0,0.0,0.0,0.0,0.0,0.0,0.0,0.0,0.0,0.0,0.0,0.0,0.0,4.6211,4.7969,4.9297,5.0117,4.9335,4.8476,4.7655,4.5078,4.4492,0.0,0.0,0.0,0.0,0.0,0.0,0.0,0.0,0.0,0.0,0.0,0.0,0.0,0.0,0.0,0.0,0.0,0.0,0.0,0.0,0.0,0.0,0.0,0.0,0.0,0.0,0.0,0.0,0.0,0.0,0.0,0.0,0.0,0.0,0.0,0.0,0.0,0.0,0.0,0.0,0.0,5.2575,5.2311,5.3938,5.543,0.0,0.0,5.4765,5.3984,5.6484,5.6326,4.9699,0.0,0.0,0.0,0.0,0.0,0.0,0.0,0.0,0.0,0.0,0.0,0.0,0.0,0.0,0.0,0.0,0.0,0.0,0.0,0.0,0.0,0.0,0.0,0.0,0.0,0.0,0.0,0.0,0.0,0.0,0.0,0.0,0.0,0.0,0.0,0.0,0.0,0.0,0.0,0.0,0.0,0.0,0.0,0.0,0.0,0.0,0.0,0.0,0.0,0.0,0.0,0.0,0.0,4.5078,4.6289,4.75,4.8516,4.9297,4.8555,4.793,4.7617,4.5586,4.4805,0.0,0.0,0.0,0.0,0.0,0.0,0.0,0.0,0.0,0.0,0.0,0.0,0.0,0.0,0.0,0.0,0.0,0.0,0.0,0.0,0.0,0.0,0.0,0.0,0.0,0.0,0.0,0.0,4.0391,4.0859,4.1172,0.0,0.0,0.0,0.0,0.0,0.0,0.0,0.0,0.0,0.0,5.3637,5.4746,5.6409,0.0,0.0,5.7578,5.7578,5.7265,5.6441,5.4591,5.0901,4.8871,0.0,0.0,0.0,0.0,0.0,0.0,0.0,0.0,0.0,0.0,0.0,0.0,0.0,0.0,0.0,0.0,0.0,0.0,0.0,0.0,0.0,0.0,0.0,0.0,0.0,0.0,0.0,0.0,0.0,0.0,0.0,0.0,0.0,0.0,0.0,0.0,0.0,0.0,0.0,0.0,0.0,0.0,0.0,0.0,0.0,0.0,0.0,0.0,0.0,0.0,0.0,0.0,4.5547,4.668,4.7305,4.8008,4.8867,4.8047,4.7461,4.7187,4.5781,4.5117,0.0,0.0,0.0,0.0,0.0,0.0,0.0,0.0,0.0,0.0,0.0,0.0,0.0,0.0,0.0,0.0,0.0,0.0,0.0,0.0,0.0,0.0,0.0,0.0,0.0,0.0,0.0,0.0,4.0859,4.1211,4.1211,0.0,0.0,0.0,0.0,0.0,0.0,0.0,0.0,0.0,0.0,5.4881,5.6448,5.8119,5.9063,5.8607,5.8808,5.8965,5.8692,5.675,5.426,5.1336,0.0,0.0,0.0,0.0,0.0,0.0,0.0,0.0,0.0,0.0,0.0,0.0,0.0,0.0,0.0,0.0,0.0,0.0,0.0,0.0,0.0,0.0,0.0,0.0,0.0,0.0,0.0,0.0,0.0,0.0,0.0,0.0,0.0,0.0,0.0,0.0,0.0,0.0,0.0,0.0,0.0,0.0,0.0,0.0,0.0,0.0,0.0,0.0,0.0,0.0,0.0,0.0,0.0,0.0,4.75,4.7578,4.8008,4.8828,4.8047,4.7187,4.6367,4.5469,4.5391,4.625,0.0,0.0,0.0,0.0,0.0,0.0,0.0,0.0,0.0,0.0,0.0,0.0,0.0,0.0,0.0,0.0,0.0,0.0,0.0,0.0,0.0,0.0,0.0,0.0,0.0,0.0,4.1133,4.1172,4.1211,0.0,0.0,0.0,0.0,0.0,0.0,0.0,0.0,0.0,0.0,5.3353,5.6317,5.7106,5.8781,5.9936,5.9958,5.9293,5.847,5.7666,5.8039,5.6589,0.0,0.0,0.0,0.0,0.0,0.0,0.0,0.0,0.0,0.0,0.0,0.0,0.0,0.0,0.0,0.0,0.0,0.0,0.0,0.0,0.0,0.0,0.0,0.0,0.0,0.0,0.0,0.0,4.6289,0.0,0.0,0.0,0.0,0.0,0.0,0.0,0.0,0.0,0.0,0.0,4.6245,4.6289,0.0,0.0,0.0,0.0,0.0,0.0,0.0,0.0,0.0,0.0,0.0,0.0,4.6445,4.75,4.7031,4.7148,4.7969,4.7187,4.6601,4.6289,4.6016,4.6016,4.6289,0.0,0.0,0.0,0.0,0.0,0.0,0.0,0.0,0.0,0.0,0.0,0.0,0.0,0.0,0.0,0.0,0.0,0.0,0.0,0.0,0.0,0.0,0.0,0.0,0.0,4.1211,0.0,0.0,0.0,0.0,0.0,0.0,0.0,0.0,0.0,0.0,0.0,4.948,5.2487,5.4587,5.657,5.8635,5.9555,6.0238,0.0,0.0,0.0,0.0,0.0,0.0,0.0,0.0,0.0,0.0,0.0,0.0,0.0,0.0,5.9858,5.4236,5.2505,5.201,5.2318,0.0,0.0,0.0,0.0,0.0,0.0,0.0,0.0,0.0,0.0,0.0,0.0,0.0,0.0,0.0,0.0,4.6289,0.0,0.0,0.0,0.0,0.0,0.0,0.0,0.0,4.6758,4.6914,4.7187,4.7187,4.7187,0.0,4.7226,4.7031,0.0,0.0,0.0,0.0,0.0,0.0,0.0,0.0,4.7187,4.7969,4.75,4.75,4.7969,4.7226,4.6601,4.6328,4.6289,4.6289,4.6289,4.5742,4.5469,0.0,0.0,0.0,0.0,0.0,0.0,0.0,0.0,0.0,0.0,0.0,0.0,0.0,0.0,0.0,0.0,0.0,0.0,0.0,0.0,0.0,0.0,0.0,4.207,0.0,0.0,0.0,0.0,0.0,0.0,0.0,0.0,0.0,4.8021,4.9501,5.1873,5.5422,5.6636,5.7947,6.0026,0.0,0.0,0.0,0.0,0.0,0.0,0.0,5.8081,5.704,5.6871,5.6791,5.6686,5.9704,6.2127,6.2095,0.0,0.0,5.8627,5.6896,5.6357,5.6659,5.6472,5.6395,5.7016,5.7324,5.7319,0.0,0.0,0.0,0.0,0.0,0.0,0.0,0.0,4.6367,4.6367,0.0,4.6328,0.0,0.0,0.0,0.0,0.0,0.0,0.0,0.0,4.7695,4.8164,4.8945,4.8984,4.8984,4.8984,4.8945,4.8516,4.7695,4.6836,0.0,0.0,0.0,0.0,0.0,0.0,4.8047,4.8828,4.8828,4.8906,4.8867,4.8047,4.7187,4.6328,4.6289,4.6289,4.6289,4.6289,4.6289,4.6289,4.6289,0.0,0.0,0.0,0.0,0.0,0.0,0.0,0.0,0.0,0.0,0.0,0.0,0.0,0.0,0.0,0.0,0.0,0.0,0.0,0.0,4.3711,0.0,0.0,0.0,0.0,0.0,0.0,0.0,0.0,0.0,0.0,5.0164,5.277,5.5703,5.818,0.0,0.0,0.0,0.0,6.134,6.1476,6.1442,6.145,6.1456,6.2112,6.1747,5.9192,0.0,0.0,6.1416,6.3166,6.432,6.2787,6.4673,6.6051,6.5974,6.3672,6.2326,6.2968,6.1314,6.0435,6.1749,6.1633,6.1133,4.8516,0.0,0.0,0.0,0.0,4.6953,4.7226,4.7226,4.7226,4.7226,4.7187,4.6562,0.0,0.0,0.0,0.0,0.0,0.0,4.8047,4.9414,4.9453,4.9922,5.0664,5.0703,5.0703,5.0664,5.0117,4.9687,4.9414,4.8594,4.7539,4.6328,0.0,0.0,0.0,0.0,4.8008,4.8828,4.8906,4.8906,4.8906,4.8047,4.7187,4.6328,4.6289,4.6289,4.6289,4.6289,4.6289,4.6289,4.6289,0.0,0.0,0.0,0.0,0.0,0.0,0.0,0.0,0.0,0.0,0.0,0.0,0.0,0.0,0.0,0.0,0.0,0.0,0.0,4.3711,4.3711,4.3945,0.0,0.0,0.0,0.0,0.0,0.0,0.0,0.0,0.0,5.67,5.6816,5.7403,0.0,0.0,6.0567,6.2018,6.1779,6.2097,6.3934,0.0,0.0,0.0,6.4411,6.4261,6.3355,6.4939,6.6655,6.7802,6.8129,6.8475,6.9058,6.9405,6.9475,6.9283,6.6936,6.5051,6.5089,6.4974,6.5051,6.5519,6.5897,6.6013,5.082,4.832,4.832,4.832,4.8359,4.8867,4.8906,4.8633,4.8633,4.8437,4.8086,4.7539,4.7305,4.7344,4.7305,0.0,0.0,0.0,4.957,5.1211,5.1211,5.1641,5.2383,5.2422,5.2422,5.2422,5.1953,5.1523,5.1172,5.0664,4.9531,4.7891,0.0,0.0,4.7383,4.8203,4.8867,4.9414,4.9726,4.9726,4.9414,4.8242,4.7187,4.6328,4.6289,4.6289,4.6289,4.6289,4.6289,4.6289,4.6289,4.6289,0.0,0.0,0.0,0.0,0.0,0.0,0.0,0.0,0.0,0.0,0.0,4.4219,0.0,0.0,0.0,0.0,4.4531,4.4726,4.4642,4.4999,0.0,0.0,0.0,0.0,0.0,0.0,0.0,5.2539,5.5219,5.7814,5.9841,6.0185,6.0661,6.1985,6.1894,6.2228,6.3597,0.0,6.3302,6.5215,6.5543,6.5702,6.5963,6.6311,6.6635,6.7067,6.8108,6.9241,7.0542,7.0475,7.0552,7.136,7.1245,7.0898,7.0898,6.9206,6.7898,6.7898,6.825,6.8597,6.8597,6.9013,6.9161,5.3437,5.1914,5.1914,5.1719,5.1406,5.1484,5.1094,5.043,5.0391,4.9961,4.9219,4.9141,4.9101,4.9101,4.9101,0.0,0.0,5.0391,5.1289,5.293,5.2891,5.3359,5.418,5.418,5.4219,5.4219,5.4141,5.3711,5.293,5.2812,5.2031,5.0508,4.9687,4.918,4.8945,4.9805,5.0273,5.0195,5.0976,5.1016,5.0195,4.8516,4.7226,4.6445,4.6328,4.6289,4.6289,4.6289,4.6289,4.6289,4.6289,4.6289,4.6289,0.0,0.0,0.0,0.0,0.0,0.0,0.0,0.0,0.0,0.0,0.0,0.0,0.0,0.0,0.0,4.582,0.0,4.6139,4.7064,0.0,0.0,0.0,5.0466,5.0323,5.2581,5.4396,5.5069,0.0,0.0,0.0,0.0,6.4489,6.5312,6.4757,6.4648,6.5547,6.4922,6.4726,6.5742,6.582,6.6133,6.7031,6.7851,6.8655,6.955,7.0654,7.0898,7.0876,7.0744,7.0783,7.1091,7.0975,7.0898,7.0898,7.0706,7.0821,7.0706,7.0783,7.0783,7.0475,7.0475,7.0321,5.7344,5.6367,5.6367,5.4453,5.1484,5.2109,5.2266,5.2109,5.2109,5.1992,5.1758,5.1094,5.082,5.082,5.082,5.1289,5.2109,5.2109,5.3047,5.4648,5.4687,5.5156,5.5937,5.5976,5.5976,5.5937,5.5312,5.4883,5.4648,5.4023,5.3476,5.3125,5.2891,5.1484,4.9062,5.0391,5.082,5.0195,5.0976,5.1016,5.0195,4.8476,4.75,4.7305,4.6641,4.6289,4.6289,4.6289,4.6289,4.6289,4.6289,4.6289,4.6289,4.6289,0.0,0.0,0.0,0.0,0.0,0.0,0.0,0.0,0.0,4.5273,4.5937,0.0,4.5273,0.0,4.6172,4.6289,4.6287,4.7656,0.0,0.0,5.1562,5.3086,5.3084,5.5349,5.6988,5.7179,5.9058,6.0896,6.2185,6.289,6.3867,6.531,6.4844,6.4844,6.6289,6.5859,6.5859,6.7187,6.7461,6.789,6.8594,6.9531,6.983,6.9281,6.9894,7.0516,7.0851,7.036,7.036,7.1514,7.1321,7.0975,7.086,7.0437,7.0283,7.0744,7.0898,7.0475,6.9276,6.9545,6.9744,5.9258,5.8476,5.8476,5.707,5.4844,5.457,5.4219,5.3867,5.3867,5.3633,5.3242,5.2773,5.2578,5.2578,5.2578,5.3047,5.3828,5.3867,5.457,5.5859,5.5859,5.6133,5.6601,5.6601,5.6601,5.6601,5.6094,5.5898,5.5859,5.539,5.4961,5.4609,5.4961,5.3828,5.1289,5.1719,5.1758,5.1328,5.1367,5.1016,5.0195,4.8867,4.7969,4.7617,4.6758,4.6289,4.6289,4.6289,4.6289,4.6289,4.6289,4.6289,4.6289,4.6289,4.6289,0.0,0.0,0.0,0.0,0.0,0.0,0.0,0.0,0.0,0.0,0.0,4.5937,0.0,0.0,0.0,4.8008,4.9922,5.1211,5.1328,5.3984,5.5742,5.5742,5.7656,5.918,5.957,6.0742,6.207,6.3398,6.3906,6.4648,6.5976,6.5781,6.5781,6.6601,6.6484,6.6523,6.7461,6.7617,6.793,6.875,6.9258,6.9484,6.9181,6.9359,6.9675,6.9849,6.9451,6.9436,7.0244,7.0129,6.9783,6.9783,6.9436,6.9206,6.9167,6.9513,6.9706,6.9552,6.9584,6.9513,6.0117,5.9375,5.9336,5.9219,5.8945,5.7539,5.6445,5.5625,5.5508,5.5039,5.4336,5.4336,5.4336,5.4336,5.4336,5.4726,5.5469,5.5469,5.5898,5.6601,5.6601,5.6601,5.6601,5.6601,5.6601,5.6601,5.6601,5.6601,5.6601,5.6601,5.6211,5.5547,5.6211,5.582,5.4375,5.3476,5.2851,5.2539,5.1875,5.1211,5.0508,4.957,4.8711,4.793,4.6875,4.6289,4.6289,4.6289,4.6289,4.6289,4.6289,4.6289,4.6289,4.6289,4.6289,0.0,4.6289,0.0,0.0,0.0,0.0,0.0,0.0,0.0,0.0,4.6641,4.7109,4.7851,4.8711,4.9531,5.0273,5.2656,5.3867,5.3242,5.6133,5.8242,5.8281,5.9609,6.0859,6.164,6.2383,6.3125,6.3789,6.4648,6.539,6.6015,6.6055,6.6094,6.6523,6.668,6.6875,6.6914,6.6914,6.7265,6.789,6.8164,6.8395,6.8772,6.8782,6.8659,6.853,6.8328,6.8276,6.843,6.8545,6.8468,6.8391,6.8353,6.8052,6.7628,6.7975,6.8667,6.9552,6.9513,6.936,6.0976,6.0195,6.0156,5.9414,5.8164,5.8555,5.8203,5.7344,5.664,5.625,5.6133,5.6133,5.6094,5.6094,5.6094,5.6211,5.6367,5.6367,5.6445,5.6601,5.6601,5.6601,5.6601,5.6601,5.6601,5.6601,5.6601,5.6601,5.6601,5.6601,5.6523,5.6367,5.6523,5.6445,0.0,0.0,0.0,0.0,5.2187,5.2383,5.2187,5.0742,4.9883,4.9648,4.75,0.0,4.6289,4.6289,4.6289,4.6289,4.6289,0.0,0.0,0.0,0.0,0.0,0.0,0.0,0.0,0.0,0.0,0.0,4.8008,4.8125,4.7461,4.8633,4.9531,4.9726,5.043,5.0976,5.1172,5.3516,5.5,5.4961,5.789,5.9922,5.9961,6.082,6.1523,6.168,6.1875,6.1992,6.2265,6.2344,6.2812,6.3789,6.375,6.4023,6.4765,6.5976,6.6836,6.6875,6.6797,6.6914,6.7109,6.7695,6.7848,6.741,6.7621,6.7811,6.7672,6.7464,6.7635,6.8122,6.8391,6.8353,6.8314,6.7859,6.7475,6.8045,6.7705,6.725,6.6936,6.7282,6.7398,6.1445,0.0,6.0586,6.0156,0.0,5.9375,5.918,5.9023,5.7773,5.6992,5.6601,5.6601,5.6601,5.6601,5.6601,5.6601,5.6601,5.6601,5.6601,5.6601,5.6601,5.6601,5.6601,5.6601,5.6601,5.6601,5.6601,5.6601,5.6601,5.6601,5.6601,5.6601,5.6601,5.6601,5.6562,5.5742,5.4453,5.2695,5.2695,5.2695,5.2617,5.1055,5.0,4.9531,0.0,0.0,0.0,0.0,0.0,0.0,0.0,0.0,0.0,0.0,0.0,4.6914,4.6953,4.7148,4.7578,4.8008,4.8242,4.8242,4.9414,4.9766,4.8945,5.0039,5.0976,5.1406,5.2187,5.3047,5.3945,5.5937,5.7383,5.789,5.9765,6.1055,6.1055,6.1406,6.1719,6.1719,6.1719,6.1875,6.2305,6.2344,6.2695,6.3476,6.3633,6.3789,6.4258,6.5039,6.5586,6.5625,6.6015,6.6094,6.582,6.6758,6.7226,6.6467,6.6644,6.6958,6.692,6.6708,6.6558,6.6628,6.6859,6.7051,6.6622,6.6474,6.6513,6.6551,6.6513,6.6211,6.5513,6.6205,6.6981,6.1719,6.164,6.0937,6.0937,6.1367,6.0156,5.9922,6.0273,0.0,0.0,0.0,5.6836,5.6758,5.6601,5.6601,5.6601,5.6601,5.6601,5.6601,5.6601,5.6601,5.6601,5.6601,5.6601,5.6601,5.6601,5.6601,5.6601,5.6601,5.6601,5.6601,5.6601,5.6601,5.6601,5.6562,5.5898,5.5156,5.4412,5.3437,5.293,5.2891,5.1289,5.0078,4.9336,4.8359,4.75,4.6797,4.6601,4.6523,4.6523,4.6523,4.6523,4.6523,4.668,4.707,4.7773,4.7812,4.8125,4.8867,4.9062,4.9258,4.957,5.1133,5.1601,5.0508,5.1445,5.2383,5.3086,5.3945,5.5117,5.668,5.8242,5.9531,6.0312,6.1172,6.168,6.168,6.1719,6.1719,6.1719,6.1719,6.1953,6.2578,6.2695,6.3008,6.3633,6.3633,6.3867,6.3906,6.414,6.4453,6.4531,6.5,6.5117,6.4726,6.543,6.6094,6.5508,6.5659,6.5929,6.5909,6.5683,6.5177,6.4622,6.5013,6.5089,6.4622,6.4936,6.5205,6.4705,6.5128,6.548,6.4936,6.5667,6.6596,6.1719,6.168,6.1562,6.1133,6.0625,6.1133,6.0976,6.0351,5.9414,5.8515,5.7734,5.7734,5.7305,5.6601,5.6601,5.6601,5.6601,5.6601,5.6601,0.0,5.6601,5.6601,5.6601,5.6601,5.6601,5.6601,5.6601,5.6601,5.6601,5.6601,5.6601,5.6601,5.6601,5.6601,5.6601,5.6484,5.6285,5.6056,5.4566,5.3828,5.3789,5.2109,5.1172,5.1016,4.9531,4.8672,4.8555,4.7812,4.7422,4.7422,4.7422,4.7422,4.7461,4.8086,4.8594,4.8711,4.8711,4.8789,4.8945,4.957,5.0625,5.2109,5.375,5.375,5.1523,5.3398,5.4805,5.4961,5.5703,5.664,5.7656,5.8633,5.957,6.0351,6.1172,6.168,6.1719,6.1719,6.1719,6.1719,6.1719,6.1719,6.1914,6.1953,6.1992,6.207,6.2344,6.2148,6.2422,6.3359,6.418,6.4297,6.4375,6.4414,6.4219,6.4453,6.4687,6.4531,6.4336,6.4357,6.438,6.4077,6.3806,6.3506,6.3698,6.3698,6.3506,6.3545,6.3929,6.4275,6.4628,6.4705,6.4436,6.4782,6.5205,6.1719,6.1719,6.1719,6.1484,6.1133,6.1436,6.1349,6.0956,6.0534,5.9425,5.8008,5.8398,5.8125,5.7383,5.7812,5.8008,5.8008,5.8008,5.7966,5.7795,5.7405,5.7444,5.7714,5.6868,5.6676,5.713,5.6635,5.6383,5.6382,5.6382,5.6382,5.6383,5.6383,5.6383,5.6382,5.6383,5.6363,5.6242,5.519,5.4541,5.4468,5.3255,5.2393,5.1886,5.0675,4.9817,4.9349,4.8604,4.8188,4.8188,4.8279,4.8281,4.832,4.8672,4.9297,5.0195,5.0273,5.0664,5.1601,5.2031,5.2578,5.3359,5.457,5.4844,5.3633,5.5039,5.6015,5.6015,5.6797,5.7656,5.8515,5.9375,6.0195,6.1015,6.1484,6.168,6.1719,6.1719,6.1719,6.1719,6.1719,6.1719,6.1719,6.1719,6.1719,6.1719,6.1719,6.1719,6.1719,6.2344,6.289,6.293,6.3281,6.332,6.3047,6.375,6.3984,6.3581,6.3678,6.3758,6.3693,6.3436,6.3137,6.2781,6.2935,6.3083,6.2781,6.3012,6.3281,6.3128,6.366,6.3737,6.3435,6.3551,6.4006,6.1679,6.1719,6.1634,6.1629,6.1587,6.1504,6.1435,6.1426,6.1336,6.0192,5.8615,5.9089,5.8777,5.7918,5.8699,5.8984,5.8856,5.9011,5.899,5.8819,5.8193,5.8271,5.8691,5.7362,5.7062,5.7521,5.6824,5.6386,5.623,5.623,5.623,5.623,5.623,5.623,5.623,5.623,5.6178,5.6075,5.5543,5.5165,5.4902,5.4035,5.3291,5.2624,5.1962,5.1312,5.0652,4.9777,4.9384,4.9582,4.9332,4.9336,4.9726,4.9766,5.043,5.1797,5.1992,5.2539,5.3828,5.418,5.4297,5.4297,5.5078,5.5586,5.5664,5.6211,5.6601,5.668,5.7148,5.7969,5.8984,5.9687,6.0547,6.1523,6.1719,6.1719,6.1719,6.1719,6.1719,6.1719,6.1719,6.1719,6.1719,6.1719,6.1719,6.1719,6.1719,6.1719,6.1719,6.1719,6.1719,6.1836,6.2265,6.2461,6.1914,6.2734,6.3203,6.2625,6.2879,6.2983,6.2963,6.2862,6.2536,6.1979,6.2243,6.2358,6.1979,6.2204,6.2474,6.2326,6.2704,6.2858,6.2403,6.2403,6.2704,6.1584,6.1637,6.1428,6.1326,6.1336,6.1315,6.1306,6.1343,6.1325,6.0747,5.9799,5.9916,5.9028,5.7702,5.8403,5.8449,5.7831,5.8398,5.8776,5.8763,5.8643,5.8643,5.8799,5.8506,5.8126,5.7525,5.7348,5.69,5.6283,5.6253,5.6225,5.623,5.623,5.622,5.6225,5.6222,5.6119,5.5951,5.5885,5.5507,5.4891,5.4035,5.3563,5.3488,5.3518,5.3525,5.3277,5.198,5.1523,5.2109,5.0898,5.0781,5.2109,5.2305,5.2773,5.3672,5.375,5.3867,5.4062,5.4726,5.5195,5.5234,5.5937,5.6445,5.6445,5.6523,5.6601,5.664,5.668,5.7539,5.8945,5.9336,6.0078,6.1523,6.1719,6.1719,6.1719,6.1719,6.1719,6.1719,6.1719,6.1719,6.1719,6.1719,6.1719,6.1719,6.1719,6.1719,6.1719,6.1719,6.1719,6.1719,6.1836,6.1836,6.1758,6.1758,6.207,6.187,6.1673,6.1714,6.169,6.1438,6.1018,6.1287,6.1089,6.1166,6.1089,6.105,6.1364,6.1826,6.2056,6.2172,6.2024,6.1633,6.132,6.1532,6.1441,6.1417,6.1361,6.1283,6.1179,6.1132,6.112,6.1031,6.0809,6.0494,6.0456,5.9902,5.9018,5.9877,6.0035,5.973,6.0071,6.0174,5.9999,5.9568,5.9607,5.9945,5.8923,5.8278,5.8082,5.7976,5.7482,5.6794,5.6678,5.6678,5.6678,5.6674,5.6407,5.5982,5.6407,5.6393,5.5794,5.5794,5.5648,5.538,5.5036,5.4839,5.4787,5.4501,5.4319,5.4227,5.3328,5.2992,5.3306,5.2771,5.2734,5.3437,5.3476,5.3867,5.4687,5.5273,5.5547,5.5547,5.5859,5.6055,5.6055,5.6406,5.6601,5.6601,5.6601,5.6601,5.664,5.707,5.789,5.9023,5.9609,6.039,6.1445,6.1719,6.1719,6.1719,6.1719,6.1719,6.1719,6.1719,6.1719,6.1719,6.1719,6.1719,6.1719,6.1719,6.1719,6.1719,6.1719,6.1719,6.1719,6.1719,6.1719,6.1719,6.1719,6.164,6.1502,6.1371,6.1262,6.1018,6.0923,6.0819,6.0781,6.0781,6.0781,6.0858,6.0781,6.0941,6.1364,6.1364,6.1325,6.1325,6.1056,6.0819,6.1505,6.1361,6.1378,6.1265,6.117,6.1014,6.094,6.092,6.0839,6.0781,6.0781,6.0781,6.0614,6.0364,6.0906,6.1026,6.0871,6.1065,6.1065,6.091,6.0321,6.036,6.0766,5.9666,5.889,5.8761,5.8664,5.8176,5.744,5.7363,5.7363,5.7363,5.7363,5.6901,5.6247,5.694,5.6824,5.5829,5.5901,5.5939,5.5752,5.5708,5.5707,5.5716,5.5361,5.5109,5.5126,5.4559,5.4312,5.4547,5.4216,5.4219,5.4687,5.4492,5.4726,5.5586,5.625,5.6601,5.6601,5.6601,5.6601,5.6601,5.6601,5.6601,5.6601,5.6601,5.6601,5.664,5.7187,5.789,5.9101,5.9726,6.0508,6.1523,6.1719,6.1719,6.1719,6.1719,6.1719,6.1719,6.1719,6.1719,6.1719,6.1719,6.1719,6.1719,6.1719,6.1719,6.1719,6.1719,6.1719,6.1719,6.1719,6.1719,6.1719,6.1719,6.1601,6.1461,6.1334,6.1229,6.0913,6.085,6.0781,6.0781,6.0781,6.0781,6.0781,6.0781,6.0781,6.0781,6.0819,6.0864,6.0896,6.0819,6.0819,6.1376,6.1426,6.1151,6.0954,6.0833,6.0827,6.0816,6.0794,6.0793,6.0781,6.0781,6.0781,6.0766,6.074,6.0806,6.0415,5.9843,6.0487,6.0867,6.0794,6.0744,6.0771,6.0804,6.071,6.0215,5.9414,5.9463,5.905,5.8357,5.8275,5.8242,5.8236,5.8242,5.7819,5.717,5.7819,5.7396,5.6132,5.6516,5.6555,5.5868,5.5752,5.5847,5.5981,5.6058,5.6113,5.6176,5.5614,5.5586,5.6406,5.4961,5.4765,5.6133,5.5664,5.5625,5.6367,5.6562,5.6601,5.6601,5.6601,5.6601,5.6601,5.6601,5.6601,5.6601,5.6601,5.6601,5.6601,5.668,5.7422,5.8906,5.9297,6.0039,6.1484,6.1719,6.1719,6.164,6.1562,6.168,6.1601,6.1562,6.1523,6.164,6.1719,6.1719,6.1719,6.1719,6.1719,6.1719,6.1719,6.1719,6.1719,6.1719,6.1719,6.1719,6.1719,6.164,6.1488,6.1315,6.121,6.1066,6.0895,6.0839,6.0781,6.0781,6.0781,6.0781,6.0781,6.0781,6.0781,6.0781,6.0781,6.0781,6.0781,6.0781,6.1308,6.1161,6.0944,6.0845,6.0787,6.0781,6.0781,6.0781,6.0781,6.0781,6.0781,6.0781,6.0781,6.0781,6.0781,6.0633,6.0402,6.0671,6.0781,6.0781,6.0781,6.0781,6.0781,6.0781,6.0319,5.9704,6.005,6.0171,5.9858,5.9358,5.905,5.9083,5.9088,5.8665,5.8127,5.8665,5.8473,5.7473,5.717,5.7093,5.7264,5.6884,5.6729,5.6829,5.6394,5.6292,5.6387,5.6243,5.6289,5.6601,5.5976,5.5937,5.6484,5.6289,5.625,5.6562,5.6601,5.6601,5.6601,5.6601,5.6601,5.6601,5.6601,5.6601,5.6601,5.6601,5.6601,5.6601,5.6601,5.7383,5.8711,5.9219,5.9883,6.1328,6.168,6.1445,6.1015,6.0859,6.0664,6.0312,6.0508,6.0859,6.1055,6.1328,6.168,6.1719,6.1719,6.1719,6.1719,6.1719,6.1719,6.1719,6.1719,6.1719,6.1719,6.1719,6.164,6.1484,6.1322,6.1147,6.0974,6.086,6.0793,6.0781,6.0781,6.0781,6.0781,6.0781,6.0781,6.0781,6.0781,6.0781,6.0781,6.0781,6.0781,6.1175,6.0964,6.0834,6.0781,6.0781,6.0781,6.0781,6.0781,6.0781,6.0781,6.0781,6.0781,6.0781,6.0781,6.0781,6.0781,6.0781,6.0781,6.0781,6.0781,6.0781,6.0781,6.0781,6.0781,6.0517,6.0089,6.0512,6.0781,6.0742,6.0204,5.9935,5.9935,5.9935,5.9511,5.8967,5.9511,5.9435,5.8434,5.7934,5.8017,5.8237,5.7862,5.7543,5.7417,5.7167,5.6854,5.6535,5.6833,5.6875,5.664,5.6601,5.6601,5.6601,5.6601,5.6601,5.6601,5.6601,5.6601,5.6601,5.6601,5.6601,5.6601,5.6601,5.6601,5.6601,5.6601,5.6601,5.664,5.6914,5.7617,5.8555,5.9258,6.0156,6.1367,6.1445,6.1172,6.0859,6.0586,6.0351,6.0273,6.0312,6.0547,6.082,6.1367,6.164,6.1719,6.1719,6.1719,6.1719,6.1719,6.1719,6.1719,6.1719,6.1719,6.1719,6.1719,6.1601,6.1406,6.134,6.114,6.0928,6.0817,6.0781,6.0781,6.0781,6.0781,6.0781,6.0781,6.0781,6.0781,6.0781,6.0781,6.0781,6.0781,6.0781,6.094,6.0821,6.0781,6.0781,6.0781,6.0781,6.0781,6.0781,6.0781,6.0781,6.0781,6.0781,6.0781,6.0781,6.0781,6.0781,6.0781,6.0781,6.0781,6.0781,6.0781,6.0781,6.0781,6.0781,6.0787,6.0666,6.0748,6.0781,6.0781,6.0704,6.0666,6.0748,6.0666,6.0242,5.9511,6.0204,5.9935,5.8934,5.905,5.905,5.8468,5.8481,5.8234,5.7779,5.8406,5.8249,5.6836,5.7422,5.7461,5.6797,5.668,5.664,5.6719,5.6719,5.664,5.664,5.6601,5.6601,5.6601,5.6601,5.6601,5.6601,5.6601,5.6601,5.6601,5.6601,5.6601,5.6719,5.7226,5.789,5.8203,5.9219,6.039,6.1406,6.0976,6.0976,6.1133,6.082,6.0664,6.1055,6.0742,6.082,6.1367,6.164,6.168,6.1719,6.1719,6.1719,6.1719,6.1719,6.1719,6.1719,6.1719,6.1719,6.1719,6.168,6.1523,6.1373,6.1312,6.1179,6.0943,6.0781,6.0781,6.0781,6.0781,6.0781,6.0781,6.0781,6.0781,6.0781,6.0781,6.0781,6.0781,6.0781,6.0781,6.0834,6.0787,6.0781,6.0781,6.0781,6.0781,6.0781,6.0781,6.0781,6.0781,6.0781,6.0781,6.0781,6.0781,6.0781,6.0781,6.0781,6.0781,6.0781,6.0781,6.0781,6.0781,6.0781,6.0781,6.0781,6.0781,6.0781,6.0781,6.0781,6.0781,6.0781,6.0781,6.0781,6.0671,6.0396,6.0627,6.0435,6.0089,5.9665,5.9627,5.9886,5.9597,5.932,5.9332,6.0167,5.9973,5.8515,5.8086,5.7773,5.75,5.75,5.75,5.75,5.75,5.7226,5.668,5.6601,5.6601,5.6601,5.664,5.664,5.664,5.664,5.6601,5.6601,5.664,5.664,5.664,5.6875,5.7383,5.8515,5.8633,5.9258,5.9922,6.0742,6.0742,6.0234,5.9844,5.9726,5.9961,6.0195,6.0508,6.0859,6.125,6.168,6.1719,6.1719,6.1719,6.1719,6.1719,6.1719,6.1719,6.1719,6.1719,6.1719,6.168,6.1562,6.1392,6.1306,6.12,6.0943,6.0781,6.0781,6.0781,6.0781,6.0781,6.0781,6.0781,6.0781,6.0781,6.0781,6.0781,6.0781,6.0781,6.0781,6.0781,6.0781,6.0781,6.0781,6.0781,6.0781,6.0781,6.0781,6.0781,6.0781,6.0781,6.0781,6.0781,6.0781,6.0781,6.0781,6.0781,6.0781,6.0781,6.0781,6.0781,6.0781,6.0781,6.0781,6.0781,6.0781,6.0781,6.0781,6.0781,6.0781,6.0781,6.0781,6.0781,6.0781,6.0781,6.0781,6.0781,6.0704,6.0242,6.0242,6.0613,6.0447,6.017,6.0188,6.0984,6.0636,5.9336,5.8945,5.8711,5.8437,5.8398,5.8398,5.8398,5.8359,5.8125,5.7656,5.7305,5.7226,5.7461,5.7344,5.7265,5.7461,5.7265,5.7109,5.707,5.707,5.707,5.7109,5.7734,5.8359,5.8984,5.9414,5.9336,5.914,5.9726,5.9961,5.9258,5.9492,5.9883,6.0195,6.0351,6.0547,6.0937,6.125,6.1719,6.1719,6.1719,6.1719,6.1719,6.1719,6.1719,6.1719,6.1719,6.1719,6.1719,6.164,6.1562,6.1424,6.1331,6.1124,6.091,6.0827,6.0781,6.0781,6.0781,6.0781,6.0781,6.0781,6.0781,6.0781,6.0781,6.0781,6.0781,6.0781,6.0781,6.0781,6.0781,6.0781,6.0781,6.0781,6.0781,6.0781,6.0781,6.0781,6.0781,6.0781,6.0781,6.0781,6.0781,6.0781,6.0781,6.0781,6.0781,6.0781,6.0781,6.0781,6.0781,6.0781,6.0781,6.0781,6.0781,6.0781,6.0781,6.0781,6.0781,6.0781,6.0781,6.0781,6.0781,6.0781,6.0781,6.0781,6.0781,6.0748,6.0748,6.0798,6.0872,6.0713,6.0185,6.0986,6.087,5.9883,6.0078,6.0039,5.9414,5.9336,5.9414,5.9297,5.9258,5.9219,5.8984,5.8359,5.8398,5.875,5.8359,5.8242,5.8789,5.832,5.7969,5.7969,5.7969,5.7969,5.8047,5.9101,5.9805,5.9687,6.0195,6.039,5.9375,5.9023,5.8984,5.9375,6.0078,6.0664,6.1211,6.1015,6.0742,6.1484,6.168,6.168,6.1719,6.1719,6.1719,6.1719,6.1719,6.1719,6.1719,6.1719,6.1719,6.1719,6.164,6.1525,6.1389,6.124,6.1049,6.0904,6.0839,6.0781,6.0781,6.0781,6.0781,6.0781,6.0781,6.0781,6.0781,6.0781,6.0781,6.0781,6.0781,6.0781,6.0781,6.0781,6.0781,6.0781,6.0781,6.0781,6.0781,6.0781,6.0781,6.0781,6.0781,6.0781,6.0781,6.0781,6.0781,6.0781,6.0781,6.0781,6.0781,6.0781,6.0781,6.0781,6.0781,6.0781,6.0781,6.0781,6.0781,6.0781,6.0781,6.0781,6.0781,6.0781,6.0781,6.0781,6.0781,6.0793,6.0781,6.0781,6.0793,6.0804,6.0817,6.0925,6.0988,6.1047,6.13,6.1339,6.1055,6.125,6.0976,6.0234,6.0742,6.0703,6.0156,6.0078,5.9883,5.9375,5.9062,5.8945,5.914,5.9023,5.9023,5.914,5.9023,5.8867,5.8867,5.8867,5.8867,5.8945,5.9375,5.9765,5.9961,6.0039,5.9687,5.9414,5.9492,5.9961,6.0664,6.1211,6.1484,6.1601,6.1445,6.1484,6.1601,6.1719,6.1719,6.1719,6.1719,6.1719,6.1719,6.1719,6.1719,6.1719,6.1719,6.1719,6.168,6.1601,6.1496,6.1336,6.1165,6.0986,6.086,6.0804,6.0781,6.0781,6.0781,6.0781,6.0781,6.0781,6.0781,6.0781,6.0781,6.0781,6.0781,6.0781,6.0781,6.0781,6.0781,6.0781,6.0781,6.0781,6.0781,6.0781,6.0781,6.0781,6.0781,6.0781,6.0781,6.0781,6.0781,6.0781,6.0781,6.0781,6.0781,6.0781,6.0781,6.0781,6.0781,6.0781,6.0781,6.0781,6.0781,6.0781,6.0781,6.0781,6.0781,6.0781,6.0781,6.0781,6.0781,6.0798,6.0883,6.0892,6.0918,6.0949,6.1016,6.103,6.1069,6.1188,6.1359,6.1483,6.1574,6.168,6.1719,6.1289,6.0781,6.1172,6.1484,6.1055,6.0937,6.0703,6.0234,5.9922,5.9844,6.0117,5.9961,5.9883,6.0078,6.0,5.9726,5.9687,5.9687,5.9687,5.9726,6.0039,6.0469,6.0742,6.0508,6.0312,6.039,6.0664,6.1015,6.1211,6.1445,6.168,6.1719,6.1719,6.1719,6.1719,6.1719,6.1719,6.1719,6.1719,6.1719,6.1719,6.1719,6.1719,6.1719,6.1719,6.1719,6.168,6.1562,6.1419,6.1268,6.1083,6.0884,6.0839,6.0781,6.0781,6.0781,6.0781,6.0781,6.0781,6.0781,6.0781,6.0781,6.0781,6.0781,6.0781,6.0781,6.0781,6.0781,6.0781,6.0781,6.0781,6.0781,6.0781,6.0781,6.0781,6.0781,6.0781,6.0781,6.0781,6.0781,6.0781,6.0781,6.0781,6.0781,6.0781,6.0781,6.0781,6.0781,6.0781,6.0781,6.0781,6.0781,6.0781,6.0781,6.0781,6.0781,6.0781,6.0781,6.0781,6.0781,6.0781,6.0839,6.0935,6.0984,6.1014,6.115,6.122,6.1237,6.1283,6.1366,6.1437,6.1516,6.1583,6.168,6.168,6.1328,6.0586,6.1289,6.164,6.164,6.168,6.164,6.1484,6.0898,6.082,6.1367,6.0859,6.082,6.125,6.0859,6.0547,6.0547,6.0547,6.0547,6.0547,6.125,6.1445,6.1523,6.1601,6.1484,6.1406,6.1601,6.1289,6.0898,6.125,6.1719,6.1719,6.1719,6.1719,6.1719,6.1719,6.1719,6.1719,6.1719,6.1719,6.1719,6.1719,6.1719,6.1719,6.1719,6.1719,6.164,6.1562,6.1383,6.119,6.0983,6.0823,6.0817,6.0781,6.0781,6.0781,6.0781,6.0781,6.0781,6.0781,6.0781,6.0781,6.0781,6.0781,6.0781,6.0781,6.0781,6.0781,6.0781,6.0781,6.0781,6.0781,6.0781,6.0781,6.0781,6.0781,6.0781,6.0781,6.0781,6.0781,6.0781,6.0781,6.0781,6.0781,6.0781,6.0781,6.0781,6.0781,6.0781,6.0819,6.0819,6.0781,6.0781,6.0781,6.0781,6.0781,6.0781,6.0781,6.0781,6.0781,6.0781,6.0827,6.0945,6.1001,6.104,6.1207,6.134,6.138,6.1404,6.1487,6.1514,6.1586,6.168,6.168,6.1719,6.1601,6.1523,6.1601,6.1719,6.1719,6.1719,6.1719,6.168,6.1562,6.1484,6.1601,6.1523,6.1484,6.1601,6.1484,6.1406,6.1406,6.1367,6.1406,6.1445,6.1601,6.1719,6.1719,6.1719,6.1719,6.1719,6.168,6.164,6.1484,6.1562,6.168,6.1719,6.1719,6.1719,6.1719,6.1719,6.1719,6.1719,6.1719,6.1719,6.1719,6.1719,6.1719,6.1719,6.1719,6.168,6.1601,6.1454,6.1265,6.1112,6.0913,6.0793,6.0787,6.0781,6.0781,6.0781,6.0781,6.0781,6.0781,6.0781,6.0781,6.0781,6.0781,6.0781,6.0781,6.0781,6.0781,6.0781,6.0781,6.0781,6.0781,6.0781,6.0781,6.0781,6.0781,6.0781,6.0781,6.0781,6.0781,6.0781,6.0781,6.0781,6.0781,6.0781,6.0819,6.1056,6.121,6.1095,6.1018,6.1248,6.0979,6.0781,6.0781,6.0781,6.0781,6.0781,6.0819,6.0781,6.0781,6.0781,6.0781,6.0827,6.0954,6.1056,6.1179,6.1318,6.1406,6.1499,6.1568,6.1585,6.1586,6.168,6.1719,6.1719,6.1719,6.1719,6.1719,6.1719,6.1719,6.1719,6.1719,6.1719,6.1719,6.1719,6.1719,6.1719,6.1719,6.168,6.1719,6.1719,6.1719,6.1719,6.1719,6.1719,6.1719,6.168,6.1719,6.1719,6.1719,6.1719,6.1719,6.1719,6.1719,6.1719,6.1719,6.1719,6.1719,6.1719,6.1719,6.1719,6.1719,6.1719,6.1719,6.1719,6.1719,6.1719,6.1719,6.1719,6.1719,6.1719,6.168,6.1562,6.1383,6.1085,6.0959,6.0845,6.0787,6.0781,6.0781,6.0781,6.0781,6.0781,6.0781,6.0781,6.0781,6.0781,6.0781,6.0781,6.0781,6.0781,6.0781,6.0781,6.0781,6.0781,6.0781,6.0781,6.0781,6.0781,6.0781,6.0781,6.0781,6.0781,6.0781,6.0781,6.0781,6.0781,6.0781,6.0781,6.0781,6.0864,6.1172,6.1787,6.1402,6.1479,6.171,6.1402,6.0979,6.0819,6.0781,6.0819,6.1018,6.0902,6.0935,6.0973,6.0819,6.0819,6.0811,6.0916,6.1097,6.1259,6.1398,6.1525,6.164,6.168,6.168,6.168,6.168,6.1719,6.1719,6.1719,6.1719,6.1719,6.1719,6.1719,6.1719,6.1719,6.1719,6.1719,6.1719,6.1719,6.1719,6.1719,6.1719,6.1719,6.1719,6.1719,6.1719,6.1719,6.1719,6.1719,6.1719,6.1719,6.1719,6.1719,6.1719,6.1719,6.1719,6.1719,6.1719,6.1719,6.1719,6.1719,6.1719,6.1719,6.1719,6.1719,6.1719,6.1719,6.1719,6.1719,6.1719,6.1719,6.1719,6.1719,6.1719,6.1601,6.1445,6.1281,6.1014,6.0882,6.0781,6.0781,6.0781,6.0781,6.0781,6.0781,6.0781,6.0781,6.0781,6.0781,6.0781,6.0781,6.0781,6.0781,6.0781,6.0781,6.0858,6.0781,6.0781,6.0781,6.0781,6.0781,6.0781,6.0781,6.0781,6.0781,6.0781,6.0781,6.0781,6.0781,6.0781,6.0781,6.0781,6.0781,6.0941,6.1364,6.2056,6.1941,6.2095,6.2249,6.1908,6.1479,6.0941,6.0896,6.1248,6.1479,6.121,6.1364,6.1633,6.1287,6.0973,6.0938,6.0949,6.1193,6.1369,6.1476,6.1565,6.164,6.168,6.1719,6.1719,6.1719,6.1719,6.1719,6.1719,6.1719,6.1719,6.1719,6.1719,6.1719,6.1719,6.1719,6.1719,6.1719,6.1719,6.1719,6.1719,6.1719,6.1719,6.1719,6.1719,6.1719,6.1719,6.1719,6.1719,6.1719,6.1719,6.1719,6.1719,6.1719,6.1719,6.1719,6.1719,6.1719,6.1719,6.1719,6.1719,6.1719,6.1719,6.1719,6.1719,6.1719,6.1719,6.1719,6.1719,6.1719,6.1719,6.1719,6.1719,6.1719,6.1523,6.1367,6.119,6.0949,6.0883,6.0781,6.0781,6.0781,6.0781,6.0781,6.0781,6.0781,6.0781,6.0781,6.0781,6.0781,6.0781,6.0781,6.0781,6.0781,6.0819,6.1248,6.0781,6.0781,6.0781,6.0781,6.0781,6.0781,6.0781,6.0781,6.0781,6.0781,6.0781,6.0781,6.0781,6.0781,6.0781,6.0781,6.0896,6.1364,6.1903,6.2557,6.2704,6.3012,6.3095,6.2595,6.2249,6.1935,6.1781,6.1672,6.2095,6.2166,6.2089,6.2018,6.2012,6.1897,6.1574,6.1571,6.1683,6.1771,6.1596,6.1481,6.1587,6.164,6.1719,6.1719,6.1719,6.1719,6.1719,6.1719,6.1719,6.1719,6.1719,6.1719,6.1719,6.1719,6.1719,6.1719,6.1719,6.1719,6.1719,6.1719,6.1719,6.1719,6.1719,6.1719,6.1719,6.1719,6.1719,6.1719,6.1719,6.1719,6.1719,6.1719,6.1719,6.1719,6.1719,6.1719,6.1719,6.1719,6.1719,6.1719,6.1719,6.1719,6.1719,6.1719,6.1719,6.1719,6.1719,6.1719,6.1719,6.1719,6.1719,6.164,6.1601,6.1406,6.1234,6.1079,6.093,6.0845,6.0781,6.0781,6.0781,6.0781,6.0781,6.0781,6.0781,6.0781,6.0781,6.0781,6.0781,6.0781,6.0781,6.0781,6.0781,6.0935,6.1402,6.0781,6.0781,6.0781,6.0781,6.0781,6.0781,6.0781,6.0781,6.0781,6.0781,6.0781,6.0781,6.0781,6.0781,6.0819,6.0902,6.1095,6.1831,6.2595,6.3435,6.3545,6.3968,6.3974,6.3518,6.2858,6.2891,6.2974,6.2595,6.2826,6.2935,6.2897,6.2935,6.3243,6.3051,6.2453,6.2355,6.243,6.23,6.1893,6.1595,6.1558,6.164,6.1719,6.1719,6.1719,6.1719,6.1719,6.1719,6.1719,6.1719,6.1719,6.1719,6.1719,6.1719,6.1719,6.1719,6.1719,6.1719,6.1719,6.1719,6.1719,6.1719,6.1719,6.1719,6.1719,6.1719,6.1719,6.1719,6.1719,6.1719,6.1719,6.1719,6.1719,6.1719,6.1719,6.1719,6.1719,6.1719,6.1719,6.1719,6.1719,6.1719,6.1719,6.1719,6.1719,6.1719,6.1719,6.1719,6.1719,6.1719,6.168,6.1562,6.1445,6.125,6.1056,6.0949,6.0883,6.0839,6.0781,6.0781,6.0781,6.0781,6.0781,6.0781,6.0781,6.0781,6.0781,6.0781,6.0781,6.0781,6.0781,6.0781,6.0781,6.1127,6.1595,6.0781,6.0781,6.0781,6.0781,6.0781,6.0781,6.0781,6.0781,6.0781,6.0781,6.0781,6.0781,6.0781,6.0819,6.0864,6.1287,6.1749,6.2287,6.3012,6.4006,6.4359,6.4512,6.4628,6.4474,6.382,6.3737,6.4012,6.4282,6.4128,6.3698,6.3737,6.3974,6.3666,6.3275,6.3243,6.3166,6.3241,6.3259,6.2701,6.2182,6.1875,6.1797,6.1797,6.1797,6.1719,6.1719,6.1719,6.1719,6.1719,6.1719,6.1719,6.1719,6.1719,6.1719,6.1719,6.1719,6.1719,6.1719,6.1719,6.1719,6.1719,6.1719,6.1719,6.1719,6.1719,6.1719,6.1719,6.1719,6.1719,6.1719,6.1719,6.1719,6.1719,6.1719,6.1719,6.1719,6.1719,6.1719,6.1719,6.1719,6.1719,6.1719,6.1719,6.1719,6.1719,6.1719,6.1719,6.1719,6.168,6.168,6.1601,6.1484,6.1315,6.1128,6.0982,6.0877,6.0844,6.0787,6.0781,6.0781,6.0781,6.0781,6.0781,6.0781,6.0781,6.0781,6.0781,6.0781,6.0781,6.0781,6.0781,6.0781,6.0781,6.1248,6.1826,6.0781,6.0781,6.0781,6.0781,6.0781,6.0781,6.0781,6.0781,6.0781,6.0781,6.0781,6.0781,6.0781,6.0864,6.1248,6.1441,6.171,6.2781,6.3512,6.4205,6.482,6.532,6.5205,6.4897,6.4474,6.4743,6.4705,6.4859,6.4936,6.4974,6.4859,6.4545,6.4705,6.4551,6.4083,6.4045,6.4079,6.3943,6.3581,6.3249,6.3086,6.2734,6.2422,6.2422,6.1953,6.1758,6.1719,6.1719,6.1719,6.1719,6.1719,6.1719,6.1719,6.1719,6.1719,6.1719,6.1719,6.1719,6.1719,6.1719,6.1719,6.1719,6.1719,6.1719,6.1719,6.1719,6.1719,6.1719,6.1719,6.1719,6.1719,6.1719,6.1719,6.1719,6.1719,6.1719,6.1719,6.1719,6.1719,6.1719,6.1719,6.1719,6.1719,6.1719,6.1719,6.1719,6.1719,6.168,6.164,6.1601,6.1523,6.1406,6.1224,6.1018,6.0938,6.0833,6.0821,6.0781,6.0781,6.0781,6.0781,6.0781,6.0935,6.0896,6.0858,6.0819,6.0819,6.0781,6.0781,6.0781,6.0781,6.0858,6.0979,6.1556,6.2172,6.0781,6.0781,6.0781,6.0781,6.0781,6.0781,6.0781,6.0781,6.0781,6.0781,6.0781,6.0781,6.0781,6.0973,6.1595,6.1864,6.1704,6.3666,6.4205,6.4589,6.5128,6.575,6.5628,6.5243,6.5282,6.5904,6.5282,6.532,6.5628,6.575,6.5397,6.4936,6.5397,6.5436,6.5089,6.4922,6.4912,6.4643,6.4318,6.4148,6.4023,6.3359,6.3047,6.2695,6.2265,6.1719,6.1719,6.1719,6.1719,6.1719,6.1719,6.1719,6.1719,6.1719,6.1719,6.1719,6.1719,6.1719,6.1719,6.1719,6.1719,6.1719,6.1719,6.1719,6.1719,6.1719,6.1719,6.1719,6.1719,6.1719,6.1719,6.1719,6.1719,6.1719,6.1719,6.1719,6.1719,6.1719,6.1719,6.1719,6.1719,6.1719,6.1719,6.1719,6.1719,6.1719,6.168,6.168,6.1591,6.1524,6.1359,6.1262,6.1099,6.091,6.0888,6.0798,6.0787,6.0781,6.0781,6.1012,6.1166,6.1287,6.1479,6.1325,6.1133,6.121,6.1441,6.1095,6.0781,6.0781,6.0819,6.1018,6.1287,6.1903,6.2672,6.0781,6.0781,6.0781,6.0781,6.0781,6.0781,6.0781,6.0781,6.0781,6.0781,6.0781,6.0781,6.0781,6.1018,6.1672,6.2364,6.3006,6.4128,6.4666,6.5243,6.5859,6.5904,6.5782,6.5743,6.575,6.5865,6.5628,6.5705,6.5859,6.5904,6.5827,6.5859,6.5827,6.582,6.573,6.5619,6.5453,6.526,6.5061,6.4858,6.4453,6.3789,6.3281,6.2969,6.2305,6.1719,6.1719,6.1719,6.1719,6.1719,6.1719,6.1719,6.1719,6.1719,6.1719,6.1719,6.1719,6.1719,6.1719,6.1719,6.1719,6.1719,6.1719,6.1719,6.1719,6.1719,6.1719,6.1719,6.1719,6.1719,6.1719,6.1719,6.1719,6.1719,6.1719,6.1719,6.1719,6.1719,6.1719,6.1719,6.1719,6.1719,6.1719,6.1719,6.1719,6.1719,6.164,6.1632,6.1515,6.1415,6.1238,6.1089,6.093,6.0828,6.0833,6.0781,6.0781,6.0781,6.0781,6.1287,6.1749,6.1903,6.1864,6.2018,6.1897,6.1941,6.187,6.1518,6.1172,6.0896,6.0896,6.1133,6.1864,6.2704,6.3512,6.0781,6.0781,6.0781,6.0781,6.0781,6.0781,6.0781,6.0781,6.0781,6.0781,6.0781,6.0781,6.0781,6.1056,6.1633,6.1903,6.2089,6.3852,6.4391,6.4743,6.5166,6.5788,6.5904,6.5904,6.5865,6.5904,6.5904,6.5904,6.5904,6.5904,6.5904,6.5904,6.5904,6.5904,6.5897,6.5974,6.5923,6.5987,6.5974,6.5888,6.582,6.5117,6.4609,6.4531,6.3086,6.2578,6.2461,6.1953,6.1797,6.1719,6.1719,6.1719,6.1719,6.1719,6.1719,6.1719,6.1719,6.1719,6.1719,6.1719,6.1719,6.1719,6.1719,6.1719,6.1719,6.1719,6.1719,6.1719,6.1758,6.1836,6.1719,6.1719,6.1719,6.1719,6.1758,6.1797,6.1953,6.207,6.207,6.2226,6.1953,6.1719,6.1719,6.1719,6.1719,6.1719,6.164,6.1604,6.1649,6.159,6.1535,6.1444,6.1323,6.1162,6.1172,6.1012,6.0858,6.0935,6.0973,6.1627,6.2287,6.2056,6.2056,6.2364,6.2512,6.2326,6.2095,6.1826,6.1556,6.1358,6.1281,6.1358,6.2281,6.3474,6.4282,6.0781,6.0781,6.0781,6.0781,6.0781,6.0781,6.0781,6.0781,6.0781,6.0781,6.0781,6.0781,6.0781,6.1095,6.1973,6.2243,6.2512,6.3858,6.4359,6.4859,6.5397,6.5827,6.5904,6.5904,6.5904,6.5904,6.5904,6.5904,6.5904,6.5904,6.5904,6.5904,6.5904,6.5904,6.594,6.6056,6.6191,6.6387,6.6527,6.669,6.6719,6.6015,6.5508,6.5195,6.3789,6.3008,6.2656,6.2187,6.1758,6.1719,6.1719,6.1719,6.1719,6.1719,6.1719,6.1719,6.1719,6.1719,6.1719,6.1719,6.1719,6.1719,6.1719,6.1719,6.1719,6.1719,6.1719,6.1719,6.1875,6.1992,6.1875,6.1953,6.2187,6.2305,6.2305,6.2383,6.2773,6.2969,6.2851,6.2812,6.2461,6.2187,6.2226,6.2305,6.2305,6.2265,6.2187,6.2294,6.2528,6.24,6.2224,6.2099,6.1973,6.1784,6.1589,6.1781,6.1973,6.2044,6.216,6.2397,6.2749,6.2518,6.2672,6.3243,6.3205,6.2672,6.2474,6.2512,6.2204,6.182,6.205,6.2551,6.3205,6.4359,6.4974,6.0781,6.0781,6.0781,6.0781,6.0781,6.0781,6.0781,6.0781,6.0781,6.0781,6.0781,6.0781,6.0864,6.121,6.2358,6.2775,6.3275,6.4705,6.5442,6.5436,6.559,6.5865,6.5904,6.5904,6.5904,6.5904,6.5904,6.5904,6.5904,6.5904,6.5904,6.5904,6.5904,6.5981,6.5935,6.6023,6.6195,6.6426,6.6607,6.6737,6.668,6.6133,6.5898,6.543,6.4336,6.3555,6.3086,6.2656,6.2226,6.1992,6.1953,6.1953,6.1914,6.1758,6.1719,6.1719,6.1797,6.1797,6.1797,6.1758,6.1875,6.1758,6.1719,6.1758,6.1758,6.1719,6.1836,6.1992,6.2383,6.2422,6.2344,6.2422,6.2812,6.2969,6.2969,6.3047,6.3476,6.3633,6.3515,6.3437,6.3203,6.3008,6.2969,6.2969,6.2969,6.293,6.2812,6.2932,6.3219,6.3075,6.2774,6.2662,6.2527,6.2548,6.2474,6.2852,6.3083,6.316,6.3083,6.3128,6.332,6.3397,6.3666,6.4128,6.3935,6.3397,6.332,6.3314,6.3275,6.3358,6.3743,6.4205,6.4705,6.5051,6.5513,6.0781,6.0781,6.0781,6.0781,6.0781,6.0781,6.0781,6.0781,6.0781,6.0781,6.0781,6.0781,6.1172,6.1749,6.2204,6.2897,6.3545,6.4275,6.5013,6.5166,6.5634,6.5865,6.5904,6.5904,6.5904,6.5904,6.5904,6.5904,6.5904,6.5904,6.5904,6.5904,6.5942,6.6211,6.648,6.6593,6.6538,6.7052,6.7003,6.6836,6.6875,6.6601,6.6406,6.6328,6.5195,6.4375,6.3867,6.3398,6.3047,6.2656,6.2578,6.2539,6.2383,6.2148,6.1758,6.1875,6.207,6.289,6.3203,6.3359,6.2812,6.2265,6.1797,6.2031,6.2422,6.1953,6.207,6.2461,6.2969,6.293,6.2773,6.3398,6.3789,6.3828,6.3867,6.3906,6.4101,6.414,6.4101,6.4023,6.3906,6.3867,6.3867,6.3828,6.3827,6.3916,6.3909,6.3609,6.368,6.3431,6.3134,6.3128,6.3101,6.3172,6.3352,6.3698,6.3775,6.366,6.3468,6.3237,6.3506,6.4006,6.3929,6.4006,6.4089,6.4166,6.4205,6.4359,6.4859,6.5166,6.5013,6.482,6.4897,6.5243,6.5705,6.0781,6.0781,6.0781,6.0781,6.0781,6.0781,6.0781,6.0781,6.0781,6.0781,6.0781,6.0819,6.1248,6.1941,6.2441,6.2974,6.3775,6.4666,6.5051,6.5128,6.5596,6.5827,6.5904,6.5904,6.5904,6.5904,6.5904,6.5904,6.5904,6.5904,6.5904,6.5904,6.5904,6.6359,6.6663,6.6746,6.6612,6.6975,6.6914,6.6875,6.6875,6.6836,6.6836,6.6601,6.5976,6.5273,6.4805,6.4414,6.4062,6.3633,6.3437,6.3281,6.293,6.2539,6.1992,6.207,6.25,6.3359,6.3945,6.418,6.3555,6.293,6.2383,6.2617,6.3086,6.2695,6.2851,6.3203,6.3594,6.3594,6.3633,6.4336,6.4687,6.4726,6.4765,6.4765,6.5156,6.5234,6.5195,6.5117,6.4765,6.4765,6.4726,6.4726,6.4725,6.4863,6.5012,6.4619,6.4295,6.4111,6.3974,6.3968,6.4083,6.432,6.4436,6.4545,6.4506,6.4237,6.4083,6.3929,6.4122,6.4666,6.4275,6.3929,6.4243,6.4551,6.5051,6.5397,6.5513,6.5551,6.5436,6.5243,6.5051,6.5397,6.5865,6.0781,6.0781,6.0781,6.0781,6.0781,6.0781,6.0781,6.0781,6.0781,6.0781,6.0781,6.0781,6.1364,6.221,6.2935,6.3737,6.4589,6.5474,6.5667,6.5788,6.5865,6.5904,6.5904,6.5904,6.5904,6.5904,6.5904,6.5904,6.5904,6.5904,6.5904,6.5904,6.5904,6.6331,6.6597,6.667,6.6633,6.6884,6.6953,6.6914,6.6914,6.6914,6.6914,6.668,6.6211,6.5742,6.5351,6.5,6.4648,6.4414,6.4336,6.3828,6.3437,6.3086,6.25,6.2422,6.293,6.375,6.4531,6.4765,6.4726,6.4297,6.3633,6.3789,6.3789,6.3594,6.3633,6.418,6.4687,6.4609,6.4609,6.5117,6.5625,6.5625,6.5625,6.5937,6.6445,6.6601,6.6562,6.6328,6.582,6.5664,6.5586,6.5586,6.5565,6.5582,6.5658,6.5494,6.5208,6.5305,6.5166,6.5243,6.5359,6.559,6.559,6.5282,6.5243,6.5013,6.5205,6.5166,6.532,6.5089,6.4743,6.4512,6.4589,6.4897,6.5397,6.5673,6.5788,6.5788,6.5673,6.5673,6.5436,6.5551,6.5904,6.0781,6.0781,6.0781,6.0781,6.0781,6.0781,6.0781,6.0781,6.0781,6.0781,6.0781,6.0781,6.155,6.2929,6.3198,6.4166,6.5089,6.575,6.5827,6.5904,6.5904,6.5904,6.5904,6.5904,6.5904,6.5904,6.5904,6.5904,6.5904,6.5904,6.5904,6.5904,6.5904,6.6229,6.6427,6.6486,6.6762,6.6984,6.6975,6.6914,6.6914,6.6914,6.6914,6.6719,6.664,6.6211,6.5742,6.5976,6.5703,6.5312,6.5234,6.4961,6.4922,6.4336,6.3828,6.4492,6.4844,6.5234,6.5937,6.6133,6.6055,6.582,6.5234,6.5,6.4922,6.4609,6.4414,6.5039,6.5508,6.539,6.543,6.5859,6.6211,6.6289,6.6289,6.6484,6.6914,6.6875,6.6875,6.6751,6.6279,6.6317,6.6318,6.6455,6.6426,6.6355,6.6226,6.6108,6.5966,6.5961,6.5904,6.5904,6.5904,6.5904,6.5904,6.5628,6.5743,6.5827,6.5859,6.5743,6.532,6.5089,6.5051,6.5051,6.5089,6.5359,6.5743,6.5904,6.5904,6.5904,6.5827,6.5865,6.5904,6.6019,6.6058,6.0781,6.0781,6.0781,6.0781,6.0781,6.0781,6.0781,6.0781,6.0781,6.0781,6.0781,6.0781,6.1704,6.3006,6.3051,6.382,6.5743,6.5436,6.5474,6.5904,6.5904,6.5904,6.5904,6.5904,6.5904,6.5904,6.5904,6.5904,6.5904,6.5904,6.5904,6.5904,6.5904,6.6046,6.6226,6.6408,6.666,6.6886,6.6992,6.6914,6.6914,6.6953,6.6914,6.6914,6.6914,6.6523,6.625,6.6758,6.6523,6.6172,6.6133,6.5898,6.5586,6.4805,6.4687,6.5234,6.5469,6.5898,6.6523,6.6758,6.6836,6.6797,6.6406,6.6211,6.5781,6.543,6.5586,6.5937,6.6055,6.6133,6.6328,6.6523,6.668,6.6875,6.6875,6.6875,6.6914,6.6914,6.6875,6.6836,6.6812,6.6886,6.7006,6.713,6.7189,6.6933,6.6762,6.6607,6.6352,6.6109,6.5981,6.5904,6.5904,6.5904,6.5942,6.6019,6.5981,6.5981,6.5904,6.5667,6.5282,6.5282,6.5474,6.5551,6.5551,6.5782,6.5936,6.5904,6.5904,6.5981,6.6211,6.6481,6.6519,6.6513,6.6558,6.0781,6.0781,6.0781,6.0781,6.0781,6.0781,6.0781,6.0781,6.0781,6.0781,6.0781,6.0781,6.1743,6.2929,6.2704,6.3749,6.5019,6.5205,6.5282,6.5865,6.5904,6.5904,6.5904,6.5904,6.5904,6.5904,6.5904,6.5904,6.5904,6.5904,6.5904,6.5904,6.5933,6.6051,6.62,6.6384,6.6695,6.7142,6.7226,6.7226,6.7148,6.707,6.6992,6.7031,6.6992,6.6836,6.6836,6.6875,6.6914,6.6875,6.6758,6.6406,6.582,6.5273,6.5351,6.5508,6.5859,6.625,6.6719,6.6875,6.6914,6.6914,6.6875,6.6758,6.6367,6.6094,6.625,6.6406,6.6523,6.6523,6.668,6.7031,6.7305,6.75,6.7578,6.7695,6.7812,6.7578,6.7187,6.7088,6.6843,6.6919,6.6878,6.6983,6.7386,6.7324,6.7354,6.7212,6.7051,6.6667,6.6397,6.625,6.625,6.6288,6.625,6.6282,6.6167,6.609,6.6051,6.6096,6.6019,6.5974,6.5974,6.5936,6.5904,6.5897,6.5974,6.609,6.625,6.6365,6.6673,6.7096,6.725,6.7321,6.7282,6.0781,6.0781,6.0781,6.0781,6.0781,6.0781,6.0781,6.0781,6.0781,6.0781,6.0781,6.0935,6.1666,6.2897,6.2441,6.3441,6.5134,6.5051,6.5205,6.5667,6.5904,6.5904,6.5904,6.5904,6.5904,6.5904,6.5904,6.5904,6.5904,6.5904,6.5878,6.5909,6.5969,6.6109,6.632,6.6478,6.6808,6.7372,6.7656,6.7734,6.7773,6.7851,6.789,6.7617,6.7422,6.6953,6.6914,6.6914,6.6914,6.6875,6.6875,6.6758,6.6601,6.6328,6.6367,6.6523,6.6484,6.664,6.6758,6.6914,6.6914,6.6914,6.6914,6.6914,6.6797,6.668,6.668,6.6797,6.6914,6.6914,6.7031,6.7461,6.7851,6.8047,6.832,6.8515,6.8711,6.8203,6.7656,6.7319,6.7034,6.6967,6.6944,6.715,6.7424,6.7743,6.7995,6.8052,6.8052,6.7782,6.7436,6.7205,6.6942,6.6904,6.6827,6.6821,6.6821,6.6628,6.6551,6.6628,6.675,6.6596,6.6474,6.6327,6.625,6.6436,6.659,6.6635,6.6789,6.6904,6.7398,6.7975,6.8359,6.8513,6.8398,6.0781,6.0781,6.0781,6.0781,6.0781,6.0781,6.0781,6.0781,6.0781,6.0781,6.0781,6.0896,6.155,6.2666,6.2287,6.3172,6.5013,6.482,6.5205,6.5667,6.5904,6.5904,6.5904,6.5904,6.5904,6.5904,6.5904,6.5904,6.5904,6.5923,6.5903,6.6013,6.6119,6.6279,6.6496,6.664,6.6966,6.7539,6.7969,6.8164,6.8203,6.8203,6.793,6.7617,6.7226,6.6914,6.6914,6.6914,6.6914,6.6914,6.6914,6.6914,6.6836,6.6758,6.6836,6.6836,6.6836,6.6914,6.6914,6.6914,6.6914,6.6914,6.6914,6.6914,6.6914,6.6758,6.6758,6.6914,6.6914,6.6914,6.7148,6.75,6.789,6.8164,6.8633,6.9023,6.8984,6.8633,6.8366,6.8232,6.8119,6.823,6.8398,6.905,6.9187,6.8716,6.8918,6.8936,6.8936,6.8853,6.8513,6.8244,6.802,6.7782,6.7705,6.7699,6.7699,6.7436,6.7205,6.7359,6.7552,6.7205,6.6981,6.7051,6.7167,6.7398,6.7513,6.7475,6.7552,6.7744,6.8321,6.8975,6.9321,6.9706,6.9821,6.0781,6.0781,6.0781,6.0781,6.0781,6.0781,6.0781,6.0781,6.0781,6.0781,6.0781,6.0781,6.1325,6.1864,6.2178,6.3326,6.4166,6.4589,6.5166,6.5667,6.5865,6.5904,6.5904,6.5904,6.5904,6.5904,6.5904,6.5904,6.5904,6.5923,6.6005,6.6177,6.6346,6.6475,6.6683,6.6832,6.7187,6.75,6.7851,6.8164,6.8203,6.8203,6.7812,6.7383,6.6953,6.6914,6.6914,6.6914,6.6914,6.6914,6.6914,6.6914,6.6914,6.6914,6.6914,6.6914,6.6914,6.6914,6.6914,6.6914,6.6914,6.6914,6.6914,6.6914,6.6953,6.6953,6.6953,6.6992,6.6992,6.7109,6.7344,6.7969,6.8359,6.8633,6.918,6.972,6.9548,6.9273,6.9121,6.9024,6.9041,6.9177,6.9533,7.023,7.028,6.9862,6.9821,6.986,6.9821,6.9706,6.9475,6.936,6.9283,6.9007,6.866,6.8545,6.8545,6.8353,6.816,6.8314,6.8353,6.8167,6.8052,6.8084,6.8199,6.8353,6.8353,6.8321,6.8436,6.8783,6.9244,6.9898,7.0398,7.0783,7.1245,6.0781,6.0781,6.0781,6.0781,6.0781,6.0781,6.0781,6.0781,6.0781,6.0781,6.0781,6.0864,6.1287,6.2101,6.2101,6.298,6.4205,6.4506,6.5128,6.5782,6.5859,6.5904,6.5904,6.5904,6.5904,6.5904,6.5904,6.5904,6.5904,6.5916,6.631,6.6946,6.7188,6.7373,6.7543,6.7617,6.7617,6.7734,6.7773,6.8047,6.8125,6.8164,6.8164,6.7734,6.7265,6.7031,6.6914,6.6914,6.6914,6.6914,6.6953,6.6992,6.707,6.7148,6.7148,6.6992,6.6953,6.707,6.7109,6.7109,6.7148,6.7265,6.7265,6.7148,6.7148,6.7109,6.7187,6.7383,6.7422,6.75,6.793,6.9258,6.9922,6.9922,7.0234,7.0715,7.0891,7.0295,6.9791,6.9479,6.9198,6.915,6.9051,6.9674,7.0131,6.9975,7.036,7.0398,7.0437,7.0398,7.0321,7.0283,7.0244,7.0014,6.959,6.9468,6.9391,6.9237,6.9045,6.893,6.8968,6.9206,6.9167,6.9084,6.9122,6.9199,6.9199,6.9475,6.9898,7.0283,7.0398,7.0821,7.136,7.1713,7.2021]}]]